[[{"header":{"parameterUnit":"m.s-1","parameterCategory":1,"la1":31.0,"la2":29.5877,"lo1":-88.7671,"lo2":-86.6584,"dy":0.0162,"dx":0.0185,"nx":115,"ny":88,"refTime":"2024-04-30T12:00:00:Z","depth":0,"parameterNumber":2,"parameterNumberName":"U-component_of_WINDS"},"data":[0.0,0.0,0.0,0.0,0.0,0.0,0.0,0.0,0.0,0.0,0.0,0.0,0.0,0.0,0.0,0.0,0.0,0.0,0.0,0.0,0.0,0.0,0.0,0.0,0.0,0.0,0.0,0.0,0.0,0.0,0.0,0.0,0.0,0.0,0.0,0.0,0.0,0.0,0.0,0.0,0.0,0.0,0.0,0.0,0.0,0.0,0.0,0.0,0.0,0.0,0.0,0.0,0.0,0.0,0.0,0.0,0.0,0.0,0.0,0.0,0.0,0.0,0.0,0.0,0.0,0.0,0.0,0.0,0.0,0.0,0.0,0.0,0.0,0.0,0.0,0.0,0.0,0.0,0.0,0.0,0.0,0.0,0.0,0.0,0.0,0.0,0.0,0.0,0.0,0.0,0.0,0.0,0.0,0.0,0.0,0.0,0.0,0.0,0.0,0.0,0.0,0.0,0.0,0.0,0.0,0.0,0.0,0.0,0.0,0.0,0.0,0.0,0.0,0.0,0.0,0.0,0.0,0.0,0.0,0.0,0.0,0.0,0.0,0.0,0.0,0.0,0.0,0.0,0.0,0.0,0.0,0.0,0.0,0.0,0.0,0.0,0.0,0.0,0.0,0.0,0.0,0.0,0.0,0.0,0.0,0.0,0.0,0.0,0.0,0.0,0.0,0.0,0.0,0.0,0.0,0.0,0.0,0.0,0.0,0.0,0.0,0.0,0.0,0.0,0.0,0.0,0.0,0.0,0.0,0.0,0.0,0.0,0.0,0.0,0.0,0.0,0.0,0.0,0.0,0.0,0.0,0.0,0.0,0.0,0.0,0.0,0.0,0.0,0.0,0.0,0.0,0.0,0.0,0.0,0.0,0.0,0.0,0.0,0.0,0.0,0.0,0.0,0.0,0.0,0.0,0.0,0.0,0.0,0.0,0.0,0.0,0.0,0.0,0.0,0.0,0.0,0.0,0.0,0.0,0.0,0.0,0.0,0.0,0.0,0.0,0.0,0.0,0.0,0.0,0.0,0.0,0.0,0.0,0.0,0.0,0.0,0.0,0.0,0.0,0.0,0.0,0.0,0.0,0.0,0.0,0.0,0.0,0.0,0.0,0.0,0.0,0.0,0.0,0.0,0.0,0.0,0.0,0.0,0.0,0.0,0.0,0.0,0.0,0.0,0.0,0.0,0.0,0.0,0.0,0.0,0.0,0.0,0.0,0.0,0.0,0.0,0.0,0.0,0.0,0.0,0.0,0.0,0.0,0.0,0.0,0.0,0.0,0.0,0.0,0.0,0.0,0.0,0.0,0.0,0.0,0.0,0.0,0.0,0.0,0.0,0.0,0.0,0.0,0.0,0.0,0.0,0.0,0.0,0.0,0.0,0.0,0.0,0.0,0.0,0.0,0.0,0.0,0.0,0.0,0.0,0.0,0.0,0.0,0.0,0.0,0.0,0.0,0.0,0.0,0.0,0.0,0.0,0.0,0.0,0.0,0.0,0.0,0.0,0.0,0.0,0.0,0.0,0.0,0.0,0.0,0.0,0.0,0.0,0.0,0.0,0.0,0.0,0.0,0.0,0.0,0.0,0.0,0.0,0.0,0.0,0.0,0.0,0.0,0.0,0.0,0.0,0.0,0.0,0.0,0.0,0.0,0.0,0.0,0.0,0.0,0.0,0.0,0.0,0.0,0.0,0.0,0.0,0.0,0.0,0.0,0.0,0.0,0.0,0.0,0.0,0.0,0.0,0.0,0.0,0.0,0.0,0.0,0.0,0.0,0.0,0.0,0.0,0.0,0.0,0.0,0.0,0.0,0.0,0.0,0.0,0.0,0.0,0.0,0.0,0.0,0.0,0.0,0.0,0.0,0.0,0.0,0.0,0.0,0.0,0.0,0.0,0.0,0.0,0.0,0.0,0.0,0.0,0.0,0.0,0.0,0.0,0.0,0.0,0.0,0.0,0.0,0.0,0.0,0.0,0.0,0.0,0.0,0.0,0.0,0.0,0.0,0.0,0.0,0.0,0.0,0.0,0.0,0.0,0.0,0.0,0.0,0.0,0.0,0.0,0.0,0.0,0.0,0.0,0.0,0.0,0.0,0.0,0.0,0.0,0.0,0.0,0.0,0.0,0.0,0.0,0.0,0.0,0.0,0.0,0.0,0.0,0.0,0.0,0.0,0.0,0.0,0.0,0.0,0.0,0.0,0.0,0.0,0.0,0.0,0.0,0.0,0.0,0.0,0.0,0.0,0.0,0.0,0.0,0.0,0.0,0.0,0.0,0.0,0.0,0.0,0.0,0.0,0.0,0.0,0.0,0.0,0.0,0.0,0.0,0.0,0.0,0.0,0.0,0.0,0.0,0.0,0.0,0.0,0.0,0.0,0.0,0.0,0.0,0.0,0.0,0.0,0.0,0.0,0.0,0.0,0.0,0.0,0.0,0.0,0.0,0.0,0.0,0.0,0.0,0.0,0.0,0.0,0.0,0.0,0.0,0.0,0.0,0.0,0.0,0.0,0.0,0.0,0.0,0.0,0.0,0.0,0.0,0.0,0.0,0.0,0.0,0.0,0.0,0.0,0.0,0.0,0.0,0.0,0.0,0.0,0.0,0.0,0.0,0.0,0.0,0.0,0.0,0.0,0.0,0.0,0.0,0.0,0.0,0.0,0.0,0.0,0.0,0.0,0.0,0.0,0.0,0.0,0.0,0.0,0.0,0.0,0.0,0.0,0.0,0.0,0.0,0.0,0.0,0.0,0.0,0.0,0.0,0.0,0.0,0.0,0.0,0.0,0.0,0.0,0.0,0.0,0.0,0.0,0.0,0.0,0.0,0.0,0.0,0.0,0.0,0.0,0.0,0.0,0.0,0.0,0.0,0.0,0.0,0.0,0.0,0.0,0.0,0.0,0.0,0.0,0.0,0.0,0.0,0.0,0.0,0.0,0.0,0.0,0.0,0.0,0.0,0.0,0.0,0.0,0.0,0.0,0.0,0.0,0.0,0.0,0.0,0.0,0.0,0.0,0.0,0.0,0.0,0.0,0.0,0.0,0.0,0.0,0.0,0.0,0.0,0.0,0.0,0.0,0.0,0.0,0.0,0.0,0.0,0.0,0.0,0.0,0.0,0.0,0.0,0.0,0.0,0.0,0.0,0.0,0.0,0.0,0.0,0.0,0.0,0.0,0.0,0.0,0.0,0.0,0.0,0.0,0.0,0.0,0.0,0.0,0.0,0.0,0.0,0.0,0.0,0.0,0.0,0.0,0.0,0.0,0.0,0.0,0.0,0.0,0.0,0.0,0.0,0.0,0.0,0.0,0.0,0.0,0.0,0.0,0.0,0.0,0.0,0.0,0.0,0.0,0.0,0.0,0.0,0.0,0.0,0.0,0.0,0.0,0.0,0.0,0.0,0.0,0.0,0.0,0.0,0.0,0.0,0.0,0.0,0.0,0.0,0.0,0.0,0.0,0.0,0.0,0.0,0.0,0.0,0.0,0.0,0.0,0.0,0.0,0.0,0.0,0.0,0.0,0.0,0.0,0.0,0.0,0.0,0.0,0.0,0.0,0.0,0.0,0.0,0.0,0.0,0.0,0.0,0.0,0.0,0.0,0.0,0.0,0.0,0.0,0.0,0.0,0.0,0.0,0.0,0.0,0.0,0.0,0.0,0.0,0.0,0.0,0.0,0.0,0.0,0.0,0.0,0.0,0.0,0.0,0.0,0.0,0.0,0.0,0.0,0.0,0.0,0.0,0.0,0.0,0.0,0.0,0.0,0.0,0.0,0.0,0.0,0.0,0.0,0.0,0.0,0.0,0.0,0.0,0.0,0.0,0.0,0.0,0.0,0.0,0.0,0.0,0.0,0.0,0.0,0.0,0.0,0.0,0.0,0.0,0.0,0.0,0.0,0.0,0.0,0.0,0.0,0.0,0.0,0.0,0.0,0.0,0.0,0.0,0.0,0.0,0.0,0.0,0.0,0.0,0.0,0.0,0.0,0.0,0.0,0.0,0.0,0.0,0.0,0.0,0.0,0.0,0.0,0.0,0.0,0.0,0.0,0.0,0.0,0.0,0.0,0.0,0.0,0.0,0.0,0.0,0.0,0.0,0.0,0.0,0.0,0.0,0.0,0.0,0.0,0.0,0.0,0.0,0.0,0.0,0.0,0.0,0.0,0.0,0.0,0.0,0.0,0.0,0.0,0.0,0.0,0.0,0.0,0.0,0.0,0.0,0.0,0.0,0.0,0.0,0.0,0.0,0.0,0.0,0.0,0.0,0.0,0.0,0.0,0.0,0.0,-4.8481,0.0,0.0,0.0,0.0,0.0,0.0,0.0,0.0,0.0,0.0,0.0,0.0,0.0,0.0,0.0,0.0,0.0,0.0,0.0,0.0,0.0,0.0,0.0,0.0,0.0,0.0,0.0,0.0,0.0,0.0,0.0,0.0,0.0,0.0,0.0,0.0,0.0,0.0,0.0,0.0,0.0,0.0,0.0,0.0,0.0,0.0,0.0,0.0,0.0,0.0,0.0,0.0,0.0,0.0,0.0,0.0,0.0,0.0,0.0,0.0,0.0,0.0,0.0,0.0,0.0,0.0,0.0,0.0,0.0,0.0,0.0,0.0,0.0,0.0,0.0,0.0,0.0,0.0,0.0,0.0,0.0,0.0,0.0,0.0,0.0,0.0,0.0,0.0,0.0,0.0,0.0,0.0,0.0,0.0,0.0,0.0,0.0,0.0,0.0,0.0,0.0,0.0,0.0,0.0,0.0,0.0,0.0,0.0,0.0,0.0,-5.0682,-5.0909,-5.0866,-5.0093,-4.8481,0.0,0.0,0.0,0.0,0.0,0.0,0.0,0.0,0.0,0.0,0.0,0.0,0.0,0.0,0.0,0.0,0.0,0.0,0.0,0.0,0.0,0.0,0.0,0.0,0.0,0.0,0.0,0.0,0.0,0.0,0.0,0.0,0.0,0.0,0.0,0.0,0.0,0.0,0.0,0.0,0.0,0.0,0.0,0.0,0.0,0.0,0.0,0.0,0.0,0.0,0.0,0.0,0.0,0.0,0.0,0.0,0.0,0.0,0.0,0.0,0.0,0.0,0.0,0.0,0.0,0.0,0.0,0.0,0.0,0.0,0.0,0.0,0.0,0.0,0.0,0.0,0.0,0.0,0.0,0.0,0.0,0.0,0.0,0.0,0.0,0.0,0.0,0.0,0.0,0.0,0.0,0.0,0.0,0.0,0.0,0.0,0.0,0.0,0.0,0.0,0.0,0.0,0.0,0.0,0.0,0.0,0.0,0.0,0.0,0.0,0.0,0.0,-5.118,-5.0422,-4.8759,0.0,0.0,0.0,0.0,0.0,0.0,0.0,0.0,0.0,0.0,0.0,0.0,0.0,0.0,0.0,0.0,0.0,0.0,0.0,0.0,0.0,0.0,0.0,0.0,0.0,0.0,0.0,0.0,0.0,0.0,0.0,0.0,0.0,0.0,0.0,0.0,0.0,0.0,0.0,0.0,0.0,0.0,0.0,0.0,0.0,0.0,0.0,0.0,0.0,0.0,0.0,0.0,0.0,0.0,0.0,0.0,0.0,0.0,0.0,0.0,0.0,0.0,0.0,0.0,0.0,0.0,0.0,0.0,0.0,0.0,0.0,0.0,0.0,0.0,0.0,0.0,0.0,0.0,0.0,0.0,0.0,0.0,0.0,0.0,0.0,0.0,0.0,0.0,0.0,0.0,0.0,0.0,0.0,0.0,0.0,0.0,0.0,0.0,0.0,0.0,0.0,0.0,0.0,0.0,0.0,0.0,0.0,0.0,0.0,0.0,-5.0738,-5.178,-5.1962,0.0,-4.9726,0.0,0.0,0.0,0.0,0.0,0.0,0.0,0.0,0.0,0.0,0.0,0.0,0.0,0.0,0.0,0.0,0.0,0.0,0.0,0.0,0.0,0.0,0.0,0.0,0.0,0.0,0.0,0.0,0.0,0.0,0.0,0.0,0.0,0.0,0.0,0.0,0.0,0.0,0.0,0.0,0.0,0.0,0.0,0.0,0.0,0.0,0.0,0.0,0.0,0.0,0.0,0.0,0.0,0.0,0.0,0.0,0.0,0.0,0.0,0.0,0.0,0.0,0.0,0.0,0.0,0.0,0.0,0.0,0.0,0.0,0.0,0.0,0.0,0.0,0.0,0.0,0.0,0.0,0.0,0.0,0.0,0.0,0.0,0.0,0.0,0.0,0.0,0.0,0.0,0.0,0.0,0.0,0.0,0.0,0.0,0.0,0.0,0.0,0.0,0.0,0.0,0.0,0.0,0.0,0.0,0.0,0.0,0.0,0.0,0.0,-5.0588,-5.1759,-5.1052,-5.0101,0.0,0.0,0.0,0.0,0.0,0.0,0.0,0.0,0.0,0.0,0.0,0.0,0.0,0.0,0.0,0.0,0.0,0.0,0.0,0.0,0.0,0.0,0.0,0.0,0.0,0.0,0.0,0.0,0.0,0.0,0.0,0.0,0.0,0.0,0.0,0.0,0.0,0.0,0.0,0.0,0.0,0.0,0.0,0.0,0.0,0.0,0.0,0.0,0.0,0.0,0.0,0.0,0.0,0.0,0.0,0.0,0.0,0.0,0.0,0.0,0.0,0.0,0.0,0.0,0.0,0.0,0.0,0.0,0.0,0.0,0.0,0.0,0.0,0.0,0.0,0.0,0.0,0.0,0.0,0.0,0.0,0.0,0.0,0.0,0.0,0.0,0.0,0.0,0.0,0.0,0.0,0.0,0.0,0.0,0.0,0.0,0.0,0.0,0.0,0.0,0.0,0.0,0.0,0.0,0.0,0.0,0.0,0.0,0.0,0.0,-5.0277,-5.0848,-5.194,-5.0484,-4.9331,-4.8659,0.0,0.0,0.0,0.0,0.0,0.0,0.0,0.0,0.0,0.0,0.0,0.0,0.0,0.0,0.0,0.0,0.0,0.0,0.0,0.0,0.0,0.0,0.0,0.0,0.0,0.0,0.0,0.0,0.0,0.0,0.0,0.0,0.0,0.0,0.0,0.0,0.0,0.0,0.0,0.0,0.0,0.0,0.0,0.0,0.0,0.0,0.0,0.0,0.0,0.0,0.0,0.0,0.0,0.0,0.0,0.0,0.0,0.0,0.0,0.0,0.0,0.0,0.0,0.0,0.0,0.0,0.0,0.0,0.0,0.0,0.0,0.0,0.0,0.0,0.0,0.0,0.0,0.0,0.0,0.0,0.0,0.0,0.0,0.0,0.0,0.0,0.0,0.0,0.0,0.0,0.0,0.0,0.0,0.0,0.0,0.0,0.0,0.0,0.0,0.0,0.0,0.0,0.0,0.0,0.0,0.0,0.0,0.0,-5.17,-5.1348,-5.1763,-5.2974,-5.0902,-4.9626,0.0,0.0,0.0,0.0,0.0,0.0,0.0,0.0,0.0,0.0,0.0,0.0,0.0,0.0,0.0,0.0,0.0,0.0,0.0,0.0,0.0,0.0,0.0,0.0,0.0,0.0,0.0,0.0,0.0,0.0,0.0,0.0,0.0,0.0,0.0,0.0,0.0,0.0,0.0,0.0,0.0,0.0,0.0,0.0,0.0,0.0,0.0,0.0,0.0,0.0,0.0,0.0,0.0,0.0,0.0,0.0,0.0,0.0,0.0,0.0,0.0,0.0,0.0,0.0,0.0,0.0,0.0,0.0,0.0,0.0,0.0,0.0,0.0,0.0,0.0,0.0,0.0,0.0,0.0,0.0,0.0,0.0,0.0,0.0,0.0,0.0,0.0,0.0,0.0,0.0,0.0,0.0,0.0,0.0,0.0,0.0,0.0,0.0,0.0,0.0,0.0,0.0,0.0,0.0,0.0,0.0,0.0,0.0,0.0,-5.0204,-5.0833,-5.1236,-5.1322,-5.0228,-4.9354,0.0,0.0,0.0,0.0,0.0,0.0,0.0,0.0,0.0,0.0,0.0,0.0,0.0,0.0,0.0,0.0,0.0,0.0,0.0,0.0,0.0,0.0,0.0,0.0,0.0,0.0,0.0,0.0,0.0,0.0,0.0,0.0,0.0,0.0,0.0,0.0,0.0,0.0,0.0,0.0,0.0,0.0,0.0,0.0,0.0,0.0,0.0,0.0,0.0,0.0,0.0,0.0,0.0,0.0,0.0,0.0,0.0,0.0,0.0,0.0,0.0,0.0,0.0,0.0,0.0,0.0,0.0,0.0,0.0,0.0,0.0,0.0,0.0,0.0,0.0,0.0,0.0,0.0,0.0,0.0,0.0,0.0,0.0,0.0,0.0,0.0,0.0,0.0,0.0,0.0,0.0,0.0,0.0,0.0,0.0,0.0,0.0,0.0,0.0,0.0,0.0,0.0,0.0,0.0,0.0,0.0,0.0,0.0,0.0,-4.972,0.0,-5.0798,-5.0271,-4.9442,-4.8656,0.0,0.0,0.0,0.0,0.0,0.0,0.0,0.0,0.0,0.0,0.0,0.0,0.0,0.0,0.0,0.0,0.0,0.0,0.0,0.0,0.0,0.0,0.0,0.0,0.0,0.0,0.0,0.0,0.0,0.0,0.0,0.0,0.0,0.0,0.0,0.0,0.0,0.0,0.0,0.0,0.0,0.0,0.0,0.0,0.0,0.0,0.0,0.0,0.0,0.0,0.0,0.0,0.0,0.0,0.0,0.0,0.0,0.0,0.0,0.0,0.0,0.0,0.0,0.0,0.0,0.0,0.0,0.0,0.0,0.0,0.0,0.0,0.0,0.0,0.0,0.0,0.0,0.0,0.0,0.0,0.0,0.0,0.0,0.0,0.0,0.0,0.0,0.0,0.0,0.0,0.0,0.0,0.0,0.0,0.0,0.0,0.0,0.0,0.0,0.0,0.0,0.0,0.0,0.0,0.0,0.0,0.0,0.0,-4.965,-5.0598,-5.0638,-5.0516,-5.0159,-4.8682,-4.7607,0.0,0.0,0.0,0.0,0.0,0.0,0.0,0.0,0.0,0.0,0.0,0.0,0.0,0.0,0.0,0.0,0.0,0.0,0.0,0.0,0.0,0.0,0.0,0.0,0.0,0.0,0.0,0.0,0.0,0.0,0.0,0.0,0.0,0.0,0.0,0.0,0.0,0.0,0.0,0.0,0.0,0.0,0.0,0.0,0.0,0.0,0.0,0.0,0.0,0.0,0.0,0.0,0.0,0.0,0.0,0.0,0.0,0.0,0.0,0.0,0.0,0.0,0.0,0.0,0.0,0.0,0.0,0.0,0.0,0.0,0.0,0.0,0.0,0.0,0.0,0.0,0.0,0.0,0.0,0.0,0.0,0.0,0.0,0.0,0.0,0.0,0.0,0.0,0.0,0.0,0.0,0.0,0.0,0.0,0.0,0.0,0.0,0.0,0.0,0.0,0.0,0.0,0.0,0.0,0.0,0.0,0.0,0.0,0.0,-4.8983,-4.951,-4.9892,-5.0056,-4.8662,-4.8126,0.0,0.0,0.0,0.0,0.0,0.0,0.0,0.0,0.0,0.0,0.0,0.0,0.0,0.0,0.0,0.0,0.0,0.0,0.0,0.0,0.0,0.0,0.0,0.0,0.0,0.0,0.0,0.0,0.0,0.0,0.0,0.0,0.0,0.0,0.0,0.0,0.0,0.0,0.0,0.0,0.0,0.0,0.0,0.0,0.0,0.0,0.0,0.0,0.0,0.0,0.0,0.0,0.0,0.0,0.0,0.0,0.0,0.0,0.0,0.0,0.0,0.0,0.0,0.0,0.0,0.0,0.0,0.0,0.0,0.0,0.0,0.0,0.0,0.0,0.0,0.0,0.0,0.0,0.0,0.0,0.0,0.0,0.0,0.0,0.0,0.0,0.0,0.0,0.0,0.0,0.0,0.0,0.0,0.0,0.0,0.0,0.0,0.0,0.0,0.0,0.0,0.0,0.0,0.0,0.0,0.0,0.0,0.0,0.0,-4.8122,-4.9086,-4.9713,-4.9836,-4.8618,-4.8108,-4.8327,0.0,0.0,0.0,0.0,0.0,0.0,0.0,0.0,0.0,0.0,0.0,0.0,0.0,0.0,0.0,0.0,0.0,0.0,0.0,0.0,0.0,0.0,0.0,0.0,0.0,0.0,0.0,0.0,0.0,0.0,0.0,0.0,0.0,0.0,0.0,0.0,0.0,0.0,0.0,0.0,0.0,0.0,0.0,0.0,0.0,0.0,0.0,0.0,0.0,0.0,0.0,0.0,0.0,0.0,0.0,0.0,0.0,0.0,0.0,0.0,0.0,0.0,0.0,0.0,0.0,0.0,0.0,0.0,0.0,0.0,0.0,0.0,0.0,0.0,0.0,0.0,0.0,0.0,0.0,0.0,0.0,0.0,0.0,0.0,0.0,0.0,0.0,0.0,0.0,0.0,0.0,0.0,0.0,0.0,0.0,0.0,0.0,0.0,0.0,0.0,0.0,0.0,0.0,0.0,0.0,0.0,0.0,0.0,-4.7738,-4.9317,-4.9935,-4.9476,-4.86,-4.7621,0.0,0.0,0.0,0.0,0.0,0.0,0.0,0.0,0.0,0.0,0.0,0.0,0.0,0.0,0.0,0.0,0.0,0.0,0.0,0.0,0.0,0.0,0.0,0.0,0.0,0.0,0.0,0.0,0.0,0.0,0.0,0.0,0.0,0.0,0.0,0.0,0.0,0.0,0.0,0.0,0.0,0.0,0.0,0.0,0.0,0.0,0.0,0.0,0.0,0.0,0.0,0.0,0.0,0.0,0.0,0.0,0.0,0.0,0.0,0.0,0.0,0.0,0.0,0.0,0.0,0.0,0.0,0.0,0.0,0.0,0.0,0.0,0.0,0.0,0.0,0.0,0.0,0.0,0.0,0.0,0.0,0.0,0.0,0.0,0.0,0.0,0.0,0.0,0.0,0.0,0.0,0.0,0.0,0.0,0.0,0.0,0.0,0.0,0.0,0.0,0.0,0.0,0.0,0.0,0.0,0.0,0.0,0.0,0.0,-4.7813,-4.9893,-5.0811,-5.0275,-4.8897,-4.8154,0.0,0.0,0.0,0.0,0.0,0.0,0.0,0.0,0.0,0.0,0.0,0.0,0.0,0.0,0.0,0.0,0.0,0.0,0.0,0.0,0.0,0.0,0.0,0.0,0.0,0.0,0.0,0.0,0.0,0.0,0.0,0.0,0.0,0.0,0.0,0.0,0.0,0.0,0.0,0.0,0.0,0.0,0.0,0.0,0.0,0.0,0.0,0.0,0.0,0.0,0.0,0.0,0.0,0.0,0.0,0.0,0.0,0.0,0.0,0.0,0.0,0.0,0.0,0.0,0.0,0.0,0.0,0.0,0.0,0.0,0.0,0.0,0.0,0.0,0.0,0.0,0.0,0.0,0.0,0.0,0.0,0.0,0.0,0.0,0.0,0.0,0.0,0.0,0.0,0.0,0.0,0.0,0.0,0.0,0.0,0.0,0.0,0.0,0.0,0.0,0.0,0.0,0.0,0.0,0.0,0.0,0.0,0.0,-4.8742,-4.7757,-5.0785,-5.1953,-5.0966,-5.0046,-4.9174,0.0,0.0,0.0,0.0,0.0,0.0,0.0,0.0,0.0,0.0,0.0,0.0,0.0,0.0,0.0,0.0,0.0,0.0,0.0,0.0,0.0,0.0,0.0,0.0,0.0,0.0,0.0,0.0,0.0,0.0,0.0,0.0,0.0,0.0,0.0,0.0,0.0,0.0,0.0,0.0,0.0,0.0,0.0,0.0,0.0,0.0,0.0,0.0,0.0,0.0,0.0,0.0,0.0,0.0,0.0,0.0,0.0,0.0,0.0,0.0,0.0,0.0,0.0,0.0,0.0,0.0,0.0,0.0,0.0,0.0,0.0,0.0,0.0,0.0,0.0,0.0,0.0,0.0,0.0,0.0,0.0,0.0,0.0,0.0,0.0,0.0,0.0,0.0,0.0,0.0,0.0,0.0,0.0,0.0,0.0,0.0,0.0,0.0,0.0,0.0,0.0,0.0,0.0,0.0,0.0,0.0,0.0,0.0,-4.9856,-4.7794,-5.1435,-5.2717,-5.1342,-5.1268,-5.0294,0.0,0.0,0.0,0.0,0.0,0.0,0.0,0.0,0.0,0.0,0.0,0.0,0.0,0.0,0.0,0.0,0.0,0.0,0.0,0.0,0.0,0.0,0.0,0.0,0.0,0.0,0.0,0.0,0.0,0.0,0.0,0.0,0.0,0.0,0.0,0.0,0.0,0.0,0.0,0.0,0.0,0.0,0.0,0.0,0.0,0.0,0.0,0.0,0.0,0.0,0.0,0.0,0.0,0.0,0.0,0.0,0.0,0.0,0.0,0.0,0.0,0.0,0.0,0.0,0.0,0.0,0.0,0.0,0.0,0.0,0.0,0.0,0.0,0.0,0.0,0.0,0.0,0.0,0.0,0.0,0.0,0.0,0.0,0.0,0.0,0.0,0.0,0.0,0.0,0.0,0.0,0.0,0.0,0.0,0.0,0.0,0.0,0.0,0.0,0.0,0.0,0.0,0.0,0.0,0.0,0.0,0.0,0.0,-4.7608,-4.7757,-4.98,-5.0729,-5.0376,-5.0395,-4.9873,0.0,0.0,0.0,0.0,0.0,0.0,0.0,0.0,0.0,0.0,0.0,0.0,0.0,0.0,0.0,0.0,0.0,0.0,0.0,0.0,0.0,0.0,0.0,0.0,0.0,0.0,0.0,0.0,0.0,0.0,0.0,0.0,0.0,0.0,0.0,0.0,0.0,0.0,0.0,0.0,0.0,0.0,0.0,0.0,0.0,0.0,0.0,0.0,-4.6141,0.0,0.0,0.0,0.0,0.0,0.0,0.0,0.0,0.0,0.0,0.0,0.0,0.0,0.0,0.0,0.0,0.0,0.0,0.0,0.0,0.0,0.0,0.0,0.0,0.0,0.0,0.0,0.0,0.0,0.0,0.0,0.0,0.0,0.0,0.0,0.0,0.0,0.0,0.0,0.0,0.0,0.0,0.0,0.0,0.0,0.0,0.0,0.0,0.0,0.0,0.0,0.0,0.0,0.0,0.0,0.0,0.0,0.0,0.0,-4.8389,-4.8872,-5.045,-5.1082,-5.0729,-5.032,-4.9559,0.0,0.0,0.0,0.0,0.0,0.0,0.0,0.0,0.0,0.0,0.0,0.0,0.0,0.0,0.0,0.0,0.0,0.0,0.0,0.0,0.0,0.0,0.0,0.0,0.0,0.0,0.0,0.0,0.0,0.0,0.0,0.0,0.0,0.0,0.0,0.0,0.0,0.0,0.0,0.0,0.0,0.0,0.0,0.0,0.0,0.0,0.0,0.0,0.0,0.0,0.0,0.0,0.0,0.0,0.0,0.0,0.0,0.0,0.0,0.0,0.0,0.0,0.0,0.0,0.0,0.0,0.0,0.0,0.0,0.0,0.0,0.0,0.0,0.0,0.0,0.0,0.0,0.0,0.0,0.0,0.0,0.0,0.0,0.0,0.0,0.0,0.0,0.0,0.0,0.0,0.0,0.0,0.0,0.0,0.0,0.0,0.0,0.0,0.0,0.0,0.0,0.0,0.0,0.0,0.0,0.0,0.0,-4.8799,-4.993,-5.0339,-5.1695,-5.2104,-5.1416,-5.0543,-4.941,-4.798,0.0,0.0,0.0,0.0,0.0,0.0,0.0,0.0,0.0,0.0,0.0,0.0,0.0,0.0,0.0,0.0,0.0,0.0,0.0,0.0,0.0,0.0,0.0,0.0,0.0,0.0,0.0,0.0,0.0,0.0,0.0,0.0,0.0,0.0,0.0,0.0,0.0,0.0,-4.4093,-4.5932,0.0,0.0,0.0,0.0,0.0,0.0,0.0,0.0,-4.7218,0.0,0.0,0.0,0.0,0.0,0.0,0.0,0.0,0.0,0.0,0.0,0.0,0.0,0.0,0.0,0.0,0.0,0.0,0.0,0.0,0.0,0.0,0.0,0.0,0.0,0.0,0.0,0.0,0.0,0.0,0.0,0.0,0.0,0.0,0.0,0.0,0.0,0.0,0.0,0.0,0.0,0.0,0.0,0.0,0.0,0.0,0.0,0.0,0.0,0.0,0.0,0.0,0.0,0.0,0.0,0.0,-4.9104,-4.847,-4.9094,-5.1138,-5.1454,-5.1528,-5.1379,-5.0562,-4.967,-4.8779,0.0,0.0,0.0,0.0,0.0,0.0,0.0,0.0,0.0,0.0,0.0,0.0,0.0,0.0,0.0,0.0,0.0,0.0,0.0,0.0,0.0,0.0,0.0,0.0,0.0,0.0,0.0,0.0,0.0,0.0,0.0,0.0,0.0,0.0,0.0,0.0,0.0,0.0,0.0,-4.7183,-4.8535,0.0,0.0,0.0,0.0,0.0,0.0,0.0,0.0,-4.798,0.0,0.0,0.0,0.0,0.0,0.0,0.0,0.0,0.0,0.0,0.0,0.0,0.0,0.0,0.0,0.0,0.0,0.0,0.0,0.0,0.0,0.0,0.0,0.0,0.0,0.0,0.0,0.0,0.0,0.0,0.0,0.0,0.0,0.0,0.0,0.0,0.0,0.0,0.0,0.0,0.0,0.0,0.0,0.0,0.0,0.0,0.0,0.0,0.0,0.0,0.0,0.0,0.0,0.0,0.0,-4.914,-4.9524,-5.0599,-5.2549,-5.2234,-5.2029,-5.1992,-5.0785,-4.9726,0.0,0.0,0.0,0.0,0.0,0.0,0.0,0.0,0.0,0.0,0.0,0.0,0.0,0.0,0.0,0.0,0.0,0.0,0.0,0.0,0.0,0.0,0.0,0.0,0.0,0.0,0.0,0.0,0.0,0.0,0.0,0.0,0.0,0.0,0.0,0.0,0.0,0.0,0.0,0.0,-4.7603,-4.8547,-4.8862,0.0,0.0,0.0,0.0,0.0,0.0,-4.824,-4.811,0.0,0.0,0.0,0.0,0.0,0.0,0.0,0.0,0.0,0.0,0.0,0.0,0.0,0.0,0.0,0.0,0.0,0.0,0.0,0.0,0.0,0.0,0.0,0.0,0.0,0.0,0.0,0.0,0.0,0.0,0.0,0.0,0.0,0.0,0.0,0.0,0.0,0.0,0.0,0.0,0.0,0.0,0.0,0.0,0.0,0.0,0.0,0.0,0.0,0.0,0.0,0.0,0.0,0.0,0.0,-4.8269,-4.9988,-5.1769,-5.3441,-5.294,-5.2679,-5.281,-5.1231,-4.9968,0.0,0.0,0.0,0.0,0.0,0.0,0.0,0.0,0.0,0.0,0.0,0.0,0.0,0.0,0.0,0.0,0.0,0.0,0.0,0.0,0.0,0.0,0.0,0.0,0.0,0.0,0.0,0.0,0.0,0.0,0.0,0.0,0.0,0.0,0.0,0.0,0.0,0.0,0.0,0.0,0.0,-4.8746,-4.8834,-4.8464,0.0,0.0,0.0,0.0,-4.8674,-4.8597,0.0,0.0,0.0,0.0,0.0,0.0,0.0,0.0,0.0,0.0,0.0,0.0,0.0,0.0,0.0,0.0,0.0,0.0,0.0,0.0,0.0,0.0,0.0,0.0,0.0,0.0,0.0,0.0,0.0,0.0,0.0,0.0,0.0,0.0,0.0,0.0,0.0,0.0,0.0,0.0,0.0,0.0,0.0,0.0,0.0,0.0,0.0,0.0,0.0,0.0,0.0,0.0,0.0,0.0,0.0,0.0,-4.6103,-4.8123,-5.0339,-5.2605,-5.2642,-5.2958,-5.3608,-5.2104,-5.0859,0.0,0.0,0.0,0.0,0.0,0.0,0.0,0.0,0.0,0.0,0.0,0.0,0.0,0.0,0.0,0.0,0.0,0.0,0.0,0.0,0.0,0.0,0.0,0.0,0.0,0.0,0.0,0.0,0.0,0.0,0.0,0.0,0.0,0.0,0.0,0.0,0.0,0.0,0.0,0.0,0.0,-5.0204,-4.9436,-4.9215,-4.8744,0.0,0.0,-4.8329,-4.8382,-4.9825,0.0,0.0,0.0,0.0,0.0,0.0,0.0,0.0,0.0,0.0,0.0,0.0,0.0,0.0,0.0,0.0,0.0,0.0,0.0,0.0,0.0,0.0,0.0,0.0,0.0,0.0,0.0,0.0,0.0,0.0,0.0,0.0,0.0,0.0,0.0,0.0,0.0,0.0,0.0,0.0,0.0,0.0,0.0,0.0,0.0,0.0,0.0,0.0,0.0,0.0,0.0,0.0,0.0,0.0,0.0,-4.5739,-4.6354,-4.8122,-4.9895,-5.1563,-5.1637,-5.1879,-5.2419,-5.1286,-5.006,0.0,0.0,0.0,0.0,0.0,0.0,0.0,0.0,0.0,0.0,0.0,0.0,0.0,0.0,0.0,0.0,0.0,0.0,0.0,0.0,0.0,0.0,0.0,0.0,0.0,0.0,0.0,0.0,0.0,0.0,0.0,0.0,0.0,0.0,0.0,0.0,0.0,0.0,0.0,0.0,0.0,0.0,-4.9008,-4.9021,0.0,0.0,0.0,-4.8457,-4.8886,0.0,0.0,0.0,0.0,0.0,0.0,0.0,0.0,0.0,0.0,0.0,0.0,0.0,0.0,0.0,0.0,0.0,0.0,0.0,0.0,0.0,0.0,0.0,0.0,0.0,0.0,0.0,0.0,0.0,0.0,0.0,0.0,0.0,0.0,0.0,0.0,0.0,0.0,0.0,0.0,0.0,0.0,0.0,0.0,0.0,0.0,0.0,0.0,0.0,0.0,0.0,0.0,0.0,0.0,0.0,0.0,0.0,-4.6107,-4.7694,-4.9133,-5.0403,-5.0496,-5.0668,-5.1119,-5.0139,0.0,0.0,0.0,0.0,0.0,0.0,0.0,0.0,0.0,0.0,0.0,0.0,0.0,0.0,0.0,0.0,0.0,0.0,0.0,0.0,0.0,0.0,0.0,0.0,0.0,0.0,0.0,-3.9301,0.0,0.0,0.0,0.0,0.0,0.0,0.0,0.0,0.0,0.0,0.0,0.0,0.0,0.0,-4.9213,-4.8496,-4.894,-4.9278,0.0,0.0,-4.8683,-4.915,-4.8764,-4.7922,0.0,0.0,0.0,0.0,0.0,0.0,0.0,0.0,0.0,0.0,0.0,0.0,0.0,0.0,0.0,0.0,0.0,0.0,0.0,0.0,0.0,0.0,0.0,0.0,0.0,0.0,0.0,0.0,0.0,0.0,0.0,0.0,0.0,0.0,0.0,0.0,0.0,0.0,0.0,0.0,0.0,0.0,0.0,0.0,0.0,0.0,0.0,0.0,0.0,0.0,0.0,0.0,0.0,0.0,0.0,-4.4198,-4.5782,-4.7466,-4.9238,-4.9312,-4.9679,-5.0415,-4.895,-4.7843,0.0,0.0,0.0,0.0,0.0,0.0,0.0,0.0,0.0,0.0,0.0,0.0,0.0,0.0,0.0,0.0,0.0,0.0,0.0,0.0,0.0,0.0,0.0,0.0,0.0,0.0,0.0,0.0,0.0,0.0,0.0,0.0,0.0,0.0,0.0,0.0,0.0,0.0,0.0,0.0,0.0,-4.8685,-4.8186,-4.9353,-5.0042,0.0,0.0,-4.8999,-4.8863,-4.9204,-4.8681,-4.6251,0.0,0.0,0.0,0.0,0.0,0.0,0.0,0.0,0.0,0.0,0.0,0.0,0.0,0.0,0.0,0.0,0.0,0.0,0.0,0.0,0.0,0.0,0.0,0.0,0.0,0.0,0.0,0.0,0.0,0.0,0.0,0.0,0.0,0.0,0.0,0.0,0.0,0.0,0.0,0.0,0.0,0.0,0.0,0.0,0.0,0.0,0.0,0.0,0.0,0.0,0.0,0.0,0.0,-4.2771,-4.4157,-4.4814,-4.5774,-4.7075,-4.6845,-4.686,-4.7232,-4.665,-4.5941,0.0,0.0,0.0,0.0,0.0,0.0,0.0,0.0,0.0,0.0,0.0,0.0,0.0,0.0,0.0,0.0,0.0,0.0,0.0,0.0,0.0,0.0,0.0,0.0,0.0,0.0,0.0,0.0,-4.0722,-4.0894,-4.0894,0.0,0.0,0.0,0.0,0.0,0.0,0.0,0.0,0.0,0.0,-4.771,-4.8425,-4.9031,0.0,0.0,-4.9246,-4.8887,-4.8806,-4.8438,-4.7518,-4.5558,-4.4765,0.0,0.0,0.0,0.0,0.0,0.0,0.0,0.0,0.0,0.0,0.0,0.0,0.0,0.0,0.0,0.0,0.0,0.0,0.0,0.0,0.0,0.0,0.0,0.0,0.0,0.0,0.0,0.0,0.0,0.0,0.0,0.0,0.0,0.0,0.0,0.0,0.0,0.0,0.0,0.0,0.0,0.0,0.0,0.0,0.0,0.0,0.0,0.0,0.0,0.0,0.0,0.0,-4.2273,-4.3912,-4.3805,-4.4226,-4.5285,-4.4925,-4.4788,-4.4875,-4.4677,-4.4222,0.0,0.0,0.0,0.0,0.0,0.0,0.0,0.0,0.0,0.0,0.0,0.0,0.0,0.0,0.0,0.0,0.0,0.0,0.0,0.0,0.0,0.0,0.0,0.0,0.0,0.0,0.0,0.0,-4.0817,-4.0655,-4.0541,0.0,0.0,0.0,0.0,0.0,0.0,0.0,0.0,0.0,0.0,-4.7007,-4.7814,-4.8443,-4.901,-4.9533,-4.8775,-4.8293,-4.8723,-4.7829,-4.6626,-4.5269,0.0,0.0,0.0,0.0,0.0,0.0,0.0,0.0,0.0,0.0,0.0,0.0,0.0,0.0,0.0,0.0,0.0,0.0,0.0,0.0,0.0,0.0,0.0,0.0,0.0,0.0,0.0,0.0,0.0,0.0,-4.934,0.0,0.0,0.0,0.0,0.0,0.0,0.0,0.0,0.0,0.0,0.0,0.0,0.0,0.0,0.0,0.0,0.0,0.0,0.0,0.0,0.0,0.0,-4.1341,-4.3081,-4.2694,-4.2929,-4.3921,-4.3921,-4.3891,-4.3874,-4.3218,-4.2953,-4.317,0.0,0.0,0.0,0.0,0.0,0.0,0.0,0.0,0.0,0.0,0.0,0.0,0.0,0.0,0.0,0.0,0.0,0.0,0.0,0.0,0.0,0.0,0.0,0.0,0.0,0.0,-4.0823,-4.0534,-4.0146,0.0,0.0,0.0,0.0,0.0,0.0,0.0,0.0,0.0,0.0,-4.4823,-4.672,-4.6107,-4.7592,-4.8781,-4.8827,-4.7638,-4.7189,-4.8586,-4.7579,-4.6337,0.0,0.0,0.0,0.0,0.0,0.0,0.0,0.0,0.0,0.0,0.0,0.0,0.0,0.0,0.0,0.0,0.0,0.0,0.0,0.0,0.0,0.0,0.0,0.0,0.0,0.0,0.0,-4.8632,-4.8363,0.0,0.0,0.0,0.0,0.0,0.0,0.0,0.0,0.0,0.0,0.0,-4.7028,-4.562,0.0,0.0,0.0,0.0,0.0,0.0,0.0,0.0,0.0,0.0,0.0,0.0,-4.0996,-4.2503,-4.1963,-4.2021,-4.2865,-4.2554,-4.2291,-4.2119,-4.1887,-4.1775,-4.1853,0.0,0.0,0.0,0.0,0.0,0.0,0.0,0.0,0.0,0.0,0.0,0.0,0.0,0.0,0.0,0.0,0.0,0.0,0.0,0.0,0.0,0.0,0.0,0.0,0.0,-4.0238,0.0,0.0,0.0,0.0,0.0,0.0,0.0,0.0,0.0,0.0,0.0,-4.0883,-4.2384,-4.3609,-4.4614,-4.5339,-4.6811,-4.7971,0.0,0.0,0.0,0.0,0.0,0.0,0.0,0.0,0.0,0.0,0.0,0.0,0.0,0.0,-4.7961,-4.505,-4.3898,-4.3284,-4.2869,0.0,0.0,0.0,0.0,0.0,0.0,0.0,0.0,0.0,0.0,0.0,0.0,0.0,0.0,-4.7603,0.0,-4.6525,0.0,0.0,0.0,0.0,0.0,0.0,0.0,0.0,-4.4344,-4.4528,-4.5824,-4.4194,-4.376,0.0,-4.274,-4.2024,0.0,0.0,0.0,0.0,0.0,0.0,0.0,0.0,-4.0977,-4.1905,-4.1418,-4.1371,-4.1823,-4.1533,-4.1272,-4.1111,-4.1111,-4.1111,-4.1094,-4.1163,-4.1209,0.0,0.0,0.0,0.0,0.0,0.0,0.0,0.0,0.0,0.0,0.0,0.0,0.0,0.0,0.0,0.0,0.0,0.0,0.0,0.0,0.0,0.0,0.0,-3.9825,0.0,0.0,0.0,0.0,0.0,0.0,0.0,0.0,0.0,-4.0183,-4.0188,-4.0748,-4.2442,-4.3169,-4.3873,-4.4773,0.0,0.0,0.0,0.0,0.0,0.0,0.0,-4.7483,-4.721,-4.7352,-4.7625,-4.8034,-4.8717,-4.912,-4.8844,0.0,0.0,-4.6744,-4.5648,-4.513,-4.513,-4.532,-4.532,-4.4854,-4.513,-4.4941,0.0,0.0,0.0,0.0,0.0,0.0,0.0,0.0,-4.7005,-4.655,0.0,-4.5084,0.0,0.0,0.0,0.0,0.0,-4.3987,0.0,0.0,-4.3268,-4.2991,-4.3621,-4.2356,-4.1661,-4.1677,-4.1626,-4.1072,-4.0193,-4.0038,0.0,0.0,0.0,0.0,0.0,0.0,-4.1163,-4.1157,-4.0924,-4.0847,-4.0864,-4.0847,-4.0847,-4.0847,-4.0847,-4.0847,-4.0864,-4.1041,-4.114,-4.114,-4.1123,0.0,0.0,0.0,0.0,0.0,0.0,0.0,0.0,0.0,0.0,0.0,0.0,0.0,0.0,0.0,0.0,0.0,0.0,0.0,0.0,-3.9568,0.0,0.0,0.0,0.0,0.0,0.0,0.0,0.0,0.0,0.0,-3.9441,-4.0369,-4.1294,-4.1965,0.0,0.0,0.0,0.0,-4.536,-4.6012,-4.5561,-4.5644,-4.7046,-4.7245,-4.701,-4.6327,0.0,0.0,-4.8747,-4.9332,-4.9527,-4.8867,-4.9269,-4.9895,-4.9775,-4.9068,-4.8689,-4.8672,-4.8137,-4.7775,-4.7707,-4.7545,-4.6975,-4.7803,0.0,0.0,0.0,0.0,-4.6984,-4.6207,-4.4908,-4.4908,-4.4481,-4.377,-4.3372,0.0,0.0,0.0,0.0,0.0,0.0,-4.301,-4.3206,-4.2761,-4.2975,-4.3686,-4.2763,-4.2585,-4.3039,-4.1549,-4.0667,-4.0346,-3.9339,-3.9418,-4.0493,0.0,0.0,0.0,0.0,-4.0053,-4.0036,-3.9995,-3.9986,-3.9986,-3.9969,-3.9969,-3.9969,-3.9969,-3.9969,-3.9969,-4.0045,-4.0053,-4.0053,-4.0053,0.0,0.0,0.0,0.0,0.0,0.0,0.0,0.0,0.0,0.0,0.0,0.0,0.0,0.0,0.0,0.0,0.0,0.0,0.0,-3.9195,-3.8914,-3.8556,0.0,0.0,0.0,0.0,0.0,0.0,0.0,0.0,0.0,-3.9061,-3.9613,-4.0214,0.0,0.0,-4.1629,-4.1629,-4.2639,-4.3686,-4.4453,-4.4812,0.0,-4.6413,-4.6153,-4.5888,-4.6237,-4.6744,-4.7113,-4.7031,-4.7212,-4.728,-4.7043,-4.7478,-4.7865,-4.7945,-4.8896,-4.9568,-4.9648,-4.9476,-4.9148,-4.8603,-4.8465,-4.7965,-4.6888,-4.7236,-4.6814,-4.634,-4.5849,-4.5571,-4.4674,-4.3473,-4.3749,-4.3473,-4.2759,-4.2634,-4.2805,-4.3188,-4.279,0.0,0.0,0.0,-4.2602,-4.2602,-4.2602,-4.2829,-4.3217,-4.2553,-4.2294,-4.2375,-4.1112,-4.0221,-3.9671,-3.9104,-3.9155,-3.9738,0.0,0.0,-4.0003,-3.974,-3.961,-3.961,-3.961,-3.961,-3.961,-3.961,-3.961,-3.961,-3.961,-3.961,-3.961,-3.961,-3.961,-3.961,-3.961,-3.961,0.0,0.0,0.0,0.0,0.0,0.0,0.0,0.0,0.0,0.0,0.0,-3.9125,-3.9125,0.0,0.0,0.0,-3.9125,-3.9034,-3.8794,-3.8516,0.0,0.0,0.0,0.0,0.0,0.0,0.0,-3.7254,-3.7561,-3.7949,-3.8368,-3.8823,-3.9609,-4.0946,-4.0796,-4.064,-4.0909,0.0,-4.212,-4.2864,-4.3605,-4.435,-4.5128,-4.4897,-4.4861,-4.5649,-4.5794,-4.5799,-4.5852,-4.5788,-4.5698,-4.5681,-4.5785,-4.5988,-4.629,-4.7355,-4.8265,-4.8536,-4.846,-4.8218,-4.7846,-4.7807,-4.7523,-4.6009,-4.6562,-4.5456,-4.5017,-4.5,-4.43,-4.3473,-4.2667,-4.333,-4.3249,-4.2619,-4.2554,-4.2522,-4.2522,-4.2522,0.0,-4.2602,-4.2602,-4.2602,-4.2602,-4.2602,-4.2602,-4.257,-4.1921,-4.1255,-4.0594,-4.0464,-3.9752,-3.8586,-3.9104,-3.9239,-3.8975,-3.9007,-3.9218,-3.9532,-3.9532,-3.9506,-3.9506,-3.9506,-3.9506,-3.9506,-3.9506,-3.9506,-3.9489,-3.9506,-3.9506,-3.9506,-3.9506,-3.9506,-3.9506,-3.9506,-3.9489,-3.9489,0.0,0.0,0.0,0.0,0.0,0.0,0.0,0.0,0.0,0.0,0.0,0.0,0.0,0.0,0.0,-3.8391,0.0,-3.8391,-3.8363,0.0,0.0,0.0,-3.7857,-3.7799,-3.7345,-3.6984,-3.6984,0.0,0.0,-3.7492,-3.8046,-3.9272,-4.1532,-4.1009,-4.0671,-4.1271,-4.0765,-4.0671,-4.1289,-4.2017,-4.2697,-4.3182,-4.3307,-4.3593,-4.4302,-4.4691,-4.4686,-4.476,-4.4643,-4.4492,-4.4299,-4.413,-4.4105,-4.4764,-4.4843,-4.5131,-4.5738,-4.5888,-4.5884,-4.5975,-4.6053,-4.5984,-4.4143,-4.4211,-4.2958,-4.3375,-4.4805,-4.4091,-4.333,-4.2635,-4.278,-4.2748,-4.2554,-4.2067,-4.1824,-4.1824,-4.1824,-4.2132,-4.2602,-4.2602,-4.2602,-4.2602,-4.2602,-4.2602,-4.2554,-4.1889,-4.1515,-4.1288,-4.0267,-3.9557,-3.9246,-3.8845,-3.8626,-3.8581,-3.9113,-3.9322,-3.9131,-3.8832,-3.8667,-3.8667,-3.8683,-3.8683,-3.8694,-3.8683,-3.8711,-3.8667,-3.8711,-3.8694,-3.8667,-3.8683,-3.8667,-3.8667,-3.8667,-3.8683,-3.8683,-3.8547,0.0,0.0,0.0,0.0,0.0,0.0,0.0,0.0,0.0,-3.8391,-3.8391,0.0,-3.8391,0.0,-3.8391,-3.8391,-3.8391,-3.816,0.0,0.0,-3.7565,-3.7328,-3.6907,-3.6938,-3.6877,-3.6662,-3.6692,-3.6923,-3.743,-3.7646,-3.814,-3.921,-3.9152,-3.9063,-3.9218,-3.911,-3.9146,-3.9623,-4.025,-4.0679,-4.0671,-4.1037,-4.145,-4.1613,-4.2075,-4.2412,-4.2462,-4.2414,-4.219,-4.1725,-4.1816,-4.1857,-4.1596,-4.1496,-4.1452,-4.1563,-4.3464,-4.5083,-4.4106,-4.4254,-4.4136,-4.2813,-4.2967,-4.1591,-4.1909,-4.3276,-4.2528,-4.2004,-4.1608,-4.1339,-4.1213,-4.1197,-4.0499,-4.0229,-4.0229,-4.0229,-4.0579,-4.1181,-4.1197,-4.1549,-4.2077,-4.211,-4.2285,-4.2554,-4.1905,-4.1434,-4.1047,-4.0024,-3.9343,-3.9007,-3.8926,-3.8715,-3.844,-3.9412,-3.9718,-3.9233,-3.93,-3.9331,-3.9331,-3.9039,-3.8715,-3.8408,-3.8391,-3.8391,-3.8391,-3.8391,-3.8391,-3.8391,-3.8391,-3.8391,-3.8391,-3.8391,-3.8391,-3.8391,-3.7809,-3.7436,0.0,0.0,0.0,0.0,0.0,0.0,0.0,0.0,0.0,0.0,0.0,-3.8391,-3.8391,-3.8262,-3.8177,-3.8177,-3.7886,-3.7623,-3.7401,-3.7284,-3.7089,-3.6754,-3.6554,-3.6445,-3.6492,-3.6085,-3.6127,-3.6936,-3.6633,-3.6561,-3.7184,-3.7262,-3.7449,-3.7967,-3.8061,-3.8126,-3.8335,-3.8941,-3.9332,-3.9122,-3.9686,-4.0172,-4.0398,-4.0934,-4.125,-4.0766,-4.0527,-4.0209,-3.9613,-3.955,-3.9598,-3.9518,-3.9502,-3.9408,-3.9519,-4.0801,-4.1917,-4.1604,-4.1795,-4.1664,-4.1587,-4.2021,-4.0709,-4.0475,-4.1,-4.0307,-4.0086,-4.0247,-3.9653,-3.9313,-3.919,-3.8637,-3.8357,-3.8357,-3.839,-3.8774,-3.9468,-3.9483,-4.0155,-4.1344,-4.1344,-4.1657,-4.2156,-4.1496,-4.0818,-4.0126,-3.9508,-3.8892,-3.831,-3.9091,-3.9181,-3.8618,-3.993,-4.0364,-3.9829,-4.0415,-4.0642,-4.0367,-3.9813,-3.9185,-3.8553,-3.8537,-3.8537,-3.8537,-3.844,-3.8391,-3.8391,-3.8391,-3.8391,-3.8391,-3.8391,-3.8391,-3.8375,-3.7242,-3.681,0.0,-3.619,0.0,0.0,0.0,0.0,0.0,0.0,0.0,0.0,-3.8119,-3.8091,-3.8059,-3.7783,-3.7621,-3.7621,-3.7326,-3.7133,-3.7133,-3.6892,-3.6739,-3.6708,-3.6053,-3.5784,-3.6226,-3.5479,-3.5285,-3.6115,-3.5462,-3.5121,-3.5602,-3.5696,-3.6069,-3.6928,-3.7258,-3.7369,-3.7384,-3.7861,-3.8202,-3.8356,-3.8782,-3.917,-3.9577,-4.0078,-4.032,-3.9438,-3.9122,-3.876,-3.8153,-3.7839,-3.7772,-3.8185,-3.8248,-3.8248,-3.8203,-3.8392,-3.8678,-3.9172,-3.9487,-3.9501,-3.9706,-3.9774,-3.8943,-3.8693,-3.8774,-3.8135,-3.8592,-3.9637,-3.8959,-3.8373,-3.7895,-3.7756,-3.7695,-3.7695,-3.7695,-3.8357,-3.9468,-3.9483,-3.9887,-4.0622,-4.0588,-4.0411,-4.0053,-3.9335,-3.8682,-3.8091,-3.7878,-3.7721,-3.7626,-3.8872,-3.9441,-3.9343,-4.0704,-4.1336,-4.1239,0.0,0.0,0.0,-3.9586,-3.9441,-3.9327,-3.9311,-3.9266,-3.9266,-3.8699,0.0,-3.8391,-3.8391,-3.8391,-3.8391,-3.8391,0.0,0.0,0.0,0.0,0.0,0.0,0.0,0.0,0.0,0.0,0.0,-3.6307,-3.643,-3.6722,-3.6646,-3.6461,-3.6322,-3.6229,-3.6198,-3.6198,-3.5962,-3.5785,-3.577,-3.5497,-3.5317,-3.5285,-3.5154,-3.5106,-3.5187,-3.5023,-3.4957,-3.5154,-3.5023,-3.4909,-3.5008,-3.5041,-3.5118,-3.5365,-3.6154,-3.666,-3.6707,-3.6829,-3.7091,-3.7615,-3.7443,-3.7379,-3.74,-3.7919,-3.8257,-3.8129,-3.8381,-3.8359,-3.7696,-3.7524,-3.7291,-3.6999,-3.6876,-3.6922,-3.6892,-3.6892,-3.7093,-3.776,-3.8318,-3.8396,-3.9,0.0,-3.8347,-3.8202,0.0,-3.7564,-3.754,-3.7878,-3.7233,-3.6603,-3.5956,-3.5956,-3.5956,-3.5956,-3.5956,-3.6693,-3.7922,-3.7922,-3.8441,-3.9408,-3.9423,-3.9264,-3.8974,-3.8263,-3.7801,-3.7494,-3.711,-3.7077,-3.7452,-3.8464,-3.895,-3.8919,-4.0324,-4.0846,-4.053,-4.0829,-4.0689,-3.9978,-3.9978,-3.9862,-3.9505,-3.912,-3.912,-3.9457,-3.878,0.0,0.0,0.0,0.0,0.0,0.0,0.0,0.0,-3.7054,0.0,-3.6762,-3.651,-3.6285,-3.6104,-3.5795,-3.558,-3.5516,-3.4797,-3.4867,-3.5995,-3.5721,-3.5582,-3.5761,-3.5407,-3.5267,-3.5567,-3.532,-3.5139,-3.5139,-3.5008,-3.4924,-3.489,-3.4643,-3.461,-3.4776,-3.4438,-3.4254,-3.481,-3.439,-3.4269,-3.4457,-3.4509,-3.4509,-3.4576,-3.5172,-3.5688,-3.572,-3.572,-3.584,-3.6125,-3.6337,-3.6287,-3.641,-3.6873,-3.7112,-3.6873,-3.7246,-3.7397,-3.6755,-3.6603,-3.6529,-3.6537,-3.6289,-3.6179,-3.6429,-3.6492,-3.6584,-3.6953,-3.7261,-3.7338,-3.8696,-3.8217,-3.8202,-3.8202,-3.8159,-3.7549,-3.6867,-3.6098,0.0,0.0,0.0,-3.438,-3.438,-3.438,-3.438,-3.5053,-3.6127,-3.6141,-3.6816,-3.8027,-3.8042,-3.8015,-3.792,-3.7369,-3.7124,-3.7094,-3.6518,-3.6626,-3.7374,-3.8089,-3.8367,-3.844,-3.9628,-3.9936,-3.9444,-3.9305,-3.9543,-4.0089,-4.0134,-3.9796,-3.9184,-3.856,-3.8528,-3.9151,-3.8431,-3.8046,-3.8046,-3.7519,-3.7222,-3.7207,-3.6677,-3.6368,-3.6368,-3.5707,-3.5247,-3.5126,-3.508,-3.4988,-3.4649,-3.477,-3.4718,-3.4478,-3.335,-3.3357,-3.4968,-3.4734,-3.4688,-3.5164,-3.4475,-3.427,-3.4818,-3.4615,-3.4449,-3.4464,-3.4551,-3.4624,-3.4591,-3.4221,-3.4133,-3.4423,-3.3825,-3.3612,-3.4423,-3.3874,-3.3452,-3.3859,-3.3948,-3.3948,-3.4051,-3.4543,-3.5023,-3.5023,-3.5055,-3.4971,-3.4997,-3.5221,-3.5589,-3.5541,-3.6001,-3.6192,-3.5849,-3.6008,-3.6097,-3.5724,-3.5559,-3.5735,-3.6085,-3.5816,-3.572,-3.6116,-3.6226,-3.6211,-3.6226,-3.6304,-3.6398,-3.8289,-3.8202,-3.8202,-3.8202,-3.8159,-3.7564,-3.6606,-3.5494,-3.4835,-3.4501,-3.438,-3.438,-3.438,-3.438,-3.438,-3.4791,-3.5523,-3.5537,-3.5907,-3.6595,-3.6595,-3.633,-3.582,-3.5732,-3.5688,-3.5678,-3.5598,-3.616,-3.7274,-3.8025,-3.84,-3.8475,-3.9203,-3.9557,-3.9452,-3.8912,-3.8639,-3.8693,-3.8708,-3.8415,-3.7778,-3.767,-3.767,-3.7716,-3.7111,-3.6692,-3.6692,-3.6615,-3.6538,-3.6538,-3.626,-3.6244,-3.6353,-3.5615,-3.5186,-3.5171,-3.4649,-3.4256,-3.4034,-3.3907,-3.3502,-3.2792,-3.2097,-3.1872,-3.2229,-3.2739,-3.2987,-3.2905,-3.2777,-3.2718,-3.2817,-3.2832,-3.2832,-3.284,-3.3231,-3.3507,-3.3548,-3.3507,-3.3472,-3.3577,-3.3417,-3.3312,-3.3556,-3.3417,-3.3312,-3.3417,-3.3521,-3.3452,-3.3612,-3.4269,-3.4824,-3.4924,-3.4924,-3.4924,-3.4773,-3.4534,-3.4428,-3.4336,-3.4481,-3.4631,-3.4466,-3.4896,-3.5152,-3.5052,-3.5008,-3.5088,-3.5187,-3.5073,-3.5073,-3.5219,-3.5252,-3.5219,-3.5267,-3.5544,-3.5958,-3.8536,-3.8217,-3.8202,-3.8202,-3.8159,-3.7564,-3.6765,-3.5872,-3.5198,-3.4719,-3.4428,-3.438,-3.438,-3.438,-3.438,-3.4762,-3.5392,-3.5392,-3.5566,-3.5813,-3.5778,-3.5494,-3.4893,-3.4849,-3.4849,-3.4854,-3.4867,-3.5358,-3.6276,-3.6956,-3.7451,-3.7809,-3.8157,-3.8127,-3.7739,-3.7475,-3.7127,-3.6802,-3.7519,-3.777,-3.7478,-3.7108,-3.7093,-3.7462,-3.6785,-3.643,-3.6384,-3.6055,-3.5866,-3.585,-3.532,-3.4896,-3.4651,-3.4226,-3.3773,-3.3309,-3.3118,-3.289,-3.2598,-3.2516,-3.2148,-3.1443,-3.1087,-3.0843,-3.057,-3.1152,-3.1594,-3.185,-3.1612,-3.1541,-3.1864,-3.1907,-3.1907,-3.1907,-3.2469,-3.282,-3.2876,-3.3108,-3.3276,-3.3276,-3.3276,-3.3276,-3.3276,-3.3276,-3.3276,-3.3276,-3.3276,-3.3276,-3.3276,-3.3701,-3.4031,-3.4045,-3.4045,-3.4031,-3.4031,-3.3825,-3.3667,-3.3667,-3.3667,-3.3667,-3.3701,-3.4133,-3.4409,-3.4476,-3.4476,-3.461,-3.4791,-3.4643,-3.461,-3.489,-3.4924,-3.4924,-3.4957,-3.5106,-3.5544,-3.8681,-3.8202,-3.8202,-3.8202,-3.8144,-3.7564,-3.6939,-3.6272,-3.5668,-3.5009,-3.4457,-3.438,-3.438,-3.438,-3.438,-3.4762,-3.5319,-3.5247,-3.5261,-3.5378,-3.5247,-3.4893,-3.4443,-3.438,-3.4559,-3.4748,-3.4559,-3.4951,-3.5959,-3.6083,-3.6431,-3.7012,-3.7085,-3.6809,-3.6301,-3.6156,-3.5851,-3.549,-3.6319,-3.6799,-3.6784,-3.6234,-3.6219,-3.6708,-3.625,-3.5961,-3.5914,-3.5449,-3.5154,-3.5088,-3.4452,-3.3858,-3.337,-3.303,-3.2563,-3.2009,-3.2051,-3.2056,-3.1912,-3.164,-3.1274,-3.075,-3.0568,-3.0287,-2.9894,-3.0217,-3.0694,-3.112,-3.0806,-3.0769,-3.1176,-3.1274,-3.1274,-3.1302,-3.1822,-3.2188,-3.2244,-3.2623,-3.2988,-3.3059,-3.308,-3.3108,-3.3248,-3.3276,-3.3276,-3.3276,-3.3276,-3.3276,-3.3276,-3.3276,-3.3276,-3.3276,-3.3276,-3.3347,-3.3276,-3.3312,-3.3312,-3.3276,-3.3312,-3.3347,-3.3417,-3.3667,-3.3894,-3.3928,-3.3928,-3.4065,-3.439,-3.4221,-3.4099,-3.437,-3.439,-3.4524,-3.4643,-3.4677,-3.5073,-3.826,-3.8202,-3.8202,-3.8202,-3.813,-3.7564,-3.6925,-3.6272,-3.5668,-3.5029,-3.4443,-3.438,-3.438,-3.438,-3.438,-3.4748,-3.5305,-3.4762,-3.4806,-3.5276,-3.4762,-3.4457,-3.438,-3.438,-3.5009,-3.5793,-3.4951,-3.5575,-3.7433,-3.6264,-3.5828,-3.633,-3.6402,-3.6402,-3.6257,-3.5799,-3.5465,-3.5392,-3.4913,-3.4689,-3.4689,-3.4631,-3.4631,-3.4674,-3.4645,-3.4568,-3.462,-3.452,-3.4399,-3.423,-3.4025,-3.3888,-3.3725,-3.307,-3.2613,-3.2543,-3.2514,-3.2696,-3.2974,-3.2117,-3.1401,-3.1373,-3.0825,-3.0455,-3.0385,-3.0455,-3.0512,-3.0624,-3.0554,-3.0554,-3.0568,-3.0628,-3.0614,-3.0642,-3.119,-3.1583,-3.1597,-3.1626,-3.1864,-3.244,-3.2511,-3.2693,-3.3108,-3.3248,-3.3276,-3.3276,-3.3276,-3.3276,-3.3276,-3.3276,-3.3276,-3.3276,-3.3276,-3.3276,-3.3276,-3.3276,-3.3276,-3.3276,-3.3276,-3.3276,-3.3312,-3.3347,-3.3382,-3.3542,-3.3437,-3.3507,-3.3507,-3.3382,-3.3452,-3.3612,-3.3681,-3.3646,-3.4016,-3.4172,-3.4591,-3.8202,-3.8202,-3.8202,-3.8202,-3.813,-3.7564,-3.6925,-3.6272,-3.5668,-3.5009,-3.4443,-3.438,-3.438,-3.438,-3.438,-3.4574,-3.4777,-3.453,-3.4545,-3.4777,-3.453,-3.438,-3.438,-3.438,-3.4719,-3.5169,-3.5024,-3.5503,-3.638,-3.6489,-3.6446,-3.6373,-3.6693,-3.6707,-3.6301,-3.5712,-3.5357,-3.5189,-3.4562,-3.4162,-3.4122,-3.4176,-3.423,-3.4196,-3.4142,-3.4088,-3.4122,-3.4088,-3.4054,-3.3957,-3.3471,-3.3203,-3.3155,-3.239,-3.1782,-3.1415,-3.1035,-3.1073,-3.1564,-3.0853,-3.0375,-3.0375,-3.0441,-3.0484,-3.0526,-3.0867,-3.1092,-3.105,-3.0708,-3.0484,-3.0469,-3.0175,-2.9982,-3.002,-3.053,-3.0937,-3.0891,-3.126,-3.1612,-3.1864,-3.2188,-3.2469,-3.2764,-3.3066,-3.3262,-3.3276,-3.3276,-3.3276,-3.3276,-3.3276,-3.3276,-3.3276,-3.3276,-3.3276,-3.3276,-3.3276,-3.3276,-3.3276,-3.3276,-3.3276,-3.3276,-3.3276,-3.3312,-3.3276,-3.3276,-3.3276,-3.3347,-3.3276,-3.3276,-3.3276,-3.3276,-3.3382,-3.3597,-3.3632,-3.3977,-3.8202,-3.8202,-3.8202,-3.8202,-3.8173,-3.7752,-3.707,-3.6301,-3.5822,-3.5169,-3.4443,-3.438,-3.438,-3.438,-3.438,-3.4486,-3.4632,-3.4486,-3.4516,-3.4632,-3.4501,-3.438,-3.438,-3.438,-3.4516,-3.469,-3.4951,-3.5116,-3.5299,-3.6751,-3.7033,-3.6454,-3.6996,-3.6945,-3.6187,-3.5681,-3.5255,-3.477,-3.4289,-3.4005,-3.3931,-3.3937,-3.3991,-3.404,-3.3951,-3.3896,-3.3896,-3.3896,-3.3848,-3.3799,-3.3093,-3.2684,-3.2588,-3.1889,-3.1274,-3.0811,-3.0193,-3.0136,-3.0694,-3.0207,-2.994,-3.0136,-3.0558,-3.0834,-3.1078,-3.1471,-3.1794,-3.1949,-3.1415,-3.1003,-3.074,-3.0375,-3.0136,-3.015,-3.0558,-3.0783,-3.082,-3.1232,-3.1569,-3.1738,-3.1991,-3.223,-3.2455,-3.2932,-3.3276,-3.3276,-3.3276,-3.3276,-3.3276,-3.3276,-3.3276,-3.3276,-3.3276,-3.3276,-3.3276,-3.3276,-3.3276,-3.3276,-3.3276,-3.3276,-3.3276,-3.3276,-3.3276,-3.3276,-3.3276,-3.3276,-3.3276,-3.3276,-3.3276,-3.3276,-3.3276,-3.3276,-3.3382,-3.3312,-3.3437,-3.8202,-3.8202,-3.8202,-3.8202,-3.8188,-3.8101,-3.7433,-3.6359,-3.6243,-3.5546,-3.453,-3.4486,-3.4443,-3.4428,-3.4457,-3.4748,-3.5189,-3.4661,-3.4704,-3.5145,-3.4661,-3.438,-3.438,-3.438,-3.4733,-3.5169,-3.4844,-3.4656,-3.4723,-3.675,-3.7253,-3.6144,-3.7046,-3.6962,-3.5976,-3.5712,-3.5118,-3.4317,-3.4031,-3.3911,-3.3876,-3.3724,-3.3709,-3.3862,-3.3896,-3.3848,-3.3896,-3.3896,-3.3779,-3.3605,-3.2968,-3.2588,-3.2362,-3.1808,-3.1429,-3.1359,-3.0783,-3.0712,-3.1176,-3.0726,-3.06,-3.1176,-3.1204,-3.1612,-3.1907,-3.2159,-3.2469,-3.3101,-3.2539,-3.2047,-3.1597,-3.1316,-3.1246,-3.126,-3.1359,-3.1387,-3.1401,-3.1401,-3.1766,-3.2061,-3.1921,-3.1991,-3.2384,-3.2932,-3.3192,-3.3248,-3.3262,-3.3262,-3.3276,-3.3276,-3.3276,-3.3276,-3.3276,-3.3276,-3.3276,-3.3276,-3.3276,-3.3276,-3.3276,-3.3276,-3.3276,-3.3276,-3.3276,-3.3276,-3.3276,-3.3276,-3.3276,-3.3276,-3.3276,-3.3276,-3.3276,-3.3276,-3.3276,-3.3276,-3.3382,-3.8202,-3.8202,-3.8202,-3.8202,-3.8115,-3.7346,-3.6954,-3.6881,-3.6075,-3.5459,-3.5154,-3.5444,-3.5183,-3.4428,-3.4835,-3.4956,-3.4748,-3.4501,-3.4545,-3.4719,-3.4516,-3.438,-3.438,-3.438,-3.4679,-3.5154,-3.5371,-3.5589,-3.5985,-3.7137,-3.7309,-3.6599,-3.6819,-3.6939,-3.6725,-3.5696,-3.5203,-3.5344,-3.4377,-3.3838,-3.4016,-3.3642,-3.3431,-3.3501,-3.3501,-3.355,-3.3536,-3.3501,-3.3331,-3.2853,-3.2261,-3.1889,-3.1752,-3.1218,-3.1064,-3.1331,-3.053,-3.0175,-3.0684,-3.0291,-3.0038,-3.0263,-3.0656,-3.0979,-3.1288,-3.1907,-3.2497,-3.2693,-3.2974,-3.2834,-3.2581,-3.1991,-3.1485,-3.1485,-3.1499,-3.1541,-3.1485,-3.1485,-3.1583,-3.1794,-3.1907,-3.2328,-3.2707,-3.2848,-3.2904,-3.3164,-3.2988,-3.2974,-3.3206,-3.3276,-3.3276,-3.3276,-3.3276,-3.3276,-3.3276,-3.3276,-3.3276,-3.3276,-3.3276,-3.3276,-3.3276,-3.3276,-3.3276,-3.3276,-3.3276,-3.3276,-3.3276,-3.3276,-3.3276,-3.3276,-3.3276,-3.3276,-3.3276,-3.3276,-3.3276,-3.8202,-3.8202,-3.8202,-3.8202,-3.8101,-3.7288,-3.7056,-3.7215,-3.6373,-3.5915,-3.5807,-3.6127,-3.5706,-3.4907,-3.5203,-3.5058,-3.4457,-3.438,-3.438,-3.4409,-3.4632,-3.4719,-3.4762,-3.4936,-3.5152,-3.5438,-3.5956,-3.6306,-3.6453,-3.7135,-3.7054,-3.6313,-3.6404,-3.658,-3.658,-3.5565,-3.5265,-3.5373,-3.4419,-3.3868,-3.3852,-3.3501,-3.3276,-3.329,-3.3276,-3.3276,-3.3276,-3.3276,-3.3045,-3.244,-3.1822,-3.1316,-3.0895,-3.0474,-3.0417,-3.0726,-3.0094,-2.9785,-3.0108,-2.9841,-2.9701,-2.9897,-3.0277,-3.0554,-3.0853,-3.1626,-3.2047,-3.223,-3.2651,-3.3031,-3.2932,-3.2455,-3.2089,-3.2075,-3.2089,-3.2089,-3.2075,-3.2103,-3.2005,-3.1977,-3.2356,-3.2764,-3.2946,-3.282,-3.2946,-3.3262,-3.2918,-3.2932,-3.3178,-3.3276,-3.3276,-3.3276,-3.3276,-3.3276,-3.3276,-3.3276,-3.3276,-3.3276,-3.3276,-3.3276,-3.3276,-3.3276,-3.3276,-3.3276,-3.3276,-3.3276,-3.3276,-3.3276,-3.3276,-3.3276,-3.3276,-3.3276,-3.3276,-3.3276,-3.3276,-3.8165,-3.8127,-3.8165,-3.8,-3.7919,-3.7702,-3.7678,-3.7265,-3.704,-3.6498,-3.6193,-3.6323,-3.5919,-3.5436,-3.5494,-3.5111,-3.4501,-3.4486,-3.4472,-3.4457,-3.5043,-3.5319,-3.5348,-3.5801,-3.6028,-3.5971,-3.6456,-3.6359,-3.5986,-3.6812,-3.6736,-3.5798,-3.6019,-3.6024,-3.5353,-3.5333,-3.4894,-3.459,-3.4309,-3.3894,-3.3424,-3.3368,-3.3276,-3.3276,-3.3276,-3.3276,-3.3276,-3.3276,-3.3002,-3.237,-3.1794,-3.0909,-2.9954,-2.9701,-2.9659,-2.9743,-2.9631,-2.9617,-2.9645,-2.9631,-2.9855,-3.0175,-3.0427,-3.061,-3.1021,-3.1345,-3.1485,-3.1555,-3.2019,-3.2412,-3.2553,-3.2806,-3.3038,-3.3248,-3.3066,-3.3052,-3.3136,-3.322,-3.3038,-3.2623,-3.289,-3.3016,-3.275,-3.282,-3.3094,-3.3206,-3.308,-3.3059,-3.3192,-3.3206,-3.322,-3.3276,-3.3276,-3.3276,-3.3276,-3.3276,-3.3276,-3.3276,-3.3276,-3.3276,-3.3276,-3.3276,-3.3276,-3.3276,-3.3276,-3.3276,-3.3276,-3.3276,-3.3276,-3.3276,-3.3276,-3.3276,-3.3276,-3.3276,-3.3276,-3.7337,-3.7208,-3.6674,-3.6425,-3.6314,-3.5565,-3.5829,-3.6811,-3.5623,-3.5464,-3.6223,-3.661,-3.6004,-3.5267,-3.604,-3.5836,-3.453,-3.4835,-3.4835,-3.4588,-3.5101,-3.5407,-3.5503,-3.5869,-3.6172,-3.6313,-3.6722,-3.6805,-3.6692,-3.6936,-3.6841,-3.6549,-3.6188,-3.6244,-3.6328,-3.5653,-3.5231,-3.5391,-3.461,-3.409,-3.388,-3.3487,-3.329,-3.3276,-3.3276,-3.3276,-3.3276,-3.3276,-3.282,-3.1864,-3.1597,-3.0923,-2.9883,-2.9602,-2.9602,-2.9602,-2.9602,-2.9602,-2.9602,-2.9602,-2.9687,-2.9855,-2.9912,-2.9968,-3.0207,-3.06,-3.0811,-3.0881,-3.1401,-3.1907,-3.2342,-3.2553,-3.2876,-3.3248,-3.3276,-3.3276,-3.3276,-3.3276,-3.3206,-3.308,-3.3213,-3.3213,-3.3031,-3.3016,-3.2932,-3.3136,-3.2721,-3.2426,-3.3073,-3.3031,-3.2918,-3.3164,-3.3206,-3.3276,-3.3276,-3.3276,-3.3276,-3.3276,-3.3276,-3.3276,-3.3276,-3.3276,-3.3276,-3.3276,-3.3276,-3.3276,-3.3276,-3.3276,-3.3276,-3.3276,-3.3276,-3.3276,-3.3276,-3.3276,-3.3276,-3.6727,-3.6346,-3.5829,-3.5628,-3.552,-3.4636,-3.5045,-3.6057,-3.4665,-3.4633,-3.562,-3.5777,-3.5293,-3.4732,-3.5626,-3.5488,-3.4511,-3.4849,-3.4956,-3.482,-3.5174,-3.5494,-3.5729,-3.6072,-3.6433,-3.6717,-3.6926,-3.6978,-3.6978,-3.6978,-3.6905,-3.6585,-3.6286,-3.6272,-3.6571,-3.5963,-3.5681,-3.5653,-3.5006,-3.4351,-3.388,-3.3487,-3.3276,-3.3276,-3.3276,-3.3276,-3.3276,-3.3276,-3.2862,-3.1935,-3.1429,-3.0642,-2.9715,-2.9602,-2.9602,-2.9602,-2.9602,-2.9602,-2.9602,-2.9602,-2.9602,-2.9602,-2.9602,-2.9617,-2.9673,-3.0024,-3.0133,-3.0263,-3.0755,-3.1401,-3.1935,-3.23,-3.2665,-3.322,-3.3276,-3.3276,-3.3276,-3.3276,-3.3276,-3.3248,-3.3276,-3.3276,-3.3164,-3.3038,-3.2876,-3.308,-3.2693,-3.2314,-3.3059,-3.3016,-3.308,-3.3164,-3.3234,-3.3276,-3.3276,-3.3276,-3.3276,-3.3276,-3.3276,-3.3276,-3.3276,-3.3276,-3.3276,-3.3276,-3.3276,-3.3276,-3.3276,-3.3276,-3.3276,-3.3276,-3.3276,-3.3276,-3.3276,-3.3276,-3.3276,-3.632,-3.5574,-3.5467,-3.5332,-3.5265,-3.4712,-3.4779,-3.5236,-3.4278,-3.4097,-3.4535,-3.4374,-3.4059,-3.4044,-3.4329,-3.4392,-3.4311,-3.4568,-3.4793,-3.5123,-3.5404,-3.5787,-3.6389,-3.6544,-3.6783,-3.7109,-3.7042,-3.6978,-3.6978,-3.6978,-3.6736,-3.6342,-3.63,-3.6174,-3.6314,-3.6174,-3.585,-3.533,-3.5175,-3.457,-3.3445,-3.3304,-3.3276,-3.3276,-3.3276,-3.3276,-3.3276,-3.3276,-3.3045,-3.2342,-3.1199,-3.0361,-2.9799,-2.9645,-2.9602,-2.9602,-2.9602,-2.9602,-2.9602,-2.9602,-2.9602,-2.9602,-2.9602,-2.9602,-2.9631,-2.9687,-2.9729,-2.9743,-3.0178,-3.074,-3.1373,-3.1822,-3.2426,-3.308,-3.322,-3.3276,-3.3276,-3.3276,-3.3276,-3.3276,-3.3276,-3.3276,-3.3276,-3.322,-3.3234,-3.322,-3.3108,-3.3059,-3.315,-3.3136,-3.322,-3.3262,-3.3276,-3.3276,-3.3276,-3.3276,-3.3276,-3.3276,-3.3276,-3.3276,-3.3276,-3.3276,-3.3276,-3.3276,-3.3276,-3.3276,-3.3276,-3.3276,-3.3276,-3.3276,-3.3276,-3.3276,-3.3276,-3.3276,-3.3276,-3.548,-3.4662,-3.405,-3.3755,-3.3665,-3.3126,-3.337,-3.3869,-3.3079,-3.3001,-3.3371,-3.3594,-3.32,-3.2814,-3.3637,-3.3854,-3.3833,-3.4519,-3.4704,-3.4676,-3.5497,-3.6352,-3.6974,-3.6721,-3.6708,-3.7039,-3.7017,-3.6978,-3.6978,-3.6978,-3.6933,-3.6792,-3.6736,-3.6764,-3.6754,-3.6712,-3.6202,-3.5344,-3.5189,-3.4598,-3.3522,-3.3276,-3.3276,-3.3276,-3.3276,-3.3276,-3.3276,-3.3276,-3.2996,-3.2384,-3.1171,-3.0441,-3.0277,-2.9912,-2.9701,-2.9659,-2.9645,-2.9617,-2.9617,-2.9602,-2.9602,-2.9602,-2.9673,-2.9602,-2.9602,-2.9617,-2.9617,-2.9631,-2.9799,-3.0136,-3.067,-3.0993,-3.1569,-3.2483,-3.2988,-3.3248,-3.3276,-3.3276,-3.3276,-3.3276,-3.3276,-3.3276,-3.3276,-3.3276,-3.3276,-3.322,-3.3059,-3.2876,-3.3108,-3.3045,-3.3002,-3.3206,-3.3276,-3.3276,-3.3276,-3.3276,-3.3276,-3.3276,-3.3276,-3.3276,-3.3276,-3.3276,-3.3276,-3.3276,-3.3276,-3.3276,-3.3276,-3.3276,-3.3276,-3.3276,-3.3276,-3.3276,-3.3276,-3.3276,-3.3276,-3.4607,-3.3823,-3.3338,-3.3124,-3.3048,-3.2453,-3.2634,-3.2992,-3.2035,-3.1822,-3.2202,-3.1993,-3.1967,-3.2019,-3.2693,-3.3168,-3.3363,-3.4079,-3.4276,-3.4382,-3.5134,-3.6123,-3.6755,-3.6547,-3.6632,-3.6961,-3.6978,-3.6978,-3.6978,-3.6978,-3.6978,-3.6964,-3.6978,-3.6978,-3.695,-3.695,-3.6413,-3.5414,-3.5161,-3.4598,-3.3438,-3.3276,-3.3276,-3.3276,-3.3276,-3.3276,-3.3276,-3.3276,-3.3045,-3.2412,-3.171,-3.1171,-3.0923,-3.0614,-3.0277,-3.0038,-2.9996,-2.9897,-2.9645,-2.9617,-2.9712,-2.9926,-2.9964,-3.015,-3.0291,-3.0193,-2.9996,-3.001,-2.9785,-2.9954,-3.0385,-3.0755,-3.1246,-3.1935,-3.2567,-3.2996,-3.3248,-3.3276,-3.3276,-3.3276,-3.3276,-3.3276,-3.3276,-3.3276,-3.3276,-3.3234,-3.3066,-3.3066,-3.3164,-3.2918,-3.2834,-3.3108,-3.3276,-3.3276,-3.3276,-3.3276,-3.3276,-3.3276,-3.3276,-3.3276,-3.3206,-3.322,-3.3276,-3.3276,-3.3276,-3.3276,-3.3276,-3.3276,-3.3276,-3.3276,-3.3276,-3.3276,-3.3276,-3.3276,-3.3276,-3.3907,-3.3124,-3.3124,-3.3124,-3.3036,-3.2541,-3.2583,-3.2646,-3.1562,-3.1113,-3.1155,-3.0333,-3.0739,-3.1512,-3.1552,-3.2135,-3.31,-3.3338,-3.374,-3.4085,-3.4628,-3.5169,-3.6007,-3.6316,-3.6584,-3.6933,-3.6978,-3.6978,-3.6978,-3.6978,-3.6922,-3.6866,-3.6894,-3.6922,-3.6852,-3.6908,-3.6346,-3.5541,-3.5231,-3.4655,-3.3677,-3.3375,-3.3276,-3.3276,-3.3276,-3.3276,-3.3276,-3.3262,-3.3038,-3.2553,-3.244,-3.2047,-3.1597,-3.1527,-3.1064,-3.0498,-3.0259,-3.002,-2.9715,-2.9617,-2.9775,-3.0099,-3.0317,-3.0578,-3.0675,-3.0397,-3.0297,-2.9923,-2.982,-2.9912,-3.0277,-3.0923,-3.1316,-3.1606,-3.2055,-3.2499,-3.3038,-3.3234,-3.3276,-3.3276,-3.3276,-3.3276,-3.3276,-3.3276,-3.3276,-3.3276,-3.315,-3.3178,-3.3234,-3.3122,-3.308,-3.3206,-3.3276,-3.3276,-3.3276,-3.3276,-3.3276,-3.3276,-3.3276,-3.3248,-3.3066,-3.308,-3.322,-3.3276,-3.3276,-3.3276,-3.3276,-3.3276,-3.3276,-3.3276,-3.3276,-3.3276,-3.3276,-3.3276,-3.3276,-3.3907,-3.3124,-3.3124,-3.3124,-3.3099,-3.2943,-3.2704,-3.239,-3.2039,-3.1436,-3.0884,-3.0532,-3.0412,-3.0328,-3.0667,-3.0991,-3.2019,-3.2628,-3.3439,-3.428,-3.3366,-3.377,-3.4754,-3.5593,-3.6364,-3.676,-3.694,-3.6978,-3.694,-3.6858,-3.6778,-3.6416,-3.6782,-3.6754,-3.6445,-3.6782,-3.668,-3.5949,-3.5456,-3.4866,-3.414,-3.3599,-3.3389,-3.3347,-3.3304,-3.3276,-3.3276,-3.3276,-3.322,-3.3045,-3.2679,-3.237,-3.2103,-3.1387,-3.0909,-3.061,-3.0119,-2.9813,-2.9627,-2.9635,-2.9599,-2.9687,-3.0116,-3.0057,-2.9093,-3.0036,-2.9859,-2.9357,-2.9331,-2.9607,-2.9897,-3.0357,-3.0909,-3.1335,-3.1514,-3.182,-3.2465,-3.2996,-3.3122,-3.3234,-3.3234,-3.3276,-3.3276,-3.3276,-3.3276,-3.3276,-3.3276,-3.3276,-3.3276,-3.3276,-3.3276,-3.3276,-3.3276,-3.3276,-3.3276,-3.3248,-3.3178,-3.3192,-3.3206,-3.2974,-3.2792,-3.3045,-3.3178,-3.3248,-3.3276,-3.3276,-3.3276,-3.3276,-3.3276,-3.3276,-3.3276,-3.3276,-3.3276,-3.3276,-3.3276,-3.3539,-3.3124,-3.3124,-3.3124,-3.3124,-3.3124,-3.2905,-3.2591,-3.2315,-3.1901,-3.1399,-3.1122,-3.0906,-3.0798,-3.0938,-3.1297,-3.1651,-3.2017,-3.2294,-3.2499,-3.2239,-3.2759,-3.3343,-3.434,-3.5177,-3.5734,-3.6189,-3.6362,-3.6415,-3.6427,-3.642,-3.6529,-3.6824,-3.6877,-3.6595,-3.6757,-3.6627,-3.6174,-3.5808,-3.5316,-3.4688,-3.4379,-3.3972,-3.3683,-3.3459,-3.3276,-3.3276,-3.3276,-3.3276,-3.3206,-3.3002,-3.282,-3.2806,-3.2168,-3.1719,-3.1326,-3.0839,-3.0276,-3.0072,-2.9669,-2.9525,-2.9598,-3.0036,-2.9808,-2.9319,-2.9718,-2.9583,-2.9133,-2.9077,-2.9198,-2.9582,-3.0178,-3.0712,-3.0942,-3.1215,-3.1611,-3.2199,-3.2382,-3.2528,-3.2751,-3.2862,-3.3059,-3.3122,-3.3094,-3.3241,-3.3227,-3.3276,-3.3276,-3.3276,-3.3276,-3.3276,-3.3276,-3.3276,-3.3276,-3.3276,-3.3206,-3.3066,-3.3066,-3.308,-3.2637,-3.2188,-3.2651,-3.315,-3.3122,-3.3052,-3.3262,-3.3276,-3.3276,-3.3276,-3.3276,-3.3276,-3.3276,-3.3276,-3.3276,-3.3276,-3.3124,-3.3124,-3.3124,-3.3124,-3.3124,-3.3124,-3.3111,-3.298,-3.2466,-3.2164,-3.2089,-3.1596,-3.1335,-3.1647,-3.1504,-3.1657,-3.1619,-3.1445,-3.115,-3.0706,-3.1393,-3.1813,-3.2261,-3.2975,-3.358,-3.4004,-3.4992,-3.5454,-3.5534,-3.5642,-3.5853,-3.6367,-3.6588,-3.6189,-3.6364,-3.6392,-3.603,-3.5645,-3.5399,-3.5353,-3.4994,-3.4836,-3.4459,-3.4133,-3.3754,-3.3515,-3.3487,-3.3438,-3.3347,-3.3403,-3.3347,-3.329,-3.3262,-3.3136,-3.2988,-3.2308,-3.1534,-3.0707,-3.0024,-2.9612,-2.9403,-2.9731,-2.9813,-2.9733,-2.952,-2.9334,-2.9122,-2.9006,-2.889,-2.9219,-2.9817,-3.0192,-3.0592,-3.0816,-3.114,-3.1457,-3.1977,-3.1562,-3.1265,-3.2062,-3.2159,-3.2256,-3.2542,-3.2618,-3.2912,-3.3143,-3.3192,-3.3241,-3.3206,-3.3276,-3.3241,-3.3276,-3.3276,-3.3276,-3.3276,-3.3276,-3.3108,-3.3038,-3.3024,-3.2567,-3.2047,-3.2623,-3.3108,-3.2862,-3.2834,-3.308,-3.3276,-3.3276,-3.3276,-3.3276,-3.3276,-3.3276,-3.3276,-3.3276,-3.3276,-3.3124,-3.3124,-3.3124,-3.3124,-3.3124,-3.3124,-3.3124,-3.298,-3.2478,-3.2215,-3.211,-3.1468,-3.1302,-3.1199,-3.0829,-3.0609,-3.0574,-3.0501,-3.0302,-3.0013,-3.0488,-3.0803,-3.1308,-3.1997,-3.2381,-3.261,-3.3619,-3.443,-3.4719,-3.5224,-3.5049,-3.4487,-3.4978,-3.5031,-3.446,-3.4112,-3.4633,-3.4674,-3.4447,-3.4418,-3.4778,-3.4612,-3.4426,-3.4326,-3.4104,-3.3956,-3.3822,-3.355,-3.3515,-3.3922,-3.3543,-3.3297,-3.3094,-3.2772,-3.2485,-3.2179,-3.1199,-3.0337,-2.9779,-2.9318,-2.8831,-2.8656,-2.8905,-2.8818,-2.8537,-2.8705,-2.864,-2.8373,-2.8905,-2.98,-3.1054,-3.0774,-3.1039,-3.1268,-3.0767,-3.0432,-3.1527,-3.0949,-3.0144,-3.1205,-3.1338,-3.1504,-3.1932,-3.2195,-3.2376,-3.2528,-3.2561,-3.2668,-3.2739,-3.2931,-3.3157,-3.3206,-3.3276,-3.3276,-3.3276,-3.3276,-3.322,-3.3122,-3.3059,-3.282,-3.2567,-3.2918,-3.3059,-3.2736,-3.2834,-3.3178,-3.3276,-3.3276,-3.3276,-3.3276,-3.3276,-3.3276,-3.3276,-3.3276,-3.3276,-3.3375,-3.3136,-3.3124,-3.3124,-3.3124,-3.3124,-3.3124,-3.3086,-3.278,-3.2569,-3.2409,-3.207,-3.1616,-3.122,-3.0948,-3.044,-2.9863,-3.0001,-2.9773,-2.9496,-2.9809,-3.0194,-3.0543,-3.1253,-3.1546,-3.1867,-3.2618,-3.328,-3.3606,-3.3985,-3.4108,-3.417,-3.4391,-3.4177,-3.3722,-3.3878,-3.3822,-3.3873,-3.3875,-3.4242,-3.51,-3.4924,-3.5058,-3.4966,-3.4481,-3.4139,-3.3827,-3.3082,-3.2896,-3.3016,-3.2492,-3.2312,-3.2241,-3.2046,-3.1823,-3.1856,-3.0899,-2.9979,-2.9506,-2.9019,-2.8306,-2.8014,-2.8263,-2.8027,-2.7712,-2.7865,-2.8173,-2.8193,-2.8965,-3.016,-3.0738,-3.1062,-3.1735,-3.1944,-3.0913,-3.0989,-3.173,-3.053,-3.0428,-3.0748,-3.1083,-3.1387,-3.1649,-3.1843,-3.187,-3.1915,-3.1965,-3.2101,-3.2282,-3.2547,-3.2846,-3.2895,-3.2966,-3.3206,-3.3241,-3.3276,-3.3234,-3.315,-3.3094,-3.2876,-3.2707,-3.2904,-3.282,-3.2567,-3.2834,-3.3136,-3.3276,-3.3276,-3.3276,-3.3276,-3.3276,-3.3276,-3.3276,-3.3276,-3.3276,-3.3583,-3.3124,-3.3124,-3.3124,-3.3124,-3.3124,-3.3124,-3.3124,-3.3111,-3.2902,-3.2711,-3.2451,-3.1927,-3.1284,-3.0779,-3.0169,-2.922,-2.9665,-2.9436,-2.916,-2.9665,-3.0122,-3.0362,-3.0567,-3.1055,-3.1721,-3.1825,-3.2045,-3.2661,-3.3109,-3.3395,-3.3394,-3.3714,-3.363,-3.3232,-3.3059,-3.3341,-3.3431,-3.3534,-3.4264,-3.4981,-3.5499,-3.5676,-3.5565,-3.456,-3.3899,-3.3648,-3.268,-3.2353,-3.2237,-3.1716,-3.1153,-3.1354,-3.0979,-3.097,-3.1299,-3.0511,-2.9893,-2.9226,-2.8761,-2.805,-2.7545,-2.7659,-2.7512,-2.7476,-2.7777,-2.7957,-2.8448,-2.9119,-3.0288,-3.0845,-3.1326,-3.2007,-3.225,-3.1583,-3.1074,-3.1932,-3.1546,-3.0446,-3.0672,-3.1039,-3.1021,-3.1017,-3.1487,-3.1532,-3.182,-3.1882,-3.1723,-3.1905,-3.2123,-3.234,-3.2426,-3.2583,-3.3016,-3.3171,-3.3276,-3.3192,-3.3066,-3.3108,-3.3059,-3.2806,-3.2665,-3.2539,-3.2483,-3.2637,-3.2946,-3.3094,-3.3276,-3.3276,-3.3276,-3.3276,-3.3276,-3.3276,-3.3276,-3.3276,-3.3583,-3.3124,-3.3124,-3.3124,-3.3124,-3.3124,-3.3124,-3.3124,-3.3081,-3.2939,-3.2581,-3.2025,-3.1553,-3.0931,-2.9946,-2.9224,-2.8955,-2.91,-2.9304,-2.9208,-2.9725,-3.0206,-3.0567,-3.029,-3.0958,-3.1573,-3.1705,-3.1749,-3.2247,-3.2792,-3.2636,-3.2481,-3.2646,-3.2351,-3.2327,-3.2265,-3.1515,-3.1874,-3.2084,-3.2575,-3.3424,-3.4201,-3.4336,-3.4019,-3.3688,-3.3529,-3.3303,-3.2345,-3.1902,-3.2228,-3.1421,-3.0949,-3.0861,-3.0241,-2.9935,-2.9961,-2.9732,-2.9341,-2.8612,-2.8332,-2.7973,-2.7452,-2.745,-2.7834,-2.7966,-2.7897,-2.822,-2.9413,-2.939,-2.988,-3.0814,-3.0723,-3.1359,-3.1343,-3.0871,-3.1243,-3.211,-3.1372,-3.0384,-3.0866,-3.1302,-3.0469,-2.999,-3.0659,-3.1258,-3.1563,-3.1723,-3.1502,-3.1341,-3.1402,-3.1806,-3.1856,-3.1978,-3.2367,-3.2824,-3.298,-3.3122,-3.3003,-3.3108,-3.3164,-3.2988,-3.275,-3.2539,-3.2539,-3.2651,-3.2848,-3.3136,-3.3276,-3.3276,-3.3276,-3.3276,-3.3276,-3.3276,-3.3276,-3.3276,-3.3759,-3.3508,-3.325,-3.3124,-3.3124,-3.3124,-3.3124,-3.3081,-3.2939,-3.258,-3.2062,-3.1602,-3.0937,-3.012,-2.92,-2.8931,-2.8907,-2.8931,-2.9051,-2.9316,-2.9617,-2.9833,-3.0013,-3.0374,-3.1055,-3.1536,-3.1801,-3.2211,-3.2478,-3.2819,-3.2816,-3.2321,-3.2568,-3.267,-3.2235,-3.2214,-3.2006,-3.2027,-3.2208,-3.2618,-3.3096,-3.3749,-3.4147,-3.3886,-3.3558,-3.3297,-3.288,-3.1773,-3.1276,-3.1323,-3.0333,-2.971,-2.9758,-2.9421,-2.9028,-2.904,-2.9028,-2.8768,-2.8423,-2.8186,-2.7816,-2.7558,-2.7582,-2.7894,-2.8266,-2.833,-2.8276,-2.8912,-2.9272,-2.9859,-3.0629,-3.0557,-3.1318,-3.1355,-3.0329,-3.1281,-3.1773,-3.0607,-3.0088,-3.0831,-3.1389,-3.0535,-3.0068,-3.103,-3.1311,-3.081,-3.082,-3.057,-3.0304,-3.0152,-3.0657,-3.1341,-3.1452,-3.1673,-3.2173,-3.2511,-3.284,-3.2898,-3.3178,-3.3206,-3.3108,-3.2946,-3.2637,-3.2539,-3.2651,-3.2904,-3.3164,-3.3276,-3.3276,-3.3276,-3.3276,-3.3276,-3.3276,-3.3276,-3.3276,-3.3909,-3.3847,-3.3307,-3.3124,-3.3124,-3.3124,-3.3068,-3.2982,-3.281,-3.2327,-3.1688,-3.1168,-3.0302,-2.9453,-2.9003,-2.8991,-2.9256,-2.9015,-2.9256,-2.9532,-2.9713,-2.9881,-3.0254,-3.0802,-3.1247,-3.1853,-3.1994,-3.2382,-3.3044,-3.3475,-3.3425,-3.2755,-3.3003,-3.3017,-3.2921,-3.2863,-3.2731,-3.2087,-3.2489,-3.2686,-3.2742,-3.3194,-3.3479,-3.3423,-3.3203,-3.2891,-3.2479,-3.1282,-3.0609,-3.0403,-2.9431,-2.8906,-2.9048,-2.8866,-2.863,-2.863,-2.863,-2.8605,-2.8412,-2.821,-2.7897,-2.7762,-2.787,-2.811,-2.8402,-2.851,-2.851,-2.863,-2.8937,-2.9369,-2.9704,-3.0114,-3.0645,-3.0707,-3.0291,-3.1267,-3.1796,-3.0519,-2.9845,-3.0405,-3.0857,-3.082,-3.079,-3.1729,-3.1573,-3.0417,-2.9961,-2.9768,-2.9666,-2.9564,-2.9884,-3.0692,-3.049,-3.0745,-3.1352,-3.1853,-3.2274,-3.2727,-3.3044,-3.3262,-3.3129,-3.2841,-3.2483,-3.2497,-3.2609,-3.2497,-3.2525,-3.2932,-3.3276,-3.3276,-3.3276,-3.3276,-3.3276,-3.3276,-3.3276,-3.3909,-3.3847,-3.3307,-3.3124,-3.3124,-3.3124,-3.2939,-3.2754,-3.2711,-3.237,-3.1697,-3.0797,-2.9923,-2.9412,-2.9292,-2.9268,-2.9316,-2.9773,-3.0013,-3.0374,-3.0802,-3.0694,-3.0826,-3.0958,-3.1404,-3.2166,-3.2298,-3.2671,-3.3356,-3.4066,-3.3849,-3.3416,-3.3525,-3.3356,-3.3284,-3.3368,-3.3116,-3.2527,-3.2629,-3.2313,-3.2047,-3.2089,-3.212,-3.2077,-3.1921,-3.1789,-3.1733,-3.0743,-3.0186,-3.0194,-2.9136,-2.8534,-2.8643,-2.8582,-2.851,-2.851,-2.851,-2.851,-2.845,-2.8402,-2.8198,-2.8029,-2.811,-2.8486,-2.8631,-2.8582,-2.8558,-2.8619,-2.8894,-2.9049,-2.9221,-2.9328,-2.9781,-3.0075,-3.0037,-3.0291,-3.067,-3.0228,-2.973,-3.0063,-3.0177,-3.0152,-3.0304,-3.1007,-3.1576,-3.0532,-3.0367,-3.0177,-2.9973,-2.9884,-2.974,-2.9926,-2.9519,-2.9781,-3.0475,-3.0963,-3.1463,-3.2129,-3.265,-3.296,-3.3143,-3.2758,-3.2384,-3.2384,-3.244,-3.2131,-3.2061,-3.2778,-3.3248,-3.3276,-3.3276,-3.3276,-3.3276,-3.3276,-3.3276,-3.3395,-3.337,-3.3169,-3.3124,-3.3068,-3.2896,-3.2797,-3.268,-3.2407,-3.1906,-3.1298,-3.0453,-2.9797,-2.9508,-2.9653,-2.9581,-2.9352,-2.946,-2.9797,-2.9833,-2.9941,-3.0037,-3.0242,-3.0898,-3.1308,-3.1985,-3.2358,-3.2984,-3.373,-3.4234,-3.4402,-3.4198,-3.4138,-3.4246,-3.4198,-3.3825,-3.3416,-3.2984,-3.2623,-3.2214,-3.1837,-3.1705,-3.1705,-3.1705,-3.1705,-3.1705,-3.1548,-3.0657,-3.023,-2.9821,-2.9039,-2.8667,-2.851,-2.851,-2.8534,-2.8546,-2.8558,-2.8582,-2.8582,-2.8558,-2.8402,-2.8414,-2.8655,-2.8991,-2.9027,-2.9244,-2.922,-2.916,-2.8991,-2.9201,-2.8825,-2.8749,-2.8961,-2.9523,-2.9742,-2.9704,-2.9702,-2.9557,-2.9774,-3.0161,-2.9764,-2.9445,-2.9639,-2.9935,-3.0456,-3.072,-3.067,-3.0556,-3.0263,-3.0068,-2.9908,-2.9697,-2.933,-2.9454,-3.0142,-3.0441,-3.073,-3.1442,-3.2256,-3.2536,-3.2804,-3.2688,-3.2398,-3.2384,-3.2406,-3.2426,-3.2595,-3.3016,-3.322,-3.3262,-3.3276,-3.3276,-3.3276,-3.3276,-3.3276,-3.3124,-3.3124,-3.3124,-3.3124,-3.3081,-3.2896,-3.2723,-3.255,-3.23,-3.1756,-3.1103,-3.0555,-3.0134,-2.9965,-3.011,-3.0025,-2.9749,-2.9773,-2.9809,-2.9905,-2.9953,-2.9857,-3.0206,-3.0783,-3.1633,-3.209,-3.2539,-3.326,-3.4198,-3.4222,-3.4463,-3.4679,-3.4763,-3.4715,-3.4595,-3.4258,-3.3694,-3.3104,-3.2707,-3.2214,-3.1789,-3.1705,-3.1705,-3.1705,-3.1705,-3.1705,-3.144,-3.0742,-3.0158,-2.9761,-2.9196,-2.8607,-2.851,-2.8534,-2.8595,-2.8679,-2.8751,-2.8799,-2.8907,-2.8811,-2.8763,-2.8811,-2.9232,-2.9472,-2.9641,-2.9923,-2.9761,-2.9605,-2.952,-2.9376,-2.8931,-2.8996,-2.8968,-2.9475,-2.9049,-2.9025,-2.9468,-2.9539,-2.9913,-3.0251,-2.9826,-2.9599,-2.9382,-2.9644,-2.9871,-3.0431,-3.0707,-3.0455,-3.0037,-2.9957,-2.9967,-2.9718,-2.9356,-2.9598,-2.9988,-3.0512,-3.0989,-3.0985,-3.1663,-3.2114,-3.2324,-3.2354,-3.2236,-3.1972,-3.2152,-3.2639,-3.2932,-3.3059,-3.315,-3.3276,-3.3276,-3.3276,-3.3276,-3.3276,-3.3276,-3.3124,-3.3124,-3.3124,-3.3068,-3.3081,-3.3068,-3.281,-3.2431,-3.23,-3.2045,-3.1548,-3.106,-3.0807,-3.0747,-3.0771,-3.0494,-3.0158,-3.0434,-3.0615,-3.0494,-3.0506,-3.1007,-3.1284,-3.1597,-3.1898,-3.2935,-3.3152,-3.3501,-3.4595,-3.4474,-3.4619,-3.4787,-3.4775,-3.4763,-3.4727,-3.427,-3.3549,-3.2695,-3.2587,-3.2166,-3.1729,-3.1585,-3.1585,-3.1585,-3.1681,-3.1705,-3.1488,-3.0814,-3.029,-3.0086,-2.9328,-2.8847,-2.8775,-2.8751,-2.8907,-2.9244,-2.9268,-2.9508,-2.9893,-2.952,-2.9376,-2.9376,-2.9773,-3.005,-3.0074,-3.02,-3.0218,-3.011,-3.0062,-3.005,-2.9833,-2.9593,-2.9458,-2.9318,-2.896,-2.8911,-2.942,-2.9634,-3.0012,-3.0207,-3.0285,-3.0204,-2.9724,-2.9472,-2.9569,-2.9947,-3.0494,-3.0417,-2.9897,-2.9707,-2.972,-2.979,-2.948,-2.9909,-3.0321,-3.0853,-3.1197,-3.1075,-3.1352,-3.2024,-3.2403,-3.2573,-3.2282,-3.1779,-3.2206,-3.2961,-3.2988,-3.2932,-3.3094,-3.3276,-3.3276,-3.3276,-3.3276,-3.3276,-3.3276,-3.3124,-3.3124,-3.3124,-3.2995,-3.2853,-3.2692,-3.2531,-3.2344,-3.2069,-3.1849,-3.1681,-3.1476,-3.1211,-3.1103,-3.1187,-3.0915,-3.0314,-3.0603,-3.0783,-3.0477,-3.079,-3.0958,-3.1247,-3.1621,-3.1946,-3.2226,-3.2563,-3.3128,-3.3741,-3.4126,-3.4522,-3.4667,-3.4775,-3.4775,-3.4751,-3.4486,-3.4066,-3.314,-3.2659,-3.2094,-3.1332,-3.1211,-3.1223,-3.1235,-3.1512,-3.1669,-3.1669,-3.0879,-3.0579,-3.0482,-2.9737,-2.9472,-2.9448,-2.9448,-2.9593,-2.9797,-2.9821,-2.9881,-3.0158,-3.0098,-3.0158,-3.0146,-3.0278,-3.0645,-3.0657,-3.1007,-3.0946,-3.0742,-3.0615,-3.0482,-3.0074,-2.9965,-2.9863,-2.9863,-2.9677,-2.9677,-2.9922,-2.9892,-3.0036,-3.0089,-3.0182,-2.9996,-2.9638,-2.942,-2.9408,-2.9374,-2.9818,-2.9986,-2.964,-2.9353,-2.9262,-2.9608,-2.9738,-3.0197,-3.0664,-3.1205,-3.1348,-3.1216,-3.1748,-3.255,-3.2789,-3.2668,-3.272,-3.2449,-3.2835,-3.3234,-3.3136,-3.308,-3.3178,-3.3276,-3.3276,-3.3276,-3.3276,-3.3276,-3.3276,-3.3124,-3.3124,-3.3124,-3.2939,-3.2723,-3.255,-3.2431,-3.2213,-3.1881,-3.1705,-3.1705,-3.1693,-3.1536,-3.138,-3.144,-3.1264,-3.0458,-3.0934,-3.0867,-3.0537,-3.0958,-3.1211,-3.138,-3.1524,-3.1898,-3.2018,-3.2286,-3.2803,-3.3392,-3.3778,-3.427,-3.4667,-3.4775,-3.4775,-3.4715,-3.4486,-3.397,-3.3104,-3.2527,-3.1985,-3.1296,-3.0958,-3.0946,-3.1031,-3.1235,-3.1488,-3.15,-3.1284,-3.0922,-3.079,-3.047,-3.0134,-3.0122,-3.011,-3.0194,-3.0278,-3.0555,-3.0645,-3.0795,-3.0903,-3.0903,-3.0814,-3.1043,-3.1163,-3.1223,-3.1428,-3.1416,-3.124,-3.1144,-3.1007,-3.0718,-3.0597,-3.0405,-3.0362,-3.0218,-3.0194,-3.035,-3.0362,-3.0482,-3.047,-3.0338,-3.0037,-2.9677,-2.9417,-2.9286,-2.918,-2.9096,-2.9283,-2.9456,-2.9237,-2.9089,-2.9474,-3.0035,-3.0572,-3.1034,-3.1531,-3.1586,-3.1375,-3.2064,-3.2931,-3.2511,-3.2295,-3.2704,-3.3051,-3.3157,-3.3227,-3.3276,-3.3276,-3.3276,-3.3276,-3.3276,-3.3276,-3.3276,-3.3276,-3.3276,-3.3124,-3.3124,-3.3124,-3.2939,-3.2711,-3.2581,-3.2376,-3.1981,-3.1805,-3.1705,-3.1705,-3.1705,-3.1645,-3.1681,-3.1705,-3.1428,-3.1091,-3.1452,-3.1284,-3.112,-3.1392,-3.1548,-3.1621,-3.1693,-3.1886,-3.2202,-3.2454,-3.2563,-3.3236,-3.3754,-3.4258,-3.4655,-3.4763,-3.4775,-3.4643,-3.439,-3.3754,-3.32,-3.2743,-3.2082,-3.1344,-3.1055,-3.1007,-3.1043,-3.1139,-3.1392,-3.1452,-3.132,-3.1103,-3.0874,-3.053,-3.0302,-3.0182,-3.0146,-3.0513,-3.0898,-3.1392,-3.1464,-3.1512,-3.156,-3.1573,-3.1416,-3.156,-3.1669,-3.1657,-3.1645,-3.1609,-3.1597,-3.1536,-3.1597,-3.156,-3.1247,-3.0946,-3.0778,-3.0561,-3.0615,-3.0886,-3.1019,-3.1187,-3.1187,-3.1043,-3.0699,-3.0206,-2.9845,-2.9617,-2.9446,-2.9326,-2.9124,-2.9255,-2.9236,-2.9234,-2.9593,-3.0211,-3.0987,-3.1433,-3.164,-3.1875,-3.1709,-3.2403,-3.3051,-3.2489,-3.2259,-3.2739,-3.3086,-3.3136,-3.3206,-3.3276,-3.3276,-3.3276,-3.3276,-3.3276,-3.3276,-3.3276,-3.3276,-3.3276,-3.3124,-3.3124,-3.3124,-3.2865,-3.2475,-3.2145,-3.1925,-3.1793,-3.1705,-3.1705,-3.1705,-3.1705,-3.1705,-3.1705,-3.1705,-3.1597,-3.1585,-3.1609,-3.1597,-3.1597,-3.1609,-3.1681,-3.1705,-3.1729,-3.1837,-3.191,-3.201,-3.2262,-3.2851,-3.3502,-3.4258,-3.4691,-3.4763,-3.4775,-3.4691,-3.4619,-3.4042,-3.3561,-3.3128,-3.231,-3.1657,-3.1344,-3.1175,-3.0995,-3.1199,-3.144,-3.1488,-3.1536,-3.1416,-3.1368,-3.132,-3.1235,-3.1216,-3.1247,-3.1404,-3.1428,-3.1633,-3.1693,-3.1705,-3.1705,-3.1705,-3.1705,-3.1705,-3.1705,-3.1705,-3.1705,-3.1705,-3.1705,-3.1705,-3.1705,-3.1705,-3.15,-3.1344,-3.1211,-3.1067,-3.1151,-3.1332,-3.138,-3.1536,-3.1512,-3.138,-3.1211,-3.073,-3.0501,-3.0272,-2.9953,-2.9653,-2.9352,-2.9145,-2.9135,-2.9143,-2.9457,-2.9781,-3.038,-3.1082,-3.1433,-3.1802,-3.216,-3.2668,-3.3051,-3.2895,-3.2789,-3.3016,-3.3171,-3.3206,-3.3241,-3.3276,-3.3241,-3.3051,-3.3241,-3.3241,-3.3276,-3.3276,-3.3276,-3.3276,-3.3124,-3.3081,-3.2995,-3.2692,-3.2213,-3.1849,-3.1705,-3.1705,-3.1705,-3.1705,-3.1705,-3.1705,-3.1705,-3.1705,-3.1705,-3.1693,-3.1693,-3.1681,-3.1681,-3.1681,-3.1705,-3.1705,-3.1705,-3.1705,-3.1729,-3.1705,-3.1789,-3.2066,-3.2647,-3.3454,-3.4258,-3.4727,-3.4775,-3.4631,-3.4546,-3.4534,-3.4306,-3.3825,-3.326,-3.2515,-3.197,-3.1452,-3.1067,-3.0922,-3.1223,-3.1392,-3.1488,-3.156,-3.1705,-3.1705,-3.1705,-3.1705,-3.1693,-3.1681,-3.1681,-3.1669,-3.1693,-3.1705,-3.1705,-3.1705,-3.1705,-3.1705,-3.1705,-3.1705,-3.1705,-3.1705,-3.1705,-3.1705,-3.1705,-3.1705,-3.1705,-3.1705,-3.1693,-3.1681,-3.1669,-3.1681,-3.1693,-3.1693,-3.1693,-3.1693,-3.1621,-3.1512,-3.1296,-3.1079,-3.0838,-3.0458,-3.005,-2.9629,-2.9352,-2.9197,-2.9019,-2.9037,-2.9197,-2.9523,-3.0253,-3.0919,-3.1193,-3.1563,-3.2196,-3.2547,-3.2824,-3.3122,-3.3206,-3.3241,-3.3276,-3.3206,-3.3086,-3.2846,-3.2704,-3.286,-3.2931,-3.2895,-3.3016,-3.3276,-3.3276,-3.3124,-3.3081,-3.2797,-3.2419,-3.1981,-3.1793,-3.1705,-3.1705,-3.1705,-3.1705,-3.1705,-3.1705,-3.1705,-3.1705,-3.1705,-3.1705,-3.1705,-3.1705,-3.1705,-3.1705,-3.1705,-3.1705,-3.1705,-3.1705,-3.1705,-3.1705,-3.1813,-3.2066,-3.2695,-3.344,-3.409,-3.4715,-3.4775,-3.4583,-3.4234,-3.4595,-3.4366,-3.3573,-3.332,-3.2875,-3.1769,-3.1163,-3.0838,-3.0645,-3.085,-3.1091,-3.1187,-3.1404,-3.1705,-3.1705,-3.1705,-3.1705,-3.1705,-3.1705,-3.1705,-3.1705,-3.1705,-3.1705,-3.1705,-3.1705,-3.1705,-3.1705,-3.1705,-3.1705,-3.1705,-3.1705,-3.1705,-3.1705,-3.1705,-3.1705,-3.1705,-3.1705,-3.1705,-3.1705,-3.1705,-3.1705,-3.1705,-3.1609,-3.1428,-3.138,-3.1199,-3.1139,-3.1235,-3.0983,-3.0934,-3.0723,-3.0374,-2.9893,-2.9605,-2.9328,-2.8972,-2.8754,-2.884,-2.904,-2.9406,-2.9999,-3.0304,-3.0782,-3.1489,-3.2123,-3.2403,-3.2824,-3.3276,-3.3276,-3.3276,-3.2966,-3.2739,-3.2583,-3.239,-3.2304,-3.239,-3.2426,-3.2618,-3.2824,-3.3171,-3.3124,-3.3081,-3.2649,-3.23,-3.1981,-3.1793,-3.1705,-3.1705,-3.1705,-3.1705,-3.1705,-3.1705,-3.1705,-3.1705,-3.1705,-3.1705,-3.1705,-3.1705,-3.1705,-3.1705,-3.1705,-3.1705,-3.1705,-3.1705,-3.1705,-3.1705,-3.1837,-3.2271,-3.2959,-3.3477,-3.3958,-3.4679,-3.4763,-3.451,-3.4066,-3.4498,-3.433,-3.3392,-3.3525,-3.3416,-3.2707,-3.2262,-3.2022,-3.1745,-3.1813,-3.1464,-3.15,-3.1573,-3.1705,-3.1705,-3.1705,-3.1705,-3.1705,-3.1705,-3.1705,-3.1705,-3.1705,-3.1705,-3.1705,-3.1705,-3.1705,-3.1705,-3.1705,-3.1705,-3.1705,-3.1705,-3.1693,-3.1681,-3.1681,-3.1669,-3.1621,-3.1609,-3.1609,-3.1621,-3.1669,-3.1669,-3.1669,-3.1428,-3.1175,-3.0946,-3.0742,-3.079,-3.0922,-3.0915,-3.0946,-3.0687,-3.035,-2.9989,-2.9773,-2.9496,-2.8991,-2.8707,-2.8586,-2.8736,-2.9,-2.9223,-2.96,-3.0012,-3.0683,-3.1304,-3.1978,-3.2367,-3.2753,-3.3171,-3.3241,-3.286,-3.2583,-3.2426,-3.2268,-3.1965,-3.1709,-3.1746,-3.1599,-3.1723,-3.2417,-3.2649,-3.2516,-3.2333,-3.2094,-3.1849,-3.1749,-3.1705,-3.1705,-3.1705,-3.1705,-3.1705,-3.1705,-3.1705,-3.1705,-3.1705,-3.1705,-3.1705,-3.1705,-3.1705,-3.1705,-3.1705,-3.1705,-3.1705,-3.1705,-3.1705,-3.1753,-3.2307,-3.2803,-3.326,-3.3897,-3.4438,-3.4727,-3.4739,-3.4534,-3.4138,-3.4451,-3.4294,-3.338,-3.3813,-3.3825,-3.3489,-3.2971,-3.2358,-3.2118,-3.191,-3.1633,-3.1488,-3.1524,-3.1705,-3.1705,-3.1705,-3.1705,-3.1705,-3.1705,-3.1705,-3.1705,-3.1705,-3.1705,-3.1705,-3.1705,-3.1705,-3.1705,-3.1705,-3.1705,-3.1621,-3.1573,-3.1284,-3.1259,-3.1259,-3.1259,-3.091,-3.0814,-3.0814,-3.0814,-3.1079,-3.1259,-3.1247,-3.1139,-3.0826,-3.0513,-3.038,-3.035,-3.0446,-3.0446,-3.0446,-3.0446,-3.0122,-2.9857,-2.9689,-2.9496,-2.9027,-2.8715,-2.857,-2.851,-2.8657,-2.8855,-2.904,-2.9484,-2.9935,-3.082,-3.1599,-3.1905,-3.2223,-3.2668,-3.2895,-3.2668,-3.2426,-3.2318,-3.1869,-3.1489,-3.123,-3.1044,-3.0857,-3.0745,-3.1355,-3.1997,-3.1893,-3.1981,-3.1893,-3.1681,-3.1609,-3.1633,-3.1681,-3.1621,-3.1597,-3.1597,-3.1657,-3.1705,-3.1705,-3.1705,-3.1705,-3.1705,-3.1705,-3.1705,-3.1705,-3.1705,-3.1705,-3.1705,-3.1705,-3.1705,-3.1934,-3.2403,-3.2839,-3.3284,-3.3861,-3.4306,-3.4643,-3.4631,-3.4438,-3.4258,-3.421,-3.4078,-3.3729,-3.379,-3.3958,-3.3574,-3.3092,-3.2478,-3.2034,-3.1729,-3.1464,-3.132,-3.138,-3.1681,-3.1705,-3.1705,-3.1705,-3.1705,-3.1705,-3.1705,-3.1705,-3.1705,-3.1705,-3.1705,-3.1705,-3.1705,-3.1705,-3.1705,-3.1669,-3.1585,-3.1404,-3.1127,-3.0874,-3.0874,-3.0766,-3.0374,-3.023,-3.023,-3.0194,-3.0573,-3.0814,-3.0802,-3.0687,-3.038,-3.0031,-2.9917,-2.9893,-2.9953,-2.9965,-2.9953,-2.9965,-2.9845,-2.9629,-2.94,-2.9172,-2.8847,-2.8655,-2.8546,-2.851,-2.851,-2.859,-2.8736,-2.8843,-2.9367,-3.0405,-3.1193,-3.1378,-3.1723,-3.2331,-3.2439,-3.2282,-3.2245,-3.216,-3.1673,-3.1143,-3.067,-3.0418,-3.0037,-2.9999,-3.0367,-3.1564,-3.1601,-3.1894,-3.1893,-3.1645,-3.1271,-3.1308,-3.1597,-3.1271,-3.1023,-3.1223,-3.1548,-3.1705,-3.1705,-3.1705,-3.1705,-3.1705,-3.1705,-3.1705,-3.1705,-3.1705,-3.1705,-3.1705,-3.1705,-3.1705,-3.1898,-3.2163,-3.2466,-3.3092,-3.3525,-3.4054,-3.4667,-3.4306,-3.4138,-3.4018,-3.3946,-3.3825,-3.3681,-3.3789,-3.3898,-3.367,-3.3272,-3.2911,-3.2491,-3.2151,-3.1813,-3.1609,-3.1657,-3.1705,-3.1705,-3.1705,-3.1705,-3.1705,-3.1705,-3.1705,-3.1705,-3.1705,-3.1705,-3.1705,-3.1705,-3.1705,-3.1705,-3.1705,-3.1705,-3.1633,-3.1573,-3.1163,-3.0597,-3.0561,-3.0561,-3.0302,-3.035,-3.035,-3.0122,-3.023,-3.0242,-3.0242,-2.9965,-2.9629,-2.9352,-2.916,-2.9268,-2.9424,-2.9412,-2.9376,-2.934,-2.922,-2.9039,-2.9172,-2.8919,-2.8667,-2.8595,-2.8522,-2.851,-2.851,-2.851,-2.859,-2.8618,-2.8764,-2.9665,-3.0342,-3.0745,-3.1193,-3.1723,-3.1978,-3.1978,-3.1965,-3.1928,-3.1636,-3.1068,-3.0304,-2.9781,-2.9445,-2.9367,-2.9781]},{"header":{"parameterUnit":"m.s-1","parameterCategory":1,"la1":31.0,"la2":29.5877,"lo1":-88.7671,"lo2":-86.6584,"dy":0.0162,"dx":0.0185,"nx":115,"ny":88,"refTime":"2024-04-30T12:00:00:Z","depth":0,"parameterNumber":3,"parameterNumberName":"V-component_of_WINDS"},"data":[0.0,0.0,0.0,0.0,0.0,0.0,0.0,0.0,0.0,0.0,0.0,0.0,0.0,0.0,0.0,0.0,0.0,0.0,0.0,0.0,0.0,0.0,0.0,0.0,0.0,0.0,0.0,0.0,0.0,0.0,0.0,0.0,0.0,0.0,0.0,0.0,0.0,0.0,0.0,0.0,0.0,0.0,0.0,0.0,0.0,0.0,0.0,0.0,0.0,0.0,0.0,0.0,0.0,0.0,0.0,0.0,0.0,0.0,0.0,0.0,0.0,0.0,0.0,0.0,0.0,0.0,0.0,0.0,0.0,0.0,0.0,0.0,0.0,0.0,0.0,0.0,0.0,0.0,0.0,0.0,0.0,0.0,0.0,0.0,0.0,0.0,0.0,0.0,0.0,0.0,0.0,0.0,0.0,0.0,0.0,0.0,0.0,0.0,0.0,0.0,0.0,0.0,0.0,0.0,0.0,0.0,0.0,0.0,0.0,0.0,0.0,0.0,0.0,0.0,0.0,0.0,0.0,0.0,0.0,0.0,0.0,0.0,0.0,0.0,0.0,0.0,0.0,0.0,0.0,0.0,0.0,0.0,0.0,0.0,0.0,0.0,0.0,0.0,0.0,0.0,0.0,0.0,0.0,0.0,0.0,0.0,0.0,0.0,0.0,0.0,0.0,0.0,0.0,0.0,0.0,0.0,0.0,0.0,0.0,0.0,0.0,0.0,0.0,0.0,0.0,0.0,0.0,0.0,0.0,0.0,0.0,0.0,0.0,0.0,0.0,0.0,0.0,0.0,0.0,0.0,0.0,0.0,0.0,0.0,0.0,0.0,0.0,0.0,0.0,0.0,0.0,0.0,0.0,0.0,0.0,0.0,0.0,0.0,0.0,0.0,0.0,0.0,0.0,0.0,0.0,0.0,0.0,0.0,0.0,0.0,0.0,0.0,0.0,0.0,0.0,0.0,0.0,0.0,0.0,0.0,0.0,0.0,0.0,0.0,0.0,0.0,0.0,0.0,0.0,0.0,0.0,0.0,0.0,0.0,0.0,0.0,0.0,0.0,0.0,0.0,0.0,0.0,0.0,0.0,0.0,0.0,0.0,0.0,0.0,0.0,0.0,0.0,0.0,0.0,0.0,0.0,0.0,0.0,0.0,0.0,0.0,0.0,0.0,0.0,0.0,0.0,0.0,0.0,0.0,0.0,0.0,0.0,0.0,0.0,0.0,0.0,0.0,0.0,0.0,0.0,0.0,0.0,0.0,0.0,0.0,0.0,0.0,0.0,0.0,0.0,0.0,0.0,0.0,0.0,0.0,0.0,0.0,0.0,0.0,0.0,0.0,0.0,0.0,0.0,0.0,0.0,0.0,0.0,0.0,0.0,0.0,0.0,0.0,0.0,0.0,0.0,0.0,0.0,0.0,0.0,0.0,0.0,0.0,0.0,0.0,0.0,0.0,0.0,0.0,0.0,0.0,0.0,0.0,0.0,0.0,0.0,0.0,0.0,0.0,0.0,0.0,0.0,0.0,0.0,0.0,0.0,0.0,0.0,0.0,0.0,0.0,0.0,0.0,0.0,0.0,0.0,0.0,0.0,0.0,0.0,0.0,0.0,0.0,0.0,0.0,0.0,0.0,0.0,0.0,0.0,0.0,0.0,0.0,0.0,0.0,0.0,0.0,0.0,0.0,0.0,0.0,0.0,0.0,0.0,0.0,0.0,0.0,0.0,0.0,0.0,0.0,0.0,0.0,0.0,0.0,0.0,0.0,0.0,0.0,0.0,0.0,0.0,0.0,0.0,0.0,0.0,0.0,0.0,0.0,0.0,0.0,0.0,0.0,0.0,0.0,0.0,0.0,0.0,0.0,0.0,0.0,0.0,0.0,0.0,0.0,0.0,0.0,0.0,0.0,0.0,0.0,0.0,0.0,0.0,0.0,0.0,0.0,0.0,0.0,0.0,0.0,0.0,0.0,0.0,0.0,0.0,0.0,0.0,0.0,0.0,0.0,0.0,0.0,0.0,0.0,0.0,0.0,0.0,0.0,0.0,0.0,0.0,0.0,0.0,0.0,0.0,0.0,0.0,0.0,0.0,0.0,0.0,0.0,0.0,0.0,0.0,0.0,0.0,0.0,0.0,0.0,0.0,0.0,0.0,0.0,0.0,0.0,0.0,0.0,0.0,0.0,0.0,0.0,0.0,0.0,0.0,0.0,0.0,0.0,0.0,0.0,0.0,0.0,0.0,0.0,0.0,0.0,0.0,0.0,0.0,0.0,0.0,0.0,0.0,0.0,0.0,0.0,0.0,0.0,0.0,0.0,0.0,0.0,0.0,0.0,0.0,0.0,0.0,0.0,0.0,0.0,0.0,0.0,0.0,0.0,0.0,0.0,0.0,0.0,0.0,0.0,0.0,0.0,0.0,0.0,0.0,0.0,0.0,0.0,0.0,0.0,0.0,0.0,0.0,0.0,0.0,0.0,0.0,0.0,0.0,0.0,0.0,0.0,0.0,0.0,0.0,0.0,0.0,0.0,0.0,0.0,0.0,0.0,0.0,0.0,0.0,0.0,0.0,0.0,0.0,0.0,0.0,0.0,0.0,0.0,0.0,0.0,0.0,0.0,0.0,0.0,0.0,0.0,0.0,0.0,0.0,0.0,0.0,0.0,0.0,0.0,0.0,0.0,0.0,0.0,0.0,0.0,0.0,0.0,0.0,0.0,0.0,0.0,0.0,0.0,0.0,0.0,0.0,0.0,0.0,0.0,0.0,0.0,0.0,0.0,0.0,0.0,0.0,0.0,0.0,0.0,0.0,0.0,0.0,0.0,0.0,0.0,0.0,0.0,0.0,0.0,0.0,0.0,0.0,0.0,0.0,0.0,0.0,0.0,0.0,0.0,0.0,0.0,0.0,0.0,0.0,0.0,0.0,0.0,0.0,0.0,0.0,0.0,0.0,0.0,0.0,0.0,0.0,0.0,0.0,0.0,0.0,0.0,0.0,0.0,0.0,0.0,0.0,0.0,0.0,0.0,0.0,0.0,0.0,0.0,0.0,0.0,0.0,0.0,0.0,0.0,0.0,0.0,0.0,0.0,0.0,0.0,0.0,0.0,0.0,0.0,0.0,0.0,0.0,0.0,0.0,0.0,0.0,0.0,0.0,0.0,0.0,0.0,0.0,0.0,0.0,0.0,0.0,0.0,0.0,0.0,0.0,0.0,0.0,0.0,0.0,0.0,0.0,0.0,0.0,0.0,0.0,0.0,0.0,0.0,0.0,0.0,0.0,0.0,0.0,0.0,0.0,0.0,0.0,0.0,0.0,0.0,0.0,0.0,0.0,0.0,0.0,0.0,0.0,0.0,0.0,0.0,0.0,0.0,0.0,0.0,0.0,0.0,0.0,0.0,0.0,0.0,0.0,0.0,0.0,0.0,0.0,0.0,0.0,0.0,0.0,0.0,0.0,0.0,0.0,0.0,0.0,0.0,0.0,0.0,0.0,0.0,0.0,0.0,0.0,0.0,0.0,0.0,0.0,0.0,0.0,0.0,0.0,0.0,0.0,0.0,0.0,0.0,0.0,0.0,0.0,0.0,0.0,0.0,0.0,0.0,0.0,0.0,0.0,0.0,0.0,0.0,0.0,0.0,0.0,0.0,0.0,0.0,0.0,0.0,0.0,0.0,0.0,0.0,0.0,0.0,0.0,0.0,0.0,0.0,0.0,0.0,0.0,0.0,0.0,0.0,0.0,0.0,0.0,0.0,0.0,0.0,0.0,0.0,0.0,0.0,0.0,0.0,0.0,0.0,0.0,0.0,0.0,0.0,0.0,0.0,0.0,0.0,0.0,0.0,0.0,0.0,0.0,0.0,0.0,0.0,0.0,0.0,0.0,0.0,0.0,0.0,0.0,0.0,0.0,0.0,0.0,0.0,0.0,0.0,0.0,0.0,0.0,0.0,0.0,0.0,0.0,0.0,0.0,0.0,0.0,0.0,0.0,0.0,0.0,0.0,0.0,0.0,0.0,0.0,0.0,0.0,0.0,0.0,0.0,0.0,0.0,0.0,0.0,0.0,0.0,0.0,0.0,0.0,0.0,0.0,0.0,0.0,0.0,0.0,0.0,0.0,0.0,0.0,0.0,0.0,0.0,0.0,0.0,0.0,0.0,0.0,0.0,0.0,0.0,0.0,0.0,0.0,0.0,0.0,0.0,0.0,0.0,0.0,0.0,0.0,0.0,0.0,0.0,0.0,0.0,0.0,0.0,0.0,0.0,0.0,0.0,0.0,0.0,0.0,0.0,0.6867,0.0,0.0,0.0,0.0,0.0,0.0,0.0,0.0,0.0,0.0,0.0,0.0,0.0,0.0,0.0,0.0,0.0,0.0,0.0,0.0,0.0,0.0,0.0,0.0,0.0,0.0,0.0,0.0,0.0,0.0,0.0,0.0,0.0,0.0,0.0,0.0,0.0,0.0,0.0,0.0,0.0,0.0,0.0,0.0,0.0,0.0,0.0,0.0,0.0,0.0,0.0,0.0,0.0,0.0,0.0,0.0,0.0,0.0,0.0,0.0,0.0,0.0,0.0,0.0,0.0,0.0,0.0,0.0,0.0,0.0,0.0,0.0,0.0,0.0,0.0,0.0,0.0,0.0,0.0,0.0,0.0,0.0,0.0,0.0,0.0,0.0,0.0,0.0,0.0,0.0,0.0,0.0,0.0,0.0,0.0,0.0,0.0,0.0,0.0,0.0,0.0,0.0,0.0,0.0,0.0,0.0,0.0,0.0,0.0,0.0,0.8595,0.7268,0.7432,0.7319,0.6867,0.0,0.0,0.0,0.0,0.0,0.0,0.0,0.0,0.0,0.0,0.0,0.0,0.0,0.0,0.0,0.0,0.0,0.0,0.0,0.0,0.0,0.0,0.0,0.0,0.0,0.0,0.0,0.0,0.0,0.0,0.0,0.0,0.0,0.0,0.0,0.0,0.0,0.0,0.0,0.0,0.0,0.0,0.0,0.0,0.0,0.0,0.0,0.0,0.0,0.0,0.0,0.0,0.0,0.0,0.0,0.0,0.0,0.0,0.0,0.0,0.0,0.0,0.0,0.0,0.0,0.0,0.0,0.0,0.0,0.0,0.0,0.0,0.0,0.0,0.0,0.0,0.0,0.0,0.0,0.0,0.0,0.0,0.0,0.0,0.0,0.0,0.0,0.0,0.0,0.0,0.0,0.0,0.0,0.0,0.0,0.0,0.0,0.0,0.0,0.0,0.0,0.0,0.0,0.0,0.0,0.0,0.0,0.0,0.0,0.0,0.0,0.0,0.7307,0.7086,0.6853,0.0,0.0,0.0,0.0,0.0,0.0,0.0,0.0,0.0,0.0,0.0,0.0,0.0,0.0,0.0,0.0,0.0,0.0,0.0,0.0,0.0,0.0,0.0,0.0,0.0,0.0,0.0,0.0,0.0,0.0,0.0,0.0,0.0,0.0,0.0,0.0,0.0,0.0,0.0,0.0,0.0,0.0,0.0,0.0,0.0,0.0,0.0,0.0,0.0,0.0,0.0,0.0,0.0,0.0,0.0,0.0,0.0,0.0,0.0,0.0,0.0,0.0,0.0,0.0,0.0,0.0,0.0,0.0,0.0,0.0,0.0,0.0,0.0,0.0,0.0,0.0,0.0,0.0,0.0,0.0,0.0,0.0,0.0,0.0,0.0,0.0,0.0,0.0,0.0,0.0,0.0,0.0,0.0,0.0,0.0,0.0,0.0,0.0,0.0,0.0,0.0,0.0,0.0,0.0,0.0,0.0,0.0,0.0,0.0,0.0,0.992,0.8665,0.7766,0.0,0.6989,0.0,0.0,0.0,0.0,0.0,0.0,0.0,0.0,0.0,0.0,0.0,0.0,0.0,0.0,0.0,0.0,0.0,0.0,0.0,0.0,0.0,0.0,0.0,0.0,0.0,0.0,0.0,0.0,0.0,0.0,0.0,0.0,0.0,0.0,0.0,0.0,0.0,0.0,0.0,0.0,0.0,0.0,0.0,0.0,0.0,0.0,0.0,0.0,0.0,0.0,0.0,0.0,0.0,0.0,0.0,0.0,0.0,0.0,0.0,0.0,0.0,0.0,0.0,0.0,0.0,0.0,0.0,0.0,0.0,0.0,0.0,0.0,0.0,0.0,0.0,0.0,0.0,0.0,0.0,0.0,0.0,0.0,0.0,0.0,0.0,0.0,0.0,0.0,0.0,0.0,0.0,0.0,0.0,0.0,0.0,0.0,0.0,0.0,0.0,0.0,0.0,0.0,0.0,0.0,0.0,0.0,0.0,0.0,0.0,0.0,1.0753,0.9243,0.8029,0.7264,0.0,0.0,0.0,0.0,0.0,0.0,0.0,0.0,0.0,0.0,0.0,0.0,0.0,0.0,0.0,0.0,0.0,0.0,0.0,0.0,0.0,0.0,0.0,0.0,0.0,0.0,0.0,0.0,0.0,0.0,0.0,0.0,0.0,0.0,0.0,0.0,0.0,0.0,0.0,0.0,0.0,0.0,0.0,0.0,0.0,0.0,0.0,0.0,0.0,0.0,0.0,0.0,0.0,0.0,0.0,0.0,0.0,0.0,0.0,0.0,0.0,0.0,0.0,0.0,0.0,0.0,0.0,0.0,0.0,0.0,0.0,0.0,0.0,0.0,0.0,0.0,0.0,0.0,0.0,0.0,0.0,0.0,0.0,0.0,0.0,0.0,0.0,0.0,0.0,0.0,0.0,0.0,0.0,0.0,0.0,0.0,0.0,0.0,0.0,0.0,0.0,0.0,0.0,0.0,0.0,0.0,0.0,0.0,0.0,0.0,1.2535,1.1215,0.9451,0.7996,0.7263,0.7272,0.0,0.0,0.0,0.0,0.0,0.0,0.0,0.0,0.0,0.0,0.0,0.0,0.0,0.0,0.0,0.0,0.0,0.0,0.0,0.0,0.0,0.0,0.0,0.0,0.0,0.0,0.0,0.0,0.0,0.0,0.0,0.0,0.0,0.0,0.0,0.0,0.0,0.0,0.0,0.0,0.0,0.0,0.0,0.0,0.0,0.0,0.0,0.0,0.0,0.0,0.0,0.0,0.0,0.0,0.0,0.0,0.0,0.0,0.0,0.0,0.0,0.0,0.0,0.0,0.0,0.0,0.0,0.0,0.0,0.0,0.0,0.0,0.0,0.0,0.0,0.0,0.0,0.0,0.0,0.0,0.0,0.0,0.0,0.0,0.0,0.0,0.0,0.0,0.0,0.0,0.0,0.0,0.0,0.0,0.0,0.0,0.0,0.0,0.0,0.0,0.0,0.0,0.0,0.0,0.0,0.0,0.0,0.0,1.4703,1.316,1.1239,0.9103,0.7721,0.714,0.0,0.0,0.0,0.0,0.0,0.0,0.0,0.0,0.0,0.0,0.0,0.0,0.0,0.0,0.0,0.0,0.0,0.0,0.0,0.0,0.0,0.0,0.0,0.0,0.0,0.0,0.0,0.0,0.0,0.0,0.0,0.0,0.0,0.0,0.0,0.0,0.0,0.0,0.0,0.0,0.0,0.0,0.0,0.0,0.0,0.0,0.0,0.0,0.0,0.0,0.0,0.0,0.0,0.0,0.0,0.0,0.0,0.0,0.0,0.0,0.0,0.0,0.0,0.0,0.0,0.0,0.0,0.0,0.0,0.0,0.0,0.0,0.0,0.0,0.0,0.0,0.0,0.0,0.0,0.0,0.0,0.0,0.0,0.0,0.0,0.0,0.0,0.0,0.0,0.0,0.0,0.0,0.0,0.0,0.0,0.0,0.0,0.0,0.0,0.0,0.0,0.0,0.0,0.0,0.0,0.0,0.0,0.0,0.0,1.4812,1.2969,1.1359,1.0092,0.8236,0.7376,0.0,0.0,0.0,0.0,0.0,0.0,0.0,0.0,0.0,0.0,0.0,0.0,0.0,0.0,0.0,0.0,0.0,0.0,0.0,0.0,0.0,0.0,0.0,0.0,0.0,0.0,0.0,0.0,0.0,0.0,0.0,0.0,0.0,0.0,0.0,0.0,0.0,0.0,0.0,0.0,0.0,0.0,0.0,0.0,0.0,0.0,0.0,0.0,0.0,0.0,0.0,0.0,0.0,0.0,0.0,0.0,0.0,0.0,0.0,0.0,0.0,0.0,0.0,0.0,0.0,0.0,0.0,0.0,0.0,0.0,0.0,0.0,0.0,0.0,0.0,0.0,0.0,0.0,0.0,0.0,0.0,0.0,0.0,0.0,0.0,0.0,0.0,0.0,0.0,0.0,0.0,0.0,0.0,0.0,0.0,0.0,0.0,0.0,0.0,0.0,0.0,0.0,0.0,0.0,0.0,0.0,0.0,0.0,0.0,1.4728,0.0,1.1961,1.0743,0.8996,0.7924,0.0,0.0,0.0,0.0,0.0,0.0,0.0,0.0,0.0,0.0,0.0,0.0,0.0,0.0,0.0,0.0,0.0,0.0,0.0,0.0,0.0,0.0,0.0,0.0,0.0,0.0,0.0,0.0,0.0,0.0,0.0,0.0,0.0,0.0,0.0,0.0,0.0,0.0,0.0,0.0,0.0,0.0,0.0,0.0,0.0,0.0,0.0,0.0,0.0,0.0,0.0,0.0,0.0,0.0,0.0,0.0,0.0,0.0,0.0,0.0,0.0,0.0,0.0,0.0,0.0,0.0,0.0,0.0,0.0,0.0,0.0,0.0,0.0,0.0,0.0,0.0,0.0,0.0,0.0,0.0,0.0,0.0,0.0,0.0,0.0,0.0,0.0,0.0,0.0,0.0,0.0,0.0,0.0,0.0,0.0,0.0,0.0,0.0,0.0,0.0,0.0,0.0,0.0,0.0,0.0,0.0,0.0,0.0,1.4825,1.4509,1.4222,1.2947,1.0891,0.9849,0.8716,0.0,0.0,0.0,0.0,0.0,0.0,0.0,0.0,0.0,0.0,0.0,0.0,0.0,0.0,0.0,0.0,0.0,0.0,0.0,0.0,0.0,0.0,0.0,0.0,0.0,0.0,0.0,0.0,0.0,0.0,0.0,0.0,0.0,0.0,0.0,0.0,0.0,0.0,0.0,0.0,0.0,0.0,0.0,0.0,0.0,0.0,0.0,0.0,0.0,0.0,0.0,0.0,0.0,0.0,0.0,0.0,0.0,0.0,0.0,0.0,0.0,0.0,0.0,0.0,0.0,0.0,0.0,0.0,0.0,0.0,0.0,0.0,0.0,0.0,0.0,0.0,0.0,0.0,0.0,0.0,0.0,0.0,0.0,0.0,0.0,0.0,0.0,0.0,0.0,0.0,0.0,0.0,0.0,0.0,0.0,0.0,0.0,0.0,0.0,0.0,0.0,0.0,0.0,0.0,0.0,0.0,0.0,0.0,0.0,1.4046,1.3905,1.3019,1.1269,0.9845,0.8703,0.0,0.0,0.0,0.0,0.0,0.0,0.0,0.0,0.0,0.0,0.0,0.0,0.0,0.0,0.0,0.0,0.0,0.0,0.0,0.0,0.0,0.0,0.0,0.0,0.0,0.0,0.0,0.0,0.0,0.0,0.0,0.0,0.0,0.0,0.0,0.0,0.0,0.0,0.0,0.0,0.0,0.0,0.0,0.0,0.0,0.0,0.0,0.0,0.0,0.0,0.0,0.0,0.0,0.0,0.0,0.0,0.0,0.0,0.0,0.0,0.0,0.0,0.0,0.0,0.0,0.0,0.0,0.0,0.0,0.0,0.0,0.0,0.0,0.0,0.0,0.0,0.0,0.0,0.0,0.0,0.0,0.0,0.0,0.0,0.0,0.0,0.0,0.0,0.0,0.0,0.0,0.0,0.0,0.0,0.0,0.0,0.0,0.0,0.0,0.0,0.0,0.0,0.0,0.0,0.0,0.0,0.0,0.0,0.0,1.4483,1.4598,1.3904,1.2368,1.1336,1.0116,0.8576,0.0,0.0,0.0,0.0,0.0,0.0,0.0,0.0,0.0,0.0,0.0,0.0,0.0,0.0,0.0,0.0,0.0,0.0,0.0,0.0,0.0,0.0,0.0,0.0,0.0,0.0,0.0,0.0,0.0,0.0,0.0,0.0,0.0,0.0,0.0,0.0,0.0,0.0,0.0,0.0,0.0,0.0,0.0,0.0,0.0,0.0,0.0,0.0,0.0,0.0,0.0,0.0,0.0,0.0,0.0,0.0,0.0,0.0,0.0,0.0,0.0,0.0,0.0,0.0,0.0,0.0,0.0,0.0,0.0,0.0,0.0,0.0,0.0,0.0,0.0,0.0,0.0,0.0,0.0,0.0,0.0,0.0,0.0,0.0,0.0,0.0,0.0,0.0,0.0,0.0,0.0,0.0,0.0,0.0,0.0,0.0,0.0,0.0,0.0,0.0,0.0,0.0,0.0,0.0,0.0,0.0,0.0,0.0,1.5511,1.6024,1.5565,1.3954,1.3821,1.2593,0.0,0.0,0.0,0.0,0.0,0.0,0.0,0.0,0.0,0.0,0.0,0.0,0.0,0.0,0.0,0.0,0.0,0.0,0.0,0.0,0.0,0.0,0.0,0.0,0.0,0.0,0.0,0.0,0.0,0.0,0.0,0.0,0.0,0.0,0.0,0.0,0.0,0.0,0.0,0.0,0.0,0.0,0.0,0.0,0.0,0.0,0.0,0.0,0.0,0.0,0.0,0.0,0.0,0.0,0.0,0.0,0.0,0.0,0.0,0.0,0.0,0.0,0.0,0.0,0.0,0.0,0.0,0.0,0.0,0.0,0.0,0.0,0.0,0.0,0.0,0.0,0.0,0.0,0.0,0.0,0.0,0.0,0.0,0.0,0.0,0.0,0.0,0.0,0.0,0.0,0.0,0.0,0.0,0.0,0.0,0.0,0.0,0.0,0.0,0.0,0.0,0.0,0.0,0.0,0.0,0.0,0.0,0.0,0.0,1.5535,1.6211,1.5838,1.4357,1.3848,1.279,0.0,0.0,0.0,0.0,0.0,0.0,0.0,0.0,0.0,0.0,0.0,0.0,0.0,0.0,0.0,0.0,0.0,0.0,0.0,0.0,0.0,0.0,0.0,0.0,0.0,0.0,0.0,0.0,0.0,0.0,0.0,0.0,0.0,0.0,0.0,0.0,0.0,0.0,0.0,0.0,0.0,0.0,0.0,0.0,0.0,0.0,0.0,0.0,0.0,0.0,0.0,0.0,0.0,0.0,0.0,0.0,0.0,0.0,0.0,0.0,0.0,0.0,0.0,0.0,0.0,0.0,0.0,0.0,0.0,0.0,0.0,0.0,0.0,0.0,0.0,0.0,0.0,0.0,0.0,0.0,0.0,0.0,0.0,0.0,0.0,0.0,0.0,0.0,0.0,0.0,0.0,0.0,0.0,0.0,0.0,0.0,0.0,0.0,0.0,0.0,0.0,0.0,0.0,0.0,0.0,0.0,0.0,0.0,1.5837,1.5517,1.6501,1.6505,1.54,1.5003,1.4158,0.0,0.0,0.0,0.0,0.0,0.0,0.0,0.0,0.0,0.0,0.0,0.0,0.0,0.0,0.0,0.0,0.0,0.0,0.0,0.0,0.0,0.0,0.0,0.0,0.0,0.0,0.0,0.0,0.0,0.0,0.0,0.0,0.0,0.0,0.0,0.0,0.0,0.0,0.0,0.0,0.0,0.0,0.0,0.0,0.0,0.0,0.0,0.0,0.0,0.0,0.0,0.0,0.0,0.0,0.0,0.0,0.0,0.0,0.0,0.0,0.0,0.0,0.0,0.0,0.0,0.0,0.0,0.0,0.0,0.0,0.0,0.0,0.0,0.0,0.0,0.0,0.0,0.0,0.0,0.0,0.0,0.0,0.0,0.0,0.0,0.0,0.0,0.0,0.0,0.0,0.0,0.0,0.0,0.0,0.0,0.0,0.0,0.0,0.0,0.0,0.0,0.0,0.0,0.0,0.0,0.0,0.0,0.0,1.6199,1.5529,1.6712,1.7129,1.6682,1.6658,1.5857,0.0,0.0,0.0,0.0,0.0,0.0,0.0,0.0,0.0,0.0,0.0,0.0,0.0,0.0,0.0,0.0,0.0,0.0,0.0,0.0,0.0,0.0,0.0,0.0,0.0,0.0,0.0,0.0,0.0,0.0,0.0,0.0,0.0,0.0,0.0,0.0,0.0,0.0,0.0,0.0,0.0,0.0,0.0,0.0,0.0,0.0,0.0,0.0,0.0,0.0,0.0,0.0,0.0,0.0,0.0,0.0,0.0,0.0,0.0,0.0,0.0,0.0,0.0,0.0,0.0,0.0,0.0,0.0,0.0,0.0,0.0,0.0,0.0,0.0,0.0,0.0,0.0,0.0,0.0,0.0,0.0,0.0,0.0,0.0,0.0,0.0,0.0,0.0,0.0,0.0,0.0,0.0,0.0,0.0,0.0,0.0,0.0,0.0,0.0,0.0,0.0,0.0,0.0,0.0,0.0,0.0,0.0,0.0,1.5469,1.5517,1.6181,1.6483,1.6368,1.6374,1.6084,0.0,0.0,0.0,0.0,0.0,0.0,0.0,0.0,0.0,0.0,0.0,0.0,0.0,0.0,0.0,0.0,0.0,0.0,0.0,0.0,0.0,0.0,0.0,0.0,0.0,0.0,0.0,0.0,0.0,0.0,0.0,0.0,0.0,0.0,0.0,0.0,0.0,0.0,0.0,0.0,0.0,0.0,0.0,0.0,0.0,0.0,0.0,0.0,1.4992,0.0,0.0,0.0,0.0,0.0,0.0,0.0,0.0,0.0,0.0,0.0,0.0,0.0,0.0,0.0,0.0,0.0,0.0,0.0,0.0,0.0,0.0,0.0,0.0,0.0,0.0,0.0,0.0,0.0,0.0,0.0,0.0,0.0,0.0,0.0,0.0,0.0,0.0,0.0,0.0,0.0,0.0,0.0,0.0,0.0,0.0,0.0,0.0,0.0,0.0,0.0,0.0,0.0,0.0,0.0,0.0,0.0,0.0,0.0,1.5722,1.5879,1.6392,1.6598,1.6483,1.635,1.6103,0.0,0.0,0.0,0.0,0.0,0.0,0.0,0.0,0.0,0.0,0.0,0.0,0.0,0.0,0.0,0.0,0.0,0.0,0.0,0.0,0.0,0.0,0.0,0.0,0.0,0.0,0.0,0.0,0.0,0.0,0.0,0.0,0.0,0.0,0.0,0.0,0.0,0.0,0.0,0.0,0.0,0.0,0.0,0.0,0.0,0.0,0.0,0.0,0.0,0.0,0.0,0.0,0.0,0.0,0.0,0.0,0.0,0.0,0.0,0.0,0.0,0.0,0.0,0.0,0.0,0.0,0.0,0.0,0.0,0.0,0.0,0.0,0.0,0.0,0.0,0.0,0.0,0.0,0.0,0.0,0.0,0.0,0.0,0.0,0.0,0.0,0.0,0.0,0.0,0.0,0.0,0.0,0.0,0.0,0.0,0.0,0.0,0.0,0.0,0.0,0.0,0.0,0.0,0.0,0.0,0.0,0.0,1.5914,1.6223,1.6356,1.6797,1.693,1.6706,1.6423,1.6054,1.559,0.0,0.0,0.0,0.0,0.0,0.0,0.0,0.0,0.0,0.0,0.0,0.0,0.0,0.0,0.0,0.0,0.0,0.0,0.0,0.0,0.0,0.0,0.0,0.0,0.0,0.0,0.0,0.0,0.0,0.0,0.0,0.0,0.0,0.0,0.0,0.0,0.0,0.0,1.849,1.8325,0.0,0.0,0.0,0.0,0.0,0.0,0.0,0.0,1.5342,0.0,0.0,0.0,0.0,0.0,0.0,0.0,0.0,0.0,0.0,0.0,0.0,0.0,0.0,0.0,0.0,0.0,0.0,0.0,0.0,0.0,0.0,0.0,0.0,0.0,0.0,0.0,0.0,0.0,0.0,0.0,0.0,0.0,0.0,0.0,0.0,0.0,0.0,0.0,0.0,0.0,0.0,0.0,0.0,0.0,0.0,0.0,0.0,0.0,0.0,0.0,0.0,0.0,0.0,0.0,0.0,1.6968,1.61,1.5952,1.6616,1.6718,1.6742,1.6694,1.6429,1.6139,1.5849,0.0,0.0,0.0,0.0,0.0,0.0,0.0,0.0,0.0,0.0,0.0,0.0,0.0,0.0,0.0,0.0,0.0,0.0,0.0,0.0,0.0,0.0,0.0,0.0,0.0,0.0,0.0,0.0,0.0,0.0,0.0,0.0,0.0,0.0,0.0,0.0,0.0,0.0,0.0,1.9907,1.9548,0.0,0.0,0.0,0.0,0.0,0.0,0.0,0.0,1.559,0.0,0.0,0.0,0.0,0.0,0.0,0.0,0.0,0.0,0.0,0.0,0.0,0.0,0.0,0.0,0.0,0.0,0.0,0.0,0.0,0.0,0.0,0.0,0.0,0.0,0.0,0.0,0.0,0.0,0.0,0.0,0.0,0.0,0.0,0.0,0.0,0.0,0.0,0.0,0.0,0.0,0.0,0.0,0.0,0.0,0.0,0.0,0.0,0.0,0.0,0.0,0.0,0.0,0.0,0.0,1.6561,1.6271,1.6441,1.7074,1.6972,1.6905,1.6893,1.6501,1.6157,0.0,0.0,0.0,0.0,0.0,0.0,0.0,0.0,0.0,0.0,0.0,0.0,0.0,0.0,0.0,0.0,0.0,0.0,0.0,0.0,0.0,0.0,0.0,0.0,0.0,0.0,0.0,0.0,0.0,0.0,0.0,0.0,0.0,0.0,0.0,0.0,0.0,0.0,0.0,0.0,2.076,2.0544,1.9679,0.0,0.0,0.0,0.0,0.0,0.0,1.5674,1.5632,0.0,0.0,0.0,0.0,0.0,0.0,0.0,0.0,0.0,0.0,0.0,0.0,0.0,0.0,0.0,0.0,0.0,0.0,0.0,0.0,0.0,0.0,0.0,0.0,0.0,0.0,0.0,0.0,0.0,0.0,0.0,0.0,0.0,0.0,0.0,0.0,0.0,0.0,0.0,0.0,0.0,0.0,0.0,0.0,0.0,0.0,0.0,0.0,0.0,0.0,0.0,0.0,0.0,0.0,0.0,1.6209,1.6423,1.6821,1.7364,1.7201,1.7117,1.7159,1.6646,1.6235,0.0,0.0,0.0,0.0,0.0,0.0,0.0,0.0,0.0,0.0,0.0,0.0,0.0,0.0,0.0,0.0,0.0,0.0,0.0,0.0,0.0,0.0,0.0,0.0,0.0,0.0,0.0,0.0,0.0,0.0,0.0,0.0,0.0,0.0,0.0,0.0,0.0,0.0,0.0,0.0,0.0,2.1703,2.0666,1.9827,0.0,0.0,0.0,0.0,1.6168,1.5966,0.0,0.0,0.0,0.0,0.0,0.0,0.0,0.0,0.0,0.0,0.0,0.0,0.0,0.0,0.0,0.0,0.0,0.0,0.0,0.0,0.0,0.0,0.0,0.0,0.0,0.0,0.0,0.0,0.0,0.0,0.0,0.0,0.0,0.0,0.0,0.0,0.0,0.0,0.0,0.0,0.0,0.0,0.0,0.0,0.0,0.0,0.0,0.0,0.0,0.0,0.0,0.0,0.0,0.0,0.0,0.0,1.7008,1.6336,1.6356,1.7092,1.7105,1.7207,1.7418,1.693,1.6525,0.0,0.0,0.0,0.0,0.0,0.0,0.0,0.0,0.0,0.0,0.0,0.0,0.0,0.0,0.0,0.0,0.0,0.0,0.0,0.0,0.0,0.0,0.0,0.0,0.0,0.0,0.0,0.0,0.0,0.0,0.0,0.0,0.0,0.0,0.0,0.0,0.0,0.0,0.0,0.0,0.0,2.3678,2.1688,2.1463,2.0879,0.0,0.0,1.7114,1.7371,1.6913,0.0,0.0,0.0,0.0,0.0,0.0,0.0,0.0,0.0,0.0,0.0,0.0,0.0,0.0,0.0,0.0,0.0,0.0,0.0,0.0,0.0,0.0,0.0,0.0,0.0,0.0,0.0,0.0,0.0,0.0,0.0,0.0,0.0,0.0,0.0,0.0,0.0,0.0,0.0,0.0,0.0,0.0,0.0,0.0,0.0,0.0,0.0,0.0,0.0,0.0,0.0,0.0,0.0,0.0,0.0,1.8017,1.762,1.7574,1.7546,1.7566,1.7528,1.7422,1.7032,1.6664,1.6266,0.0,0.0,0.0,0.0,0.0,0.0,0.0,0.0,0.0,0.0,0.0,0.0,0.0,0.0,0.0,0.0,0.0,0.0,0.0,0.0,0.0,0.0,0.0,0.0,0.0,0.0,0.0,0.0,0.0,0.0,0.0,0.0,0.0,0.0,0.0,0.0,0.0,0.0,0.0,0.0,0.0,0.0,2.2918,2.247,0.0,0.0,0.0,1.9271,1.9565,0.0,0.0,0.0,0.0,0.0,0.0,0.0,0.0,0.0,0.0,0.0,0.0,0.0,0.0,0.0,0.0,0.0,0.0,0.0,0.0,0.0,0.0,0.0,0.0,0.0,0.0,0.0,0.0,0.0,0.0,0.0,0.0,0.0,0.0,0.0,0.0,0.0,0.0,0.0,0.0,0.0,0.0,0.0,0.0,0.0,0.0,0.0,0.0,0.0,0.0,0.0,0.0,0.0,0.0,0.0,0.0,0.0,1.7988,1.8487,1.8554,1.8159,1.813,1.788,1.7353,1.6959,0.0,0.0,0.0,0.0,0.0,0.0,0.0,0.0,0.0,0.0,0.0,0.0,0.0,0.0,0.0,0.0,0.0,0.0,0.0,0.0,0.0,0.0,0.0,0.0,0.0,0.0,0.0,2.0897,0.0,0.0,0.0,0.0,0.0,0.0,0.0,0.0,0.0,0.0,0.0,0.0,0.0,0.0,2.447,2.3981,2.3606,2.3307,0.0,0.0,2.1168,2.1563,2.0074,1.8817,0.0,0.0,0.0,0.0,0.0,0.0,0.0,0.0,0.0,0.0,0.0,0.0,0.0,0.0,0.0,0.0,0.0,0.0,0.0,0.0,0.0,0.0,0.0,0.0,0.0,0.0,0.0,0.0,0.0,0.0,0.0,0.0,0.0,0.0,0.0,0.0,0.0,0.0,0.0,0.0,0.0,0.0,0.0,0.0,0.0,0.0,0.0,0.0,0.0,0.0,0.0,0.0,0.0,0.0,0.0,1.8082,1.8439,1.8697,1.8716,1.8744,1.8822,1.8975,1.8485,1.771,0.0,0.0,0.0,0.0,0.0,0.0,0.0,0.0,0.0,0.0,0.0,0.0,0.0,0.0,0.0,0.0,0.0,0.0,0.0,0.0,0.0,0.0,0.0,0.0,0.0,0.0,0.0,0.0,0.0,0.0,0.0,0.0,0.0,0.0,0.0,0.0,0.0,0.0,0.0,0.0,0.0,2.5547,2.4684,2.5147,2.5429,0.0,0.0,2.233,2.272,2.1586,2.0476,2.0051,0.0,0.0,0.0,0.0,0.0,0.0,0.0,0.0,0.0,0.0,0.0,0.0,0.0,0.0,0.0,0.0,0.0,0.0,0.0,0.0,0.0,0.0,0.0,0.0,0.0,0.0,0.0,0.0,0.0,0.0,0.0,0.0,0.0,0.0,0.0,0.0,0.0,0.0,0.0,0.0,0.0,0.0,0.0,0.0,0.0,0.0,0.0,0.0,0.0,0.0,0.0,0.0,0.0,1.9323,1.9718,1.9777,1.9725,1.9559,1.8986,1.8636,1.8546,1.8317,1.8039,0.0,0.0,0.0,0.0,0.0,0.0,0.0,0.0,0.0,0.0,0.0,0.0,0.0,0.0,0.0,0.0,0.0,0.0,0.0,0.0,0.0,0.0,0.0,0.0,0.0,0.0,0.0,0.0,2.1595,2.1687,2.1687,0.0,0.0,0.0,0.0,0.0,0.0,0.0,0.0,0.0,0.0,2.5301,2.541,2.5728,0.0,0.0,2.5228,2.4641,2.4801,2.3299,2.1906,2.1487,2.0224,0.0,0.0,0.0,0.0,0.0,0.0,0.0,0.0,0.0,0.0,0.0,0.0,0.0,0.0,0.0,0.0,0.0,0.0,0.0,0.0,0.0,0.0,0.0,0.0,0.0,0.0,0.0,0.0,0.0,0.0,0.0,0.0,0.0,0.0,0.0,0.0,0.0,0.0,0.0,0.0,0.0,0.0,0.0,0.0,0.0,0.0,0.0,0.0,0.0,0.0,0.0,0.0,1.9937,2.0535,2.0718,2.074,2.04,1.9768,1.93,1.9048,1.8964,1.8885,0.0,0.0,0.0,0.0,0.0,0.0,0.0,0.0,0.0,0.0,0.0,0.0,0.0,0.0,0.0,0.0,0.0,0.0,0.0,0.0,0.0,0.0,0.0,0.0,0.0,0.0,0.0,0.0,2.1874,2.2132,2.2299,0.0,0.0,0.0,0.0,0.0,0.0,0.0,0.0,0.0,0.0,2.5456,2.5893,2.5961,2.6059,2.6407,2.6002,2.5745,2.5975,2.4567,2.3311,2.288,0.0,0.0,0.0,0.0,0.0,0.0,0.0,0.0,0.0,0.0,0.0,0.0,0.0,0.0,0.0,0.0,0.0,0.0,0.0,0.0,0.0,0.0,0.0,0.0,0.0,0.0,0.0,0.0,0.0,0.0,2.2097,0.0,0.0,0.0,0.0,0.0,0.0,0.0,0.0,0.0,0.0,0.0,0.0,0.0,0.0,0.0,0.0,0.0,0.0,0.0,0.0,0.0,0.0,1.994,2.0146,2.0997,2.1404,2.1244,2.1244,2.1171,2.1162,2.0904,2.0372,1.9674,0.0,0.0,0.0,0.0,0.0,0.0,0.0,0.0,0.0,0.0,0.0,0.0,0.0,0.0,0.0,0.0,0.0,0.0,0.0,0.0,0.0,0.0,0.0,0.0,0.0,0.0,2.182,2.2353,2.3003,0.0,0.0,0.0,0.0,0.0,0.0,0.0,0.0,0.0,0.0,2.5879,2.6299,2.5954,2.5975,2.6074,2.603,2.5396,2.5157,2.5901,2.5298,2.4638,0.0,0.0,0.0,0.0,0.0,0.0,0.0,0.0,0.0,0.0,0.0,0.0,0.0,0.0,0.0,0.0,0.0,0.0,0.0,0.0,0.0,0.0,0.0,0.0,0.0,0.0,0.0,2.4712,2.4509,0.0,0.0,0.0,0.0,0.0,0.0,0.0,0.0,0.0,0.0,0.0,2.6068,2.5745,0.0,0.0,0.0,0.0,0.0,0.0,0.0,0.0,0.0,0.0,0.0,0.0,2.0552,2.1076,2.1151,2.1296,2.1488,2.0928,2.0798,2.1057,2.0998,2.0828,2.0583,0.0,0.0,0.0,0.0,0.0,0.0,0.0,0.0,0.0,0.0,0.0,0.0,0.0,0.0,0.0,0.0,0.0,0.0,0.0,0.0,0.0,0.0,0.0,0.0,0.0,2.2882,0.0,0.0,0.0,0.0,0.0,0.0,0.0,0.0,0.0,0.0,0.0,2.4565,2.5404,2.5752,2.6084,2.6507,2.7163,2.7418,0.0,0.0,0.0,0.0,0.0,0.0,0.0,0.0,0.0,0.0,0.0,0.0,0.0,0.0,2.4437,2.3265,2.273,2.2472,2.2674,0.0,0.0,0.0,0.0,0.0,0.0,0.0,0.0,0.0,0.0,0.0,0.0,0.0,0.0,2.5914,0.0,2.5524,0.0,0.0,0.0,0.0,0.0,0.0,0.0,0.0,2.6579,2.6954,2.7262,2.6752,2.6489,0.0,2.5872,2.494,0.0,0.0,0.0,0.0,0.0,0.0,0.0,0.0,2.0935,2.1352,2.1275,2.1365,2.1598,2.1048,2.0916,2.123,2.123,2.123,2.1221,2.1087,2.0997,0.0,0.0,0.0,0.0,0.0,0.0,0.0,0.0,0.0,0.0,0.0,0.0,0.0,0.0,0.0,0.0,0.0,0.0,0.0,0.0,0.0,0.0,0.0,2.3517,0.0,0.0,0.0,0.0,0.0,0.0,0.0,0.0,0.0,2.5292,2.5357,2.5897,2.6909,2.6779,2.6754,2.7303,0.0,0.0,0.0,0.0,0.0,0.0,0.0,2.6456,2.6304,2.6046,2.5791,2.5607,2.5903,2.6186,2.6039,0.0,0.0,2.4789,2.4271,2.3996,2.3996,2.4097,2.4097,2.3849,2.3996,2.3895,0.0,0.0,0.0,0.0,0.0,0.0,0.0,0.0,2.6189,2.6003,0.0,2.5183,0.0,0.0,0.0,0.0,0.0,2.63,0.0,0.0,2.8368,2.9066,2.9354,2.8435,2.8034,2.8045,2.7945,2.7121,2.5606,2.3998,0.0,0.0,0.0,0.0,0.0,0.0,2.1087,2.1141,2.1588,2.1776,2.1785,2.1776,2.1776,2.1776,2.1776,2.1776,2.1785,2.1365,2.1132,2.1132,2.1123,0.0,0.0,0.0,0.0,0.0,0.0,0.0,0.0,0.0,0.0,0.0,0.0,0.0,0.0,0.0,0.0,0.0,0.0,0.0,0.0,2.3833,0.0,0.0,0.0,0.0,0.0,0.0,0.0,0.0,0.0,0.0,2.654,2.7745,2.8981,2.9385,0.0,0.0,0.0,0.0,2.739,2.7784,2.7511,2.7562,2.8338,2.8387,2.8247,2.7905,0.0,0.0,2.6261,2.6369,2.6542,2.612,2.6404,2.66,2.6535,2.6159,2.5957,2.5947,2.5663,2.547,2.5433,2.528,2.4977,3.0162,0.0,0.0,0.0,0.0,2.9004,2.8663,2.8198,2.8198,2.7997,2.755,2.7631,0.0,0.0,0.0,0.0,0.0,0.0,2.8333,2.8462,2.8707,2.9055,2.9467,2.8844,2.8724,2.903,2.8025,2.7237,2.6768,2.5669,2.4155,2.2388,0.0,0.0,0.0,0.0,2.3008,2.2999,2.3149,2.3202,2.3202,2.3193,2.3193,2.3193,2.3193,2.3193,2.3193,2.3062,2.3008,2.3008,2.3008,0.0,0.0,0.0,0.0,0.0,0.0,0.0,0.0,0.0,0.0,0.0,0.0,0.0,0.0,0.0,0.0,0.0,0.0,0.0,2.4551,2.5031,2.558,0.0,0.0,0.0,0.0,0.0,0.0,0.0,0.0,0.0,2.851,2.8648,2.895,0.0,0.0,2.9149,2.9149,2.9511,2.9536,2.8731,2.8824,0.0,2.8026,2.7663,2.7573,2.7713,2.7741,2.7614,2.729,2.7327,2.7366,2.7229,2.6862,2.6532,2.6508,2.6479,2.6425,2.6399,2.6307,2.6133,2.5911,2.5837,2.5571,3.1108,3.1043,3.0474,3.0165,2.9988,2.9807,2.9429,2.8979,2.9163,2.8979,2.8571,2.8757,2.8466,2.7846,2.8524,0.0,0.0,0.0,2.8803,2.8803,2.8803,2.8957,2.915,2.8702,2.8528,2.8582,2.773,2.713,2.6758,2.6376,2.5306,2.3701,0.0,0.0,2.3212,2.3584,2.38,2.38,2.38,2.38,2.38,2.38,2.38,2.38,2.38,2.38,2.38,2.38,2.38,2.38,2.38,2.38,0.0,0.0,0.0,0.0,0.0,0.0,0.0,0.0,0.0,0.0,0.0,2.4627,2.4627,0.0,0.0,0.0,2.4627,2.4807,2.5253,2.5675,0.0,0.0,0.0,0.0,0.0,0.0,0.0,2.7441,2.8304,2.8988,2.9308,2.9322,2.9577,3.0299,2.9844,2.9527,2.9722,0.0,3.0113,2.946,2.9829,2.9985,2.9377,2.9087,2.8855,2.8524,2.8476,2.8134,2.7482,2.7512,2.7662,2.7652,2.7442,2.7292,2.7471,2.7548,2.7376,2.6973,2.7069,2.7142,2.6726,2.6636,2.6343,3.14,3.1629,3.0229,2.9725,2.9785,2.9322,2.8979,2.8847,2.9226,2.9172,2.8814,2.8771,2.8749,2.8749,2.8749,0.0,2.8803,2.8803,2.8803,2.8803,2.8803,2.8803,2.8781,2.8276,2.7762,2.7381,2.7293,2.6813,2.6026,2.6376,2.6033,2.5009,2.503,2.4625,2.393,2.393,2.3973,2.3973,2.3973,2.3973,2.3973,2.3973,2.3973,2.3963,2.3973,2.3973,2.3973,2.3973,2.3973,2.3973,2.3973,2.3963,2.3963,0.0,0.0,0.0,0.0,0.0,0.0,0.0,0.0,0.0,0.0,0.0,0.0,0.0,0.0,0.0,2.5895,0.0,2.5895,2.5937,0.0,0.0,0.0,2.6569,2.6652,2.7383,2.7933,2.7933,0.0,0.0,2.9292,2.9725,3.0408,3.1439,3.0345,2.9617,3.0054,2.9754,2.9617,2.993,3.0457,3.095,3.0944,3.1105,3.0737,2.9742,2.9721,2.9089,2.7698,2.7626,2.7869,2.7883,2.8114,2.8369,2.8862,2.8775,2.8613,2.7482,2.7914,2.8256,2.7693,2.7603,2.7222,3.3264,3.324,3.2078,3.1011,3.0079,2.96,2.9157,2.8825,2.8924,2.8902,2.8771,2.8375,2.8211,2.8211,2.8211,2.8418,2.8803,2.8803,2.8803,2.8803,2.8803,2.8803,2.8771,2.8254,2.7936,2.7783,2.7097,2.6682,2.641,2.6201,2.5931,2.5718,2.6011,2.5658,2.469,2.5158,2.5411,2.5411,2.5422,2.5422,2.5369,2.5422,2.538,2.5411,2.538,2.5369,2.5411,2.5422,2.5411,2.5411,2.5411,2.5422,2.5422,2.5273,0.0,0.0,0.0,0.0,0.0,0.0,0.0,0.0,0.0,2.5895,2.5895,0.0,2.5895,0.0,2.5895,2.5895,2.5895,2.6166,0.0,0.0,2.6981,2.7307,2.7938,2.7962,2.8042,2.8323,2.8539,2.8847,2.9244,2.9412,2.9731,3.036,3.0179,2.9974,3.0093,3.001,2.9834,2.9656,3.0056,3.0101,2.9617,2.9679,2.9908,2.9545,2.9805,2.9904,2.9457,2.9492,2.9473,2.9081,2.8605,2.8233,2.7991,2.7858,2.796,2.7969,2.8496,2.8652,2.7896,2.799,2.7848,3.3299,3.3419,3.2421,3.1653,3.1082,3.0616,3.0308,3.0022,2.976,2.9669,2.959,2.9088,2.8828,2.8828,2.8828,2.9145,2.9646,2.9657,2.9568,2.9463,2.9417,2.9198,2.8771,2.8265,2.7882,2.7687,2.6933,2.6475,2.631,2.6256,2.6114,2.5928,2.6583,2.6476,2.5723,2.6259,2.6529,2.6529,2.6332,2.6114,2.5906,2.5895,2.5895,2.5895,2.5895,2.5895,2.5895,2.5895,2.5895,2.5895,2.5895,2.5895,2.5895,2.5502,2.5251,0.0,0.0,0.0,0.0,0.0,0.0,0.0,0.0,0.0,0.0,0.0,2.5895,2.5895,2.6052,2.6177,2.6177,2.6528,2.6899,2.7174,2.74,2.7696,2.8203,2.8431,2.8538,2.851,2.8961,2.919,2.8988,2.9401,2.9739,2.9776,2.9772,2.9788,2.973,2.9737,2.9654,2.9415,2.9813,2.9977,2.9347,2.9702,2.9998,2.9825,3.0151,3.0315,2.9686,2.9716,2.9686,2.9178,2.8867,2.8769,2.8646,2.8634,2.8763,2.8976,2.9305,2.9147,2.8327,2.8324,2.8169,3.2932,3.3201,3.2309,3.2196,3.254,3.2062,3.1743,3.1444,3.0841,3.0577,3.0481,2.9983,2.9834,2.9834,2.9792,3.0157,3.0697,3.0709,3.0604,3.0384,3.0384,2.992,2.9041,2.8519,2.7988,2.7513,2.6963,2.648,2.6085,2.643,2.6366,2.6048,2.6933,2.7162,2.6802,2.7261,2.7413,2.7228,2.6791,2.6431,2.6005,2.5994,2.5994,2.5994,2.5928,2.5895,2.5895,2.5895,2.5895,2.5895,2.5895,2.5895,2.5884,2.512,2.4887,0.0,2.4583,0.0,0.0,0.0,0.0,0.0,0.0,0.0,0.0,2.626,2.6302,2.6279,2.664,2.6835,2.6835,2.7244,2.7539,2.7539,2.7926,2.8191,2.8231,2.9,2.9302,2.8816,2.9639,2.9871,2.8986,2.969,3.0063,2.9675,2.9622,2.9601,2.9439,2.9306,2.9196,2.9208,2.9581,2.9779,2.9899,3.0368,3.0603,3.03,3.0545,3.0452,2.9316,2.9347,2.9341,2.8881,2.9035,2.9378,2.9833,2.9815,2.9815,2.9714,2.9726,2.9545,2.892,2.8821,2.8436,3.4822,3.4804,3.4152,3.3933,3.3929,3.3444,3.2311,3.0829,3.0301,2.9846,2.9474,2.9366,2.9318,2.9318,2.9318,2.9834,3.0697,3.0709,3.0953,3.1311,3.1356,3.1009,3.0319,2.9843,2.9348,2.8769,2.7647,2.7031,2.6962,2.6716,2.654,2.6475,2.7391,2.7816,2.7751,0.0,0.0,0.0,2.6639,2.654,2.6464,2.6453,2.6485,2.6485,2.6103,0.0,2.5895,2.5895,2.5895,2.5895,2.5895,0.0,0.0,0.0,0.0,0.0,0.0,0.0,0.0,0.0,0.0,0.0,2.843,2.8271,2.7988,2.8056,2.8231,2.8378,2.8497,2.8536,2.8536,2.8927,2.9238,2.9225,2.9588,2.9832,2.9871,3.0024,3.005,2.9986,3.0177,3.0254,3.0024,3.0177,3.0279,3.0165,3.0126,3.0126,3.0138,2.9342,2.8707,2.8679,2.8903,2.9044,2.9388,2.9984,3.0404,3.0286,3.0638,3.0842,3.0533,3.0121,2.9768,2.9253,2.9251,2.92,2.8907,2.8811,2.8911,2.8823,2.8823,2.885,2.9106,2.9469,2.9529,3.5116,0.0,3.4528,3.4397,0.0,3.3822,3.2849,3.1642,3.1104,3.0578,3.0104,3.0104,3.0104,3.0104,3.0104,3.0653,3.168,3.168,3.1759,3.1841,3.1853,3.1302,3.0313,2.9827,2.9467,2.9162,2.8219,2.794,2.8222,2.8268,2.8299,2.8407,2.9297,2.9676,2.9447,2.9732,2.889,2.6966,2.6966,2.6824,2.6584,2.6387,2.6387,2.6551,2.6157,0.0,0.0,0.0,0.0,0.0,0.0,0.0,0.0,2.6921,0.0,2.6955,2.7263,2.753,2.7767,2.8729,2.9395,2.9473,2.972,2.9517,2.876,2.8541,2.8558,2.8959,2.8929,2.9007,2.9319,2.9768,3.0012,3.0012,3.0165,3.0292,3.033,3.0582,3.062,3.0431,3.0872,3.1046,3.0393,3.0897,3.106,3.0822,3.0733,3.0733,3.0658,2.9973,2.9419,2.938,2.938,2.9479,2.9779,3.0288,3.0651,3.0687,3.1077,3.1279,3.1077,3.0567,2.9947,2.9499,2.9377,2.9187,2.8674,2.8736,2.8843,2.859,2.851,2.8582,2.8871,2.9112,2.9172,3.4842,3.441,3.4397,3.4397,3.4358,3.3809,3.3195,3.2502,0.0,0.0,0.0,3.1024,3.1024,3.1024,3.1024,3.1561,3.2529,3.2542,3.2429,3.2193,3.2205,3.1477,3.0231,2.9858,2.9663,2.9638,2.8982,2.9003,2.9662,2.9892,3.0043,3.0236,3.1031,3.1271,3.0886,3.0778,2.973,2.7876,2.7777,2.7543,2.7056,2.6688,2.6665,2.7034,2.6599,2.6332,2.6332,2.701,2.7418,2.7406,2.8079,2.8414,2.8414,2.796,2.7787,2.794,2.7966,2.8081,2.8499,2.9631,3.038,3.0504,3.056,3.0233,2.9276,2.8824,2.885,2.9376,2.9315,2.9464,2.9935,3.029,3.0478,3.0491,3.0568,3.0633,3.0671,3.1084,3.1209,3.0859,3.1542,3.1827,3.0859,3.1519,3.2023,3.1505,3.1381,3.1381,3.127,3.0696,3.0177,3.0177,3.0139,3.0266,3.0356,3.0753,3.1074,3.11,3.1434,3.1601,3.1163,3.0618,3.0088,2.9711,2.9574,2.9392,2.8961,2.9263,2.938,2.8922,2.8816,2.8803,2.8816,2.8749,2.8693,3.4476,3.4397,3.4397,3.4397,3.4358,3.3822,3.296,3.1889,3.1365,3.1065,3.1024,3.1024,3.1024,3.1024,3.1024,3.1326,3.1915,3.1928,3.2189,3.2591,3.2591,3.2213,3.1552,3.1474,3.1435,3.1358,3.0136,3.0074,3.0932,3.0382,3.0001,3.0128,3.056,3.0836,3.0685,3.0265,2.9917,2.9623,2.9635,2.9344,2.8858,2.8775,2.8775,2.881,2.8284,2.8028,2.8028,2.8159,2.8227,2.8227,2.8521,2.8573,2.8402,2.8077,2.7863,2.7851,2.8499,2.9,2.9261,3.0732,3.1516,3.1186,3.0726,3.0312,2.9989,3.033,3.0694,3.0954,3.0833,3.0981,3.1075,3.1088,3.1088,3.1164,3.1604,3.1936,3.1836,3.1936,3.1973,3.1863,3.2059,3.2169,3.1913,3.2059,3.2169,3.2059,3.195,3.2023,3.1827,3.106,3.0406,3.0292,3.0292,3.0292,3.0495,3.0823,3.1204,3.1189,3.132,3.1387,3.1307,3.0738,3.0356,3.0203,3.0165,3.0101,2.9986,3.0088,3.0088,2.9947,2.9909,2.9947,2.9922,2.9561,2.9118,3.4698,3.441,3.4397,3.4397,3.4358,3.3822,3.3104,3.2228,3.1692,3.1261,3.0999,3.1024,3.1024,3.1024,3.1024,3.13,3.1797,3.1797,3.1954,3.2176,3.2215,3.1889,3.1418,3.1378,3.1378,3.1314,3.0712,3.0804,3.1534,3.1493,3.1634,3.1937,3.216,3.2135,3.1807,3.1515,3.1291,3.0949,3.0045,2.9443,2.9215,2.8927,2.8915,2.9203,2.8675,2.8398,2.8426,2.8873,2.9108,2.9096,2.9768,2.9936,2.953,2.9426,2.9294,2.9083,2.93,2.9614,2.9936,3.0655,3.0842,3.0364,3.0086,2.972,2.9328,2.9821,3.0377,3.0758,3.0527,3.0459,3.0771,3.0812,3.0812,3.0812,3.1355,3.1694,3.1748,3.2042,3.2205,3.2205,3.2205,3.2205,3.2205,3.2205,3.2205,3.2205,3.2205,3.2205,3.2205,3.1703,3.132,3.1334,3.1334,3.132,3.132,3.1542,3.174,3.174,3.174,3.174,3.1703,3.1209,3.0846,3.0771,3.0771,3.062,3.0444,3.0582,3.062,3.033,3.0292,3.0292,3.0254,3.005,2.9561,3.4829,3.4397,3.4397,3.4397,3.4345,3.3822,3.326,3.2659,3.2045,3.1522,3.1026,3.1024,3.1024,3.1024,3.1024,3.13,3.1732,3.1667,3.168,3.1784,3.1667,3.1418,3.1013,3.1024,3.1117,3.1287,3.1117,3.147,3.2306,3.2489,3.2803,3.3326,3.3391,3.3143,3.2685,3.2555,3.228,3.1746,3.034,2.96,2.9588,2.9211,2.9199,2.9527,2.9224,2.8991,2.9018,2.9614,3.0024,3.0101,3.0885,3.1162,3.0712,3.0734,3.0632,3.0309,3.0151,3.0288,3.075,3.0554,3.0201,2.976,2.9583,2.9312,2.8931,2.9244,2.9706,3.0052,2.9814,2.9713,3.0106,3.0201,3.0201,3.0228,3.073,3.1083,3.1137,3.1504,3.1857,3.1924,3.2015,3.2042,3.2178,3.2205,3.2205,3.2205,3.2205,3.2205,3.2205,3.2205,3.2205,3.2205,3.2205,3.2132,3.2205,3.2169,3.2169,3.2205,3.2169,3.2132,3.2059,3.174,3.1468,3.1431,3.1431,3.1283,3.0897,3.1084,3.1246,3.0947,3.0897,3.0746,3.0582,3.0545,3.0088,3.445,3.4397,3.4397,3.4397,3.4332,3.3822,3.3247,3.2659,3.2045,3.1471,3.1013,3.1024,3.1024,3.1024,3.1024,3.1287,3.1719,3.13,3.1339,3.1693,3.13,3.1026,3.1024,3.1024,3.1522,3.2228,3.147,3.2032,3.3705,3.2581,3.2189,3.2712,3.2777,3.2777,3.2646,3.2163,3.1863,3.1797,3.1161,3.0825,3.0825,3.0773,3.0773,3.0812,3.0786,3.0785,3.0697,3.081,3.0973,3.1161,3.1384,3.1532,3.1449,3.1177,3.0949,3.0882,3.0855,3.1231,3.1843,3.1015,3.0323,3.0296,2.9767,2.9475,2.9407,2.9475,2.9529,2.9638,2.957,2.957,2.9583,2.9577,2.9564,2.9591,3.012,3.05,3.0513,3.054,3.0771,3.1327,3.1395,3.1572,3.2042,3.2178,3.2205,3.2205,3.2205,3.2205,3.2205,3.2205,3.2205,3.2205,3.2205,3.2205,3.2205,3.2205,3.2205,3.2205,3.2205,3.2205,3.2169,3.2132,3.2096,3.19,3.2009,3.1936,3.1936,3.2096,3.2023,3.1827,3.1753,3.179,3.1307,3.1108,3.0671,3.4397,3.4397,3.4397,3.4397,3.4332,3.3822,3.3247,3.2659,3.2045,3.1522,3.1013,3.1024,3.1024,3.1024,3.1024,3.113,3.1313,3.1091,3.1104,3.1313,3.1091,3.1024,3.1024,3.1024,3.1261,3.1666,3.1535,3.1967,3.2685,3.2855,3.2816,3.2751,3.3038,3.3051,3.2685,3.2084,3.1836,3.1964,3.1463,3.1235,3.1336,3.1248,3.1161,3.1198,3.1286,3.1373,3.1336,3.1373,3.141,3.1458,3.1349,3.1235,3.1257,3.0872,3.0491,3.0139,2.9774,2.9876,3.0548,2.9794,2.9333,2.9333,2.9461,2.9502,2.9543,2.9808,3.0025,2.9984,2.9719,2.9502,2.9488,2.9203,2.8953,2.9054,2.9482,2.9876,2.9896,3.0188,3.0527,3.0771,3.1083,3.1355,3.1639,3.2001,3.2191,3.2205,3.2205,3.2205,3.2205,3.2205,3.2205,3.2205,3.2205,3.2205,3.2205,3.2205,3.2205,3.2205,3.2205,3.2205,3.2205,3.2205,3.2169,3.2205,3.2205,3.2205,3.2132,3.2205,3.2205,3.2205,3.2205,3.2096,3.1813,3.1776,3.1408,3.4397,3.4397,3.4397,3.4397,3.4371,3.3992,3.3378,3.2685,3.2254,3.1666,3.1013,3.1024,3.1024,3.1024,3.1024,3.1052,3.1182,3.1052,3.1078,3.1182,3.1065,3.1024,3.1024,3.1024,3.1078,3.1235,3.147,3.1549,3.1784,3.3236,3.3565,3.304,3.3605,3.3632,3.287,3.241,3.2094,3.193,3.1558,3.1434,3.1572,3.1508,3.1421,3.1397,3.1522,3.1609,3.1609,3.1609,3.1633,3.1656,3.1267,3.1016,3.106,3.0661,3.0201,2.9754,2.9157,2.9102,2.9706,2.917,2.8912,2.9102,2.9509,2.9841,3.0011,3.0391,3.0703,3.0853,3.0337,3.0004,2.9686,2.9333,2.9102,2.9116,2.9509,2.9726,2.9828,3.0161,3.0486,3.0649,3.0893,3.1124,3.1341,3.1802,3.2205,3.2205,3.2205,3.2205,3.2205,3.2205,3.2205,3.2205,3.2205,3.2205,3.2205,3.2205,3.2205,3.2205,3.2205,3.2205,3.2205,3.2205,3.2205,3.2205,3.2205,3.2205,3.2205,3.2205,3.2205,3.2205,3.2205,3.2205,3.2096,3.2169,3.2009,3.4397,3.4397,3.4397,3.4397,3.4384,3.4306,3.3705,3.2738,3.2633,3.2006,3.1091,3.1052,3.1013,3.0999,3.1026,3.1287,3.1615,3.1209,3.1248,3.1575,3.1209,3.1024,3.1024,3.1024,3.1274,3.1666,3.1443,3.1273,3.1402,3.3528,3.4136,3.312,3.4245,3.4393,3.3475,3.3156,3.2676,3.1931,3.1665,3.1622,3.1659,3.1793,3.178,3.1646,3.1609,3.1633,3.1609,3.1609,3.1706,3.189,3.1285,3.106,3.1184,3.0717,3.0351,3.0283,2.9726,2.9659,3.0106,2.9672,2.955,3.0106,3.0133,3.0527,3.0812,3.1056,3.1355,3.1965,3.1422,3.0948,3.0513,3.0242,3.0174,3.0188,3.0283,3.031,3.0323,3.0323,3.0676,3.0961,3.0825,3.0893,3.1273,3.1802,3.2123,3.2178,3.2191,3.2191,3.2205,3.2205,3.2205,3.2205,3.2205,3.2205,3.2205,3.2205,3.2205,3.2205,3.2205,3.2205,3.2205,3.2205,3.2205,3.2205,3.2205,3.2205,3.2205,3.2205,3.2205,3.2205,3.2205,3.2205,3.2205,3.2205,3.2096,3.4397,3.4397,3.4397,3.4397,3.4319,3.3626,3.3273,3.3208,3.2411,3.1927,3.1653,3.1914,3.1679,3.0999,3.1365,3.1406,3.1287,3.1065,3.1104,3.1261,3.1078,3.1024,3.1024,3.1024,3.1363,3.2002,3.2199,3.254,3.3119,3.4405,3.4564,3.398,3.4259,3.4446,3.4246,3.3287,3.2899,3.3321,3.241,3.2041,3.2422,3.2276,3.2073,3.2,3.2,3.1977,3.1963,3.2,3.1838,3.1519,3.0951,3.0661,3.0663,3.0147,2.9998,3.0256,2.9482,2.9203,2.9631,2.9252,2.9007,2.9224,2.9604,2.9916,3.0215,3.0812,3.1382,3.1572,3.1843,3.1707,3.1463,3.0893,3.0405,3.0405,3.0418,3.0459,3.0405,3.0405,3.05,3.0703,3.0812,3.1219,3.1585,3.1721,3.1775,3.2096,3.1857,3.1843,3.2137,3.2205,3.2205,3.2205,3.2205,3.2205,3.2205,3.2205,3.2205,3.2205,3.2205,3.2205,3.2205,3.2205,3.2205,3.2205,3.2205,3.2205,3.2205,3.2205,3.2205,3.2205,3.2205,3.2205,3.2205,3.2205,3.2205,3.4397,3.4397,3.4397,3.4397,3.4306,3.3574,3.3365,3.3509,3.2751,3.2267,3.2241,3.2529,3.215,3.1431,3.1628,3.1497,3.1026,3.1024,3.1024,3.105,3.1182,3.1261,3.13,3.1457,3.186,3.2473,3.3093,3.3635,3.3993,3.478,3.4781,3.4086,3.4246,3.4486,3.4486,3.3456,3.3319,3.3715,3.2877,3.2492,3.2762,3.2422,3.2205,3.2218,3.2205,3.2205,3.2205,3.2205,3.1911,3.1327,3.073,3.0242,2.9835,2.9428,2.9374,2.9672,2.9062,2.8763,2.9075,2.8817,2.8682,2.8872,2.9238,2.957,2.9794,3.054,3.0948,3.1124,3.1531,3.1897,3.1802,3.1341,3.0988,3.0975,3.0988,3.0988,3.0975,3.1002,3.0907,3.088,3.1246,3.1639,3.1816,3.1694,3.1816,3.2191,3.1789,3.1802,3.211,3.2205,3.2205,3.2205,3.2205,3.2205,3.2205,3.2205,3.2205,3.2205,3.2205,3.2205,3.2205,3.2205,3.2205,3.2205,3.2205,3.2205,3.2205,3.2205,3.2205,3.2205,3.2205,3.2205,3.2205,3.2205,3.2205,3.4439,3.4481,3.4439,3.4592,3.4594,3.4397,3.4075,3.3775,3.3645,3.3225,3.266,3.2777,3.2555,3.1836,3.1889,3.1614,3.1065,3.1052,3.1039,3.1026,3.1484,3.1732,3.1758,3.2306,3.2725,3.3106,3.3847,3.398,3.3778,3.4781,3.4861,3.4119,3.4481,3.4561,3.3991,3.3898,3.3623,3.3403,3.3132,3.2803,3.2277,3.2223,3.2205,3.2205,3.2205,3.2205,3.2205,3.2205,3.187,3.126,3.0703,2.9849,2.8926,2.8682,2.8641,2.8722,2.8614,2.86,2.8627,2.8614,2.8831,2.9203,2.9448,2.9624,2.9957,3.0269,3.0405,3.0473,3.092,3.13,3.1436,3.168,3.1974,3.2178,3.2001,3.1988,3.2069,3.2151,3.1974,3.1504,3.1762,3.1884,3.1626,3.1694,3.2028,3.2137,3.2015,3.1924,3.2123,3.2137,3.2151,3.2205,3.2205,3.2205,3.2205,3.2205,3.2205,3.2205,3.2205,3.2205,3.2205,3.2205,3.2205,3.2205,3.2205,3.2205,3.2205,3.2205,3.2205,3.2205,3.2205,3.2205,3.2205,3.2205,3.2205,3.5277,3.5386,3.5883,3.6108,3.5998,3.5256,3.4903,3.5009,3.4778,3.3875,3.312,3.414,3.3501,3.1965,3.245,3.2267,3.1091,3.1365,3.1365,3.1143,3.1536,3.181,3.1967,3.2581,3.3291,3.4086,3.4848,3.5157,3.5049,3.5359,3.5345,3.5142,3.487,3.4924,3.5005,3.4355,3.3948,3.4177,3.3495,3.2993,3.2789,3.2409,3.2218,3.2205,3.2205,3.2205,3.2205,3.2205,3.1694,3.0771,3.0513,2.9862,2.8858,2.8587,2.8587,2.8587,2.8587,2.8587,2.8587,2.8587,2.8668,2.8831,2.8885,2.894,2.917,2.955,2.9754,2.9821,3.0323,3.0812,3.1232,3.1436,3.1748,3.2178,3.2205,3.2205,3.2205,3.2205,3.2137,3.2015,3.2074,3.2074,3.1897,3.1884,3.1802,3.2069,3.1599,3.1314,3.1938,3.1897,3.1789,3.2096,3.2137,3.2205,3.2205,3.2205,3.2205,3.2205,3.2205,3.2205,3.2205,3.2205,3.2205,3.2205,3.2205,3.2205,3.2205,3.2205,3.2205,3.2205,3.2205,3.2205,3.2205,3.2205,3.2205,3.5856,3.6188,3.6699,3.6894,3.6782,3.5789,3.5662,3.5979,3.5352,3.4558,3.4248,3.4928,3.4082,3.2317,3.2932,3.2448,3.1142,3.1378,3.1406,3.1352,3.1602,3.1889,3.2241,3.3054,3.39,3.4768,3.5426,3.571,3.571,3.571,3.5561,3.533,3.4965,3.4951,3.5316,3.4653,3.4382,3.4355,3.3731,3.3173,3.2789,3.2409,3.2205,3.2205,3.2205,3.2205,3.2205,3.2205,3.1734,3.0839,3.0351,2.9591,2.8695,2.8587,2.8587,2.8587,2.8587,2.8587,2.8587,2.8587,2.8587,2.8587,2.8587,2.86,2.8655,2.8994,2.9162,2.9224,2.9699,3.0323,3.0839,3.1192,3.1544,3.2151,3.2205,3.2205,3.2205,3.2205,3.2205,3.2178,3.2205,3.2205,3.2096,3.1974,3.1748,3.2015,3.1572,3.1205,3.1924,3.1884,3.2015,3.2096,3.2164,3.2205,3.2205,3.2205,3.2205,3.2205,3.2205,3.2205,3.2205,3.2205,3.2205,3.2205,3.2205,3.2205,3.2205,3.2205,3.2205,3.2205,3.2205,3.2205,3.2205,3.2205,3.2205,3.6241,3.6919,3.7049,3.7151,3.708,3.642,3.641,3.6648,3.5808,3.5386,3.5451,3.5363,3.4358,3.3237,3.3224,3.2565,3.1303,3.1399,3.1673,3.1833,3.2018,3.2293,3.3054,3.3781,3.4527,3.5292,3.5615,3.571,3.571,3.571,3.5398,3.5019,3.4978,3.4856,3.4992,3.4856,3.4545,3.4043,3.3894,3.3311,3.2368,3.2232,3.2205,3.2205,3.2205,3.2205,3.2205,3.2205,3.1911,3.1232,3.0195,2.9319,2.8777,2.8627,2.8587,2.8587,2.8587,2.8587,2.8587,2.8587,2.8587,2.8587,2.8587,2.8587,2.8614,2.8668,2.8709,2.8722,2.9143,2.9686,3.0296,3.073,3.1314,3.2015,3.2151,3.2205,3.2205,3.2205,3.2205,3.2205,3.2205,3.2205,3.2205,3.2151,3.2164,3.2151,3.2042,3.1924,3.2083,3.2069,3.2151,3.2191,3.2205,3.2205,3.2205,3.2205,3.2205,3.2205,3.2205,3.2205,3.2205,3.2205,3.2205,3.2205,3.2205,3.2205,3.2205,3.2205,3.2205,3.2205,3.2205,3.2205,3.2205,3.2205,3.2205,3.7063,3.791,3.8486,3.8745,3.8642,3.8024,3.747,3.7205,3.7389,3.6252,3.5243,3.6025,3.5216,3.3392,3.4006,3.3486,3.2388,3.2686,3.2861,3.2691,3.2669,3.3384,3.4179,3.4393,3.4834,3.5534,3.5669,3.571,3.571,3.571,3.5588,3.5453,3.5398,3.5425,3.5493,3.5452,3.4883,3.4057,3.3908,3.3338,3.2372,3.2205,3.2205,3.2205,3.2205,3.2205,3.2205,3.2205,3.1933,3.1273,3.0167,2.9461,2.9238,2.8885,2.8682,2.8641,2.8627,2.86,2.86,2.8587,2.8587,2.8587,2.8655,2.8587,2.8587,2.86,2.86,2.8614,2.8777,2.9102,2.9618,2.993,3.0486,3.1368,3.1857,3.2178,3.2205,3.2205,3.2205,3.2205,3.2205,3.2205,3.2205,3.2205,3.2205,3.2151,3.1924,3.1748,3.2042,3.1911,3.187,3.2137,3.2205,3.2205,3.2205,3.2205,3.2205,3.2205,3.2205,3.2205,3.2205,3.2205,3.2205,3.2205,3.2205,3.2205,3.2205,3.2205,3.2205,3.2205,3.2205,3.2205,3.2205,3.2205,3.2205,3.7933,3.8738,3.9207,3.9388,3.9298,3.8676,3.8293,3.8037,3.7674,3.6931,3.5842,3.6082,3.5581,3.4262,3.4754,3.4572,3.3729,3.4228,3.4501,3.4533,3.4301,3.4429,3.4727,3.4606,3.4914,3.5615,3.571,3.571,3.571,3.571,3.571,3.5696,3.571,3.571,3.5683,3.5683,3.5087,3.4124,3.388,3.3338,3.2291,3.2205,3.2205,3.2205,3.2205,3.2205,3.2205,3.2205,3.1911,3.13,3.0622,3.0167,2.9862,2.9564,2.9238,2.9007,2.8967,2.8872,2.8627,2.86,2.8755,2.8899,2.8999,2.9116,2.9252,2.9157,2.8967,2.898,2.8763,2.8926,2.9407,2.9699,3.0174,3.0839,3.145,3.1933,3.2178,3.2205,3.2205,3.2205,3.2205,3.2205,3.2205,3.2205,3.2205,3.2164,3.2001,3.2001,3.2096,3.1789,3.1707,3.2042,3.2205,3.2205,3.2205,3.2205,3.2205,3.2205,3.2205,3.2205,3.2137,3.2151,3.2205,3.2205,3.2205,3.2205,3.2205,3.2205,3.2205,3.2205,3.2205,3.2205,3.2205,3.2205,3.2205,3.8664,3.9388,3.9388,3.9388,3.9284,3.8781,3.8745,3.882,3.7614,3.6996,3.6884,3.607,3.5596,3.5307,3.5428,3.5456,3.5417,3.5595,3.6102,3.6234,3.6094,3.5788,3.5307,3.4765,3.5021,3.5588,3.571,3.571,3.571,3.571,3.5655,3.5601,3.5628,3.5655,3.5588,3.5642,3.5099,3.4246,3.3948,3.3393,3.2521,3.23,3.2205,3.2205,3.2205,3.2205,3.2205,3.2191,3.1974,3.1436,3.1327,3.0948,3.0513,3.0446,2.9998,2.9515,2.9285,2.9054,2.8695,2.86,2.8942,2.9449,2.9533,2.9853,3.0145,2.9871,2.9386,2.9405,2.8923,2.8885,2.9238,2.9862,3.0242,3.0589,3.1023,3.1659,3.1974,3.2164,3.2205,3.2205,3.2205,3.2205,3.2205,3.2205,3.2205,3.2205,3.2083,3.211,3.2164,3.2055,3.2015,3.2137,3.2205,3.2205,3.2205,3.2205,3.2205,3.2205,3.2205,3.2178,3.2001,3.2015,3.2151,3.2205,3.2205,3.2205,3.2205,3.2205,3.2205,3.2205,3.2205,3.2205,3.2205,3.2205,3.2205,3.8664,3.9388,3.9388,3.9388,3.9358,3.926,3.8975,3.8601,3.8182,3.7464,3.6806,3.6387,3.6003,3.5588,3.6145,3.6126,3.6032,3.6798,3.7383,3.7492,3.7631,3.7506,3.6864,3.567,3.5193,3.5654,3.575,3.571,3.575,3.5749,3.5439,3.5167,3.552,3.5493,3.5194,3.552,3.5344,3.4639,3.4165,3.3596,3.2969,3.2517,3.2314,3.2273,3.2232,3.2205,3.2205,3.2205,3.2151,3.1911,3.1558,3.126,3.1002,3.031,2.9849,2.9624,2.9149,2.879,2.8673,2.8806,2.915,3.0276,3.0182,2.9992,3.1062,3.0233,2.9664,2.9421,2.8949,2.8779,2.8872,2.938,2.9849,3.0392,3.1241,3.182,3.1695,3.1933,3.2196,3.2164,3.2164,3.2205,3.2205,3.2205,3.2205,3.2205,3.2205,3.2205,3.2205,3.2205,3.2205,3.2205,3.2205,3.2205,3.2205,3.2178,3.211,3.2123,3.2137,3.1843,3.1667,3.1911,3.211,3.2178,3.2205,3.2205,3.2205,3.2205,3.2205,3.2205,3.2205,3.2205,3.2205,3.2205,3.2205,3.901,3.9388,3.9388,3.9388,3.9388,3.9388,3.9215,3.8841,3.8512,3.8018,3.7419,3.709,3.6915,3.703,3.7447,3.7631,3.7972,3.8582,3.8657,3.8305,3.8167,3.8186,3.7937,3.6825,3.6189,3.6682,3.6427,3.6282,3.6256,3.6189,3.5946,3.5276,3.556,3.5534,3.5263,3.5573,3.5371,3.4856,3.4504,3.403,3.3498,3.32,3.2806,3.2599,3.2381,3.2205,3.2205,3.2205,3.2205,3.2137,3.187,3.1694,3.168,3.1132,3.0697,3.0317,2.9781,2.9687,2.9811,2.9799,3.0243,3.174,3.1514,3.1756,3.1997,3.1385,3.0568,2.9971,2.9396,2.8944,2.8692,2.9143,2.9659,3.0011,3.0877,3.1337,3.1436,3.1891,3.2105,3.1905,3.1734,3.1924,3.2055,3.2169,3.2241,3.2228,3.2205,3.2205,3.2205,3.2205,3.2205,3.2205,3.2205,3.2205,3.2205,3.2137,3.2001,3.2001,3.2015,3.1517,3.1083,3.1531,3.2083,3.2055,3.1988,3.2191,3.2205,3.2205,3.2205,3.2205,3.2205,3.2205,3.2205,3.2205,3.2205,3.9388,3.9388,3.9388,3.9388,3.9388,3.9388,3.9373,3.9305,3.8691,3.8332,3.8242,3.7738,3.7676,3.8306,3.8473,3.918,3.9661,3.9799,3.9161,3.8516,3.8337,3.8421,3.8277,3.7767,3.7623,3.8266,3.7525,3.7116,3.7039,3.6908,3.6484,3.5972,3.572,3.5874,3.5891,3.5919,3.5951,3.5645,3.5477,3.497,3.4388,3.4159,3.3789,3.3033,3.2667,3.2436,3.2409,3.2291,3.2273,3.2327,3.2273,3.2218,3.2191,3.2069,3.1857,3.1268,3.0719,3.064,3.082,3.1001,3.16,3.331,3.3184,3.3386,3.3366,3.2722,3.1781,3.0902,3.0178,2.9475,2.8983,2.9605,2.9867,3.0085,3.0535,3.1048,3.1355,3.2048,3.2446,3.1714,3.1811,3.2046,3.2118,3.2264,3.2272,3.2286,3.2264,3.2241,3.2277,3.2205,3.2241,3.2205,3.2205,3.2205,3.2205,3.2205,3.2042,3.1974,3.196,3.145,3.0948,3.1504,3.2042,3.1734,3.1707,3.2015,3.2205,3.2205,3.2205,3.2205,3.2205,3.2205,3.2205,3.2205,3.2205,3.9388,3.9388,3.9388,3.9388,3.9388,3.9388,3.9388,3.9305,3.8706,3.8392,3.8352,3.7921,3.7805,3.8016,3.8242,3.8568,3.887,3.8952,3.8785,3.8415,3.8415,3.8638,3.8835,3.8472,3.8762,3.9384,3.876,3.7988,3.7724,3.7281,3.7096,3.6821,3.63,3.6276,3.6712,3.6902,3.6978,3.694,3.6778,3.6269,3.5623,3.4992,3.4351,3.3366,3.3006,3.2935,3.2876,3.254,3.2436,3.283,3.2463,3.2296,3.2309,3.1995,3.1646,3.1484,3.1473,3.1415,3.1381,3.1786,3.2516,3.3111,3.3179,3.3667,3.416,3.3609,3.2658,3.193,3.0997,3.0192,3.012,3.0573,3.0971,3.1405,3.2139,3.2777,3.2082,3.2613,3.3332,3.2314,3.224,3.2269,3.2424,3.2548,3.2589,3.2741,3.2846,3.2739,3.2668,3.2503,3.23,3.2277,3.2205,3.2205,3.2205,3.2205,3.2151,3.2055,3.1924,3.1694,3.145,3.1789,3.1924,3.1612,3.1707,3.211,3.2205,3.2205,3.2205,3.2205,3.2205,3.2205,3.2205,3.2205,3.2205,3.9687,3.9403,3.9388,3.9388,3.9388,3.9388,3.9388,3.9343,3.9065,3.8987,3.8968,3.8817,3.8609,3.8554,3.8647,3.8527,3.8137,3.84,3.8108,3.7754,3.8154,3.8646,3.9093,3.8853,3.957,4.0063,3.9657,3.9052,3.8745,3.8413,3.7964,3.7618,3.7204,3.7135,3.7207,3.7461,3.7564,3.7702,3.7622,3.7287,3.6427,3.5617,3.4602,3.4137,3.3516,3.3475,3.3901,3.3154,3.3475,3.4339,3.3868,3.3607,3.3459,3.3185,3.2667,3.2417,3.2419,3.2717,3.2698,3.3235,3.3436,3.4364,3.4134,3.4227,3.4683,3.4334,3.365,3.2865,3.1818,3.096,3.094,3.1334,3.1323,3.1528,3.2647,3.2871,3.243,3.3245,3.3206,3.283,3.254,3.2573,3.2917,3.2974,3.3002,3.3122,3.3318,3.3241,3.3066,3.2832,3.2561,3.2538,3.2467,3.2277,3.2241,3.2205,3.2164,3.2083,3.2028,3.1748,3.1585,3.1775,3.1694,3.145,3.1707,3.2069,3.2205,3.2205,3.2205,3.2205,3.2205,3.2205,3.2205,3.2205,3.2205,4.0023,3.9388,3.9388,3.9388,3.9388,3.9388,3.9388,3.9388,3.9373,3.9472,3.9681,3.9541,3.9338,3.9154,3.8782,3.8269,3.74,3.7969,3.7677,3.7323,3.7969,3.8554,3.8862,3.9123,3.9659,4.0328,4.037,4.0196,3.9621,3.9196,3.8928,3.867,3.8444,3.8179,3.8061,3.8366,3.8018,3.8121,3.8238,3.8138,3.7268,3.6203,3.5366,3.5256,3.441,3.4571,3.5303,3.4363,3.4618,3.5257,3.5071,3.4448,3.4898,3.4709,3.4245,3.3785,3.3738,3.4313,3.4371,3.4736,3.4561,3.494,3.5323,3.5214,3.5168,3.5156,3.4912,3.3903,3.2913,3.2056,3.201,3.2087,3.1937,3.183,3.2492,3.3033,3.2779,3.3097,3.3665,3.3327,3.2851,3.2976,3.3407,3.2964,3.2867,3.324,3.3451,3.3575,3.3402,3.3192,3.2981,3.2925,3.2797,3.2444,3.2314,3.2205,3.2123,3.2001,3.2042,3.1924,3.168,3.1544,3.1422,3.1368,3.1517,3.1816,3.2028,3.2205,3.2205,3.2205,3.2205,3.2205,3.2205,3.2205,3.2205,4.0023,3.9388,3.9388,3.9388,3.9388,3.9388,3.9388,3.9388,3.9424,3.9517,3.9611,3.9284,3.9139,3.8886,3.8071,3.7322,3.7061,3.7246,3.7507,3.7384,3.8046,3.8662,3.9123,3.8769,3.9536,4.032,4.0489,4.0455,4.0359,3.9868,3.9768,3.9844,3.9253,3.8812,3.9743,3.9667,3.9619,3.9982,4.0065,3.9692,3.8876,3.7984,3.7307,3.6882,3.6603,3.659,3.6664,3.5766,3.5587,3.6108,3.5127,3.4448,3.4501,3.5019,3.5204,3.5157,3.5043,3.4735,3.4403,3.4987,3.5324,3.5137,3.5213,3.5706,3.5876,3.5707,3.5477,3.5287,3.4411,3.37,3.3408,3.4047,3.3702,3.3611,3.3912,3.365,3.3178,3.3716,3.4193,3.3758,3.3275,3.3618,3.4046,3.3312,3.2724,3.3188,3.3575,3.3782,3.3905,3.3822,3.3443,3.3422,3.3332,3.3009,3.261,3.248,3.2196,3.201,3.2042,3.2096,3.1857,3.1626,3.1422,3.1422,3.1531,3.1721,3.2069,3.2205,3.2205,3.2205,3.2205,3.2205,3.2205,3.2205,3.2205,4.0232,3.9933,3.9538,3.9388,3.9388,3.9388,3.9388,3.9424,3.9517,3.9435,3.9329,3.9199,3.8806,3.8207,3.7291,3.703,3.6999,3.703,3.7184,3.7523,3.7908,3.8185,3.8415,3.8877,3.9659,4.0274,4.0612,4.1135,4.1198,4.1352,4.1255,4.0999,4.0853,4.0797,4.1166,4.1232,4.0874,4.0535,4.0041,3.9657,3.9182,3.8569,3.8007,3.7717,3.7434,3.7718,3.7824,3.6793,3.6782,3.733,3.6553,3.5802,3.5939,3.609,3.6006,3.6022,3.6006,3.5764,3.5415,3.5753,3.5522,3.5352,3.5383,3.5783,3.6261,3.6261,3.603,3.6024,3.5353,3.4807,3.4393,3.4614,3.3953,3.3919,3.4813,3.3988,3.3555,3.4595,3.4919,3.4317,3.3808,3.4137,3.4211,3.3421,3.3212,3.3994,3.438,3.4629,3.4861,3.4993,3.4499,3.3905,3.3802,3.3596,3.3171,3.2868,3.2484,3.2258,3.211,3.2137,3.2042,3.1816,3.1517,3.1422,3.1531,3.1775,3.2096,3.2205,3.2205,3.2205,3.2205,3.2205,3.2205,3.2205,3.2205,4.0412,4.0337,3.9694,3.9388,3.9388,3.9388,3.9409,3.9481,3.9625,3.9567,3.9306,3.9096,3.8437,3.7614,3.7123,3.7107,3.7446,3.7138,3.7446,3.78,3.8031,3.8246,3.8723,3.9336,3.9905,4.077,4.0858,4.1447,4.2294,4.275,4.259,4.1925,4.2053,4.2166,4.2043,4.2063,4.1894,4.0885,4.0391,4.0005,3.9631,3.9124,3.8855,3.8619,3.8449,3.851,3.9138,3.7948,3.7968,3.8308,3.7333,3.6503,3.6765,3.6535,3.6398,3.6398,3.6398,3.6367,3.6122,3.6107,3.5707,3.5614,3.5752,3.6061,3.6353,3.6492,3.6492,3.6398,3.6054,3.5627,3.54,3.5026,3.4562,3.448,3.4846,3.3973,3.3506,3.4647,3.5255,3.4747,3.4346,3.438,3.4196,3.3435,3.3636,3.4684,3.5157,3.532,3.5355,3.5389,3.4759,3.3864,3.3493,3.326,3.2823,3.2556,3.2415,3.2514,3.2331,3.2191,3.2132,3.1784,3.1368,3.1382,3.149,3.1382,3.1409,3.1802,3.2205,3.2205,3.2205,3.2205,3.2205,3.2205,3.2205,4.0412,4.0337,3.9694,3.9388,3.9388,3.9388,3.9517,3.9646,3.9681,3.9884,3.9849,3.9066,3.8214,3.7646,3.7492,3.7461,3.7523,3.8108,3.8415,3.8877,3.9336,3.9198,3.9367,3.9536,4.0105,4.117,4.134,4.1817,4.2694,4.3602,4.3325,4.2771,4.291,4.2694,4.2602,4.2709,4.2386,4.1632,4.1204,4.0806,4.0469,4.0161,4.0111,4.0146,4.022,4.0324,4.0343,3.891,3.8205,3.8646,3.7292,3.6522,3.6661,3.6584,3.6492,3.6492,3.6492,3.6492,3.6415,3.6353,3.6091,3.5876,3.6061,3.6461,3.6645,3.6584,3.6553,3.663,3.6488,3.6114,3.5925,3.5737,3.5335,3.5059,3.5091,3.4846,3.4514,3.4927,3.5352,3.5044,3.4945,3.4993,3.4861,3.4211,3.3713,3.4662,3.478,3.4945,3.4786,3.4682,3.4212,3.3529,3.3001,3.2501,3.1905,3.1923,3.2581,3.2695,3.2508,3.239,3.2286,3.1842,3.1273,3.1273,3.1327,3.1029,3.0961,3.1653,3.2178,3.2205,3.2205,3.2205,3.2205,3.2205,3.2205,3.9798,3.9768,3.9529,3.9388,3.9409,3.9553,3.961,3.9732,3.993,3.9932,3.9791,3.889,3.8138,3.7769,3.7954,3.7861,3.7569,3.7707,3.8138,3.8185,3.8323,3.8446,3.8708,3.9459,3.9982,4.094,4.1417,4.2217,4.327,4.3917,4.4033,4.3771,4.3694,4.3833,4.3771,4.3294,4.2771,4.2217,4.1755,4.1232,4.0659,4.0489,4.0489,4.0489,4.0489,4.0489,4.029,3.9152,3.8692,3.8169,3.7169,3.6692,3.6492,3.6492,3.6522,3.6538,3.6553,3.6584,3.6584,3.6553,3.6353,3.6368,3.6676,3.7107,3.7153,3.743,3.74,3.7323,3.7107,3.6793,3.6319,3.6304,3.6085,3.5576,3.5367,3.54,3.5554,3.5776,3.5799,3.5627,3.5629,3.564,3.5479,3.5204,3.4728,3.4495,3.4514,3.4537,3.4508,3.4211,3.3805,3.3419,3.2934,3.264,3.2112,3.2502,3.2954,3.2845,3.2681,3.2678,3.2519,3.1774,3.1287,3.1273,3.1363,3.1314,3.1477,3.1884,3.2151,3.2191,3.2205,3.2205,3.2205,3.2205,3.2205,3.9388,3.9388,3.9388,3.9388,3.9424,3.9553,3.9696,3.9839,4.0066,4.0102,3.9721,3.9108,3.8569,3.8354,3.8539,3.8431,3.8077,3.8108,3.8154,3.8277,3.8338,3.8215,3.8662,3.94,4.0397,4.0981,4.1648,4.2571,4.387,4.3901,4.411,4.4387,4.4594,4.4533,4.4379,4.3947,4.3223,4.2371,4.1863,4.1232,4.0597,4.0489,4.0489,4.0489,4.0489,4.0489,4.0151,3.9259,3.86,3.8092,3.7369,3.6615,3.6492,3.6522,3.6599,3.6707,3.6799,3.6861,3.6999,3.6876,3.6815,3.6876,3.7415,3.7723,3.7938,3.8214,3.8092,3.7892,3.7784,3.76,3.703,3.7029,3.6828,3.6398,3.6114,3.6084,3.6228,3.6396,3.6368,3.6292,3.6263,3.6146,3.6122,3.5881,3.5285,3.4776,3.448,3.4651,3.486,3.4386,3.3649,3.3296,3.2963,3.28,3.2655,3.2649,3.2656,3.301,3.2931,3.3038,3.275,3.2003,3.1678,3.1833,3.1873,3.1796,3.1802,3.1924,3.2083,3.2205,3.2205,3.2205,3.2205,3.2205,3.2205,3.9388,3.9388,3.9388,3.9409,3.9424,3.9409,3.9625,3.996,4.0066,4.0196,4.029,3.9754,3.9431,3.9354,3.9385,3.9031,3.86,3.8954,3.9185,3.9031,3.9046,3.9598,3.9951,4.0351,4.0735,4.2155,4.2432,4.2879,4.4279,4.4225,4.4409,4.4526,4.461,4.4594,4.4548,4.3963,4.294,4.1848,4.1709,4.117,4.052,4.0336,4.0336,4.0336,4.0459,4.0489,4.0213,3.9351,3.8769,3.8508,3.7538,3.6923,3.683,3.6799,3.6999,3.743,3.7461,3.7769,3.8262,3.7784,3.76,3.76,3.8108,3.8462,3.8492,3.8567,3.8677,3.8539,3.8477,3.8462,3.8185,3.7877,3.7536,3.7273,3.6983,3.6922,3.7068,3.7172,3.7144,3.7137,3.6821,3.6559,3.6624,3.6476,3.5791,3.5219,3.4695,3.4684,3.5083,3.4629,3.3815,3.3231,3.2958,3.2569,3.2373,3.23,3.2376,3.2817,3.3038,3.3017,3.2974,3.2502,3.2352,3.2409,3.2206,3.1969,3.1857,3.1802,3.2028,3.2205,3.2205,3.2205,3.2205,3.2205,3.2205,3.9388,3.9388,3.9388,3.9496,3.9589,3.9747,3.9905,4.0031,4.0226,4.0401,4.0459,4.0197,3.9859,3.9721,3.9828,3.957,3.88,3.917,3.94,3.8921,3.9321,3.9536,3.9905,4.0382,4.0797,4.1247,4.1678,4.2402,4.3187,4.3778,4.4286,4.4471,4.461,4.461,4.4579,4.424,4.3602,4.2417,4.1801,4.1078,4.0013,3.9859,3.9874,3.989,4.0243,4.0443,4.0443,3.9524,3.9139,3.9016,3.8061,3.7723,3.7692,3.7692,3.7877,3.8138,3.8169,3.8246,3.86,3.8523,3.86,3.8585,3.8754,3.9136,3.9152,3.9598,3.9521,3.9259,3.9185,3.9016,3.8492,3.8354,3.8137,3.8137,3.7984,3.7984,3.8041,3.8089,3.81,3.8083,3.7859,3.7458,3.7344,3.7068,3.6478,3.5952,3.5457,3.5187,3.5402,3.4827,3.411,3.3393,3.2883,3.2382,3.2102,3.2314,3.2746,3.3328,3.3092,3.2692,3.2646,3.2739,3.2577,3.2378,3.2266,3.2164,3.2069,3.2015,3.211,3.2205,3.2205,3.2205,3.2205,3.2205,3.2205,3.9388,3.9388,3.9388,3.9517,3.9696,3.9839,3.996,4.0137,4.0351,4.0489,4.0489,4.0474,4.0274,4.0074,4.0151,4.0016,3.8985,3.9505,3.9508,3.8998,3.9536,3.9859,4.0074,4.0259,4.0735,4.0889,4.1324,4.1986,4.274,4.3331,4.3963,4.4471,4.461,4.461,4.4533,4.424,4.3479,4.2371,4.1632,4.094,3.9967,3.9536,3.9521,3.9628,3.989,4.0213,4.0228,3.9951,3.949,3.9321,3.9,3.8569,3.8554,3.8539,3.8646,3.8754,3.9108,3.9136,3.9416,3.9554,3.9554,3.9351,3.9644,3.9797,3.9874,4.0136,4.012,3.9985,3.9862,3.9598,3.9228,3.9075,3.8829,3.8862,3.8677,3.8646,3.8846,3.8862,3.9016,3.9,3.8831,3.8446,3.7984,3.7568,3.7149,3.6685,3.6252,3.6001,3.5733,3.5153,3.4666,3.4056,3.3431,3.3073,3.2775,3.2651,3.314,3.3794,3.3276,3.2503,3.2868,3.308,3.2704,3.2408,3.23,3.2228,3.2205,3.2205,3.2205,3.2205,3.2205,3.2205,3.2205,3.2205,3.2205,3.9388,3.9388,3.9388,3.9517,3.9681,3.9788,3.998,4.0296,4.0436,4.0489,4.0489,4.0489,4.0413,4.0459,4.0489,4.0136,3.9705,4.0166,3.9951,3.9831,4.009,4.029,4.0382,4.0474,4.072,4.1217,4.154,4.1678,4.254,4.33,4.3947,4.4456,4.4594,4.461,4.444,4.4117,4.33,4.2494,4.1909,4.1063,4.0028,3.9659,3.9598,3.9644,3.9767,4.009,4.0166,3.9997,3.9721,3.9428,3.9077,3.8785,3.8631,3.8585,3.8967,3.9459,4.009,4.0182,4.0243,4.0305,4.032,4.012,4.0305,4.0443,4.0428,4.0413,4.0366,4.0351,4.0274,4.0351,4.0305,3.9905,3.9521,3.9305,3.9029,3.9185,3.9444,3.9613,3.9828,3.9828,3.9644,3.9293,3.8662,3.82,3.7908,3.752,3.7117,3.6779,3.645,3.5863,3.5384,3.5034,3.4449,3.3965,3.3634,3.3196,3.3079,3.3561,3.2974,3.2408,3.2917,3.3115,3.2668,3.2372,3.235,3.2277,3.2205,3.2205,3.2205,3.2205,3.2205,3.2205,3.2205,3.2205,3.2205,3.9388,3.9388,3.9388,3.9604,3.9925,4.0141,4.0316,4.042,4.0489,4.0489,4.0489,4.0489,4.0489,4.0489,4.0489,4.0351,4.0336,4.0366,4.0351,4.0351,4.0366,4.0459,4.0489,4.052,4.0659,4.0751,4.097,4.1294,4.2048,4.2977,4.3947,4.4502,4.4594,4.461,4.4502,4.4409,4.367,4.2956,4.2402,4.1355,4.0428,4.0028,3.9813,3.9582,3.9844,4.0151,4.0213,4.0274,4.012,4.0059,3.9997,3.989,3.9955,3.9905,4.0105,4.0136,4.0397,4.0474,4.0489,4.0489,4.0489,4.0489,4.0489,4.0489,4.0489,4.0489,4.0489,4.0489,4.0489,4.0489,4.0489,4.0228,4.0028,3.9859,3.9674,3.9782,4.0013,4.0074,4.0274,4.0243,4.0074,3.9859,3.9244,3.8952,3.8659,3.8338,3.7954,3.7569,3.7136,3.6546,3.5988,3.5655,3.5335,3.4795,3.4143,3.3634,3.3366,3.3157,3.2739,3.2408,3.2538,3.2646,3.2444,3.2314,3.2277,3.2241,3.2205,3.2241,3.2408,3.2241,3.2241,3.2205,3.2205,3.2205,3.2205,3.9388,3.9424,3.9496,3.9747,4.0137,4.0401,4.0489,4.0489,4.0489,4.0489,4.0489,4.0489,4.0489,4.0489,4.0489,4.0474,4.0474,4.0459,4.0459,4.0459,4.0489,4.0489,4.0489,4.0489,4.052,4.0489,4.0597,4.0951,4.1786,4.2915,4.3947,4.4548,4.461,4.4425,4.4317,4.4302,4.4009,4.3294,4.2571,4.1617,4.0828,4.0166,3.9674,3.949,3.9874,4.009,4.0213,4.0305,4.0489,4.0489,4.0489,4.0489,4.0474,4.0459,4.0459,4.0443,4.0474,4.0489,4.0489,4.0489,4.0489,4.0489,4.0489,4.0489,4.0489,4.0489,4.0489,4.0489,4.0489,4.0489,4.0489,4.0489,4.0474,4.0459,4.0443,4.0459,4.0474,4.0474,4.0474,4.0474,4.0382,4.0243,3.9967,3.969,3.9382,3.8985,3.8462,3.7923,3.7569,3.712,3.6563,3.6099,3.5894,3.5576,3.4879,3.4264,3.4041,3.3699,3.3122,3.2832,3.261,3.2336,3.2277,3.2241,3.2205,3.2277,3.2372,3.2561,3.2704,3.2574,3.2503,3.2538,3.2444,3.2205,3.2205,3.9388,3.9424,3.961,3.9945,4.0296,4.042,4.0489,4.0489,4.0489,4.0489,4.0489,4.0489,4.0489,4.0489,4.0489,4.0489,4.0489,4.0489,4.0489,4.0489,4.0489,4.0489,4.0489,4.0489,4.0489,4.0489,4.0628,4.0951,4.1848,4.2802,4.3732,4.4533,4.461,4.4363,4.3917,4.4379,4.3987,4.2971,4.2648,4.2078,4.0662,3.9797,3.9382,3.9136,3.9398,3.9705,3.9828,4.0105,4.0489,4.0489,4.0489,4.0489,4.0489,4.0489,4.0489,4.0489,4.0489,4.0489,4.0489,4.0489,4.0489,4.0489,4.0489,4.0489,4.0489,4.0489,4.0489,4.0489,4.0489,4.0489,4.0489,4.0489,4.0489,4.0489,4.0489,4.0489,4.0489,4.0366,4.0136,4.0074,3.9844,3.9767,3.989,3.9567,3.9505,3.9323,3.8877,3.8262,3.7892,3.7538,3.6999,3.6474,3.6257,3.6022,3.5672,3.5124,3.4861,3.4413,3.3768,3.3192,3.2974,3.261,3.2205,3.2205,3.2205,3.2467,3.2668,3.2797,3.296,3.3017,3.296,3.2925,3.2761,3.261,3.2314,3.9388,3.9424,3.9783,4.0066,4.0296,4.042,4.0489,4.0489,4.0489,4.0489,4.0489,4.0489,4.0489,4.0489,4.0489,4.0489,4.0489,4.0489,4.0489,4.0489,4.0489,4.0489,4.0489,4.0489,4.0489,4.0489,4.0659,4.1212,4.2186,4.2848,4.3464,4.4486,4.4594,4.4271,4.3701,4.4255,4.3941,4.274,4.291,4.2771,4.1863,4.1294,4.0986,4.0632,4.0628,4.0182,4.0228,4.032,4.0489,4.0489,4.0489,4.0489,4.0489,4.0489,4.0489,4.0489,4.0489,4.0489,4.0489,4.0489,4.0489,4.0489,4.0489,4.0489,4.0489,4.0489,4.0474,4.0459,4.0459,4.0443,4.0382,4.0366,4.0366,4.0382,4.0443,4.0443,4.0443,4.0136,3.9813,3.9521,3.9259,3.9321,3.949,3.957,3.9521,3.9277,3.8846,3.8385,3.8108,3.7754,3.7107,3.666,3.6507,3.6289,3.6053,3.5847,3.5512,3.5139,3.4528,3.3939,3.3332,3.3009,3.2682,3.2314,3.2241,3.2574,3.2797,3.2925,3.3052,3.3318,3.3561,3.3526,3.3665,3.3575,3.2988,3.8996,3.9183,3.9839,4.0257,4.0401,4.0455,4.0489,4.0489,4.0489,4.0489,4.0489,4.0489,4.0489,4.0489,4.0489,4.0489,4.0489,4.0489,4.0489,4.0489,4.0489,4.0489,4.0489,4.0489,4.0489,4.0551,4.1258,4.1986,4.2571,4.3387,4.4079,4.4548,4.4564,4.4302,4.3793,4.4095,4.3895,4.2725,4.3279,4.3294,4.2863,4.2202,4.1417,4.1109,4.0751,4.0397,4.0213,4.0259,4.0489,4.0489,4.0489,4.0489,4.0489,4.0489,4.0489,4.0489,4.0489,4.0489,4.0489,4.0489,4.0489,4.0489,4.0489,4.0489,4.0382,4.032,3.9951,3.992,3.992,3.992,3.9474,3.9351,3.9351,3.9351,3.969,3.992,3.9905,3.9767,3.9367,3.8967,3.8798,3.8846,3.897,3.897,3.897,3.897,3.8554,3.8215,3.8,3.7754,3.7153,3.6753,3.6569,3.6492,3.6352,3.6195,3.6022,3.5608,3.5204,3.438,3.3665,3.3402,3.315,3.2739,3.2538,3.2739,3.2925,3.303,3.3437,3.3768,3.4007,3.4177,3.4346,3.4447,3.3919,3.8472,3.8862,3.9847,4.0366,4.0459,4.0366,4.0397,4.0459,4.0382,4.0351,4.0351,4.0428,4.0489,4.0489,4.0489,4.0489,4.0489,4.0489,4.0489,4.0489,4.0489,4.0489,4.0489,4.0489,4.0489,4.0782,4.1381,4.2032,4.2602,4.334,4.391,4.444,4.4425,4.4178,4.3947,4.3886,4.3618,4.3171,4.3347,4.3562,4.3069,4.2355,4.1571,4.1001,4.052,4.0182,3.9997,4.0074,4.0459,4.0489,4.0489,4.0489,4.0489,4.0489,4.0489,4.0489,4.0489,4.0489,4.0489,4.0489,4.0489,4.0489,4.0489,4.0443,4.0336,4.0105,3.9751,3.9428,3.9428,3.929,3.8877,3.8692,3.8692,3.8646,3.9044,3.9351,3.9336,3.9277,3.8798,3.8352,3.8292,3.8262,3.8338,3.8354,3.8338,3.8354,3.82,3.7923,3.7631,3.7338,3.6923,3.6676,3.6538,3.6492,3.6492,3.6429,3.6289,3.6179,3.5705,3.4747,3.4041,3.3871,3.3575,3.3044,3.2938,3.3066,3.3101,3.3157,3.3596,3.4061,3.4514,3.4762,3.5091,3.5124,3.478,3.8121,3.9024,3.9917,4.0366,4.0413,3.9936,3.9982,4.0351,3.9936,3.9708,3.9874,4.029,4.0489,4.0489,4.0489,4.0489,4.0489,4.0489,4.0489,4.0489,4.0489,4.0489,4.0489,4.0489,4.0489,4.0735,4.1074,4.1555,4.2355,4.291,4.3587,4.4471,4.4009,4.3793,4.3639,4.3547,4.3294,4.311,4.3248,4.3485,4.3193,4.2586,4.2125,4.1586,4.1058,4.0628,4.0366,4.0428,4.0489,4.0489,4.0489,4.0489,4.0489,4.0489,4.0489,4.0489,4.0489,4.0489,4.0489,4.0489,4.0489,4.0489,4.0489,4.0489,4.0397,4.032,3.9797,3.9075,3.9029,3.9029,3.8785,3.8846,3.8846,3.8554,3.8692,3.8708,3.8708,3.8354,3.7923,3.7569,3.7323,3.7461,3.7661,3.7646,3.76,3.7554,3.74,3.7169,3.7338,3.7015,3.6692,3.6599,3.6507,3.6492,3.6492,3.6492,3.6429,3.6383,3.6242,3.5432,3.4828,3.4447,3.4041,3.3575,3.3332,3.3332,3.3318,3.3353,3.363,3.4129,3.4861,3.5335,3.564,3.5705,3.5335]}]]